[[{"header":{"parameterUnit":"m.s-1","parameterCategory":1,"la1":30.6,"la2":29.2853,"lo1":-89.7004,"lo2":-87.6739,"dy":0.0162,"dx":0.0183,"nx":112,"ny":82,"refTime":"2024-04-07T00:00:00:Z","depth":0,"parameterNumber":2,"parameterNumberName":"U-component_of_WINDS"},"data":[0.0,0.0,0.0,0.0,0.0,0.0,0.0,0.0,0.0,0.0,0.0,0.0,0.0,0.0,0.0,0.0,0.0,0.0,0.0,0.0,0.0,0.0,0.0,0.0,0.0,0.0,0.0,0.0,0.0,0.0,0.0,0.0,0.0,0.0,0.0,0.0,0.0,0.0,0.0,0.0,0.0,0.0,0.0,0.0,0.0,0.0,0.0,0.0,0.0,0.0,0.0,0.0,0.0,0.0,0.0,0.0,0.0,0.0,0.0,0.0,0.0,0.0,0.0,0.0,0.0,0.0,0.0,0.0,0.0,0.0,0.0,0.0,0.0,0.0,0.0,0.0,0.0,0.0,0.0,0.0,0.0,0.0,0.0,0.0,0.0,0.0,0.0,0.0,0.0,0.0,0.0,2.028,2.3573,2.5675,2.5357,2.5428,2.4127,2.1047,0.0,0.0,0.0,0.0,0.0,0.0,0.0,0.0,0.0,0.0,0.0,0.0,0.0,0.0,0.0,0.0,0.0,0.0,0.0,0.0,0.0,0.0,0.0,0.0,0.0,0.0,0.0,0.0,0.0,0.0,0.0,0.0,0.0,0.0,0.0,0.0,0.0,0.0,0.0,0.0,0.0,0.0,0.0,0.0,0.0,0.0,0.0,0.0,0.0,0.0,0.0,0.0,0.0,0.0,0.0,0.0,0.0,0.0,0.0,0.0,0.0,0.0,0.0,0.0,0.0,0.0,0.0,0.0,0.0,0.0,0.0,0.0,0.0,0.0,0.0,0.0,0.0,0.0,0.0,0.0,0.0,0.0,0.0,0.0,0.0,0.0,0.0,0.0,0.0,0.0,0.0,0.0,0.0,0.0,0.0,0.0,0.0,0.0,0.0,0.0,0.0,0.0,0.0,0.0,1.9882,2.3409,2.4914,2.5876,2.6366,2.5534,2.4146,2.2101,0.0,0.0,0.0,0.0,0.0,0.0,0.0,0.0,0.0,0.0,0.0,0.0,0.0,0.0,0.0,0.0,0.0,0.0,0.0,0.0,0.0,0.0,0.0,0.0,0.0,0.0,0.0,0.0,0.0,0.0,0.0,0.0,0.0,0.0,0.0,0.0,0.0,0.0,0.0,0.0,0.0,0.0,0.0,0.0,0.0,0.0,0.0,0.0,0.0,0.0,0.0,0.0,0.0,0.0,0.0,0.0,0.0,0.0,0.0,0.0,0.0,0.0,0.0,0.0,0.0,0.0,0.0,0.0,0.0,0.0,0.0,0.0,0.0,0.0,0.0,0.0,0.0,0.0,0.0,0.0,0.0,0.0,0.0,0.0,0.0,0.0,0.0,0.0,0.0,0.0,0.0,0.0,0.0,0.0,0.0,0.0,0.0,0.0,0.0,0.0,0.0,0.0,0.0,1.9081,2.1139,2.4846,2.5881,2.6266,2.621,2.5933,2.4718,2.1986,2.0289,0.0,0.0,0.0,0.0,0.0,0.0,0.0,0.0,0.0,0.0,0.0,0.0,0.0,0.0,0.0,0.0,0.0,0.0,0.0,0.0,0.0,0.0,0.0,0.0,0.0,0.0,0.0,0.0,0.0,0.0,0.0,0.0,0.0,0.0,0.0,0.0,0.0,0.0,0.0,0.0,0.0,0.0,0.0,0.0,0.0,0.0,0.0,0.0,0.0,0.0,0.0,0.0,0.0,0.0,0.0,0.0,0.0,0.0,0.0,0.0,0.0,0.0,0.0,0.0,0.0,0.0,0.0,0.0,0.0,0.0,0.0,0.0,0.0,0.0,0.0,0.0,0.0,0.0,0.0,0.0,0.0,0.0,0.0,0.0,0.0,0.0,0.0,0.0,0.0,0.0,0.0,0.0,0.0,0.0,0.0,0.0,0.0,0.0,0.0,0.0,0.0,0.0,2.1262,2.2797,2.5386,2.6461,2.6774,2.606,2.6206,2.4987,2.1974,1.9965,0.0,0.0,0.0,0.0,0.0,0.0,0.0,0.0,0.0,0.0,0.0,0.0,0.0,0.0,0.0,0.0,0.0,0.0,0.0,0.0,0.0,0.0,0.0,0.0,0.0,0.0,0.0,0.0,0.0,0.0,0.0,0.0,0.0,0.0,0.0,0.0,0.0,0.0,0.0,0.0,0.0,0.0,0.0,0.0,0.0,0.0,0.0,0.0,0.0,0.0,0.0,0.0,0.0,0.0,0.0,0.0,0.0,0.0,0.0,0.0,0.0,0.0,0.0,0.0,0.0,0.0,0.0,0.0,0.0,0.0,0.0,0.0,0.0,0.0,0.0,0.0,0.0,0.0,0.0,0.0,0.0,0.0,0.0,0.0,0.0,0.0,0.0,0.0,0.0,0.0,0.0,0.0,0.0,0.0,0.0,0.0,0.0,0.0,0.0,0.0,0.0,0.0,2.2334,2.4506,2.5069,2.6324,2.6979,2.6538,2.5871,2.4581,2.2532,1.9202,0.0,0.0,0.0,0.0,0.0,0.0,0.0,0.0,0.0,0.0,0.0,0.0,0.0,0.0,0.0,0.0,0.0,0.0,0.0,0.0,0.0,0.0,0.0,0.0,0.0,0.0,0.0,0.0,0.0,0.0,0.0,0.0,0.0,0.0,0.0,0.0,0.0,0.0,0.0,0.0,0.0,0.0,0.0,0.0,0.0,0.0,0.0,0.0,0.0,0.0,0.0,0.0,0.0,0.0,0.0,0.0,0.0,0.0,0.0,0.0,0.0,0.0,0.0,0.0,0.0,0.0,0.0,0.0,0.0,0.0,0.0,0.0,0.0,0.0,0.0,0.0,0.0,0.0,0.0,0.0,0.0,0.0,0.0,0.0,0.0,0.0,0.0,0.0,0.0,0.0,0.0,0.0,0.0,0.0,0.0,0.0,0.0,0.0,0.0,0.0,0.0,0.0,2.1415,2.3669,0.0,2.6368,2.6918,2.6503,2.6142,2.4583,2.1627,0.0,0.0,0.0,0.0,0.0,0.0,0.0,0.0,0.0,0.0,0.0,0.0,0.0,0.0,0.0,0.0,0.0,0.0,0.0,0.0,0.0,0.0,0.0,0.0,0.0,0.0,0.0,0.0,0.0,0.0,0.0,0.0,0.0,0.0,0.0,0.0,0.0,0.0,0.0,0.0,0.0,0.0,0.0,0.0,0.0,0.0,0.0,0.0,0.0,0.0,0.0,0.0,0.0,0.0,0.0,0.0,0.0,0.0,0.0,0.0,0.0,0.0,0.0,0.0,0.0,0.0,0.0,0.0,0.0,0.0,0.0,0.0,0.0,0.0,0.0,0.0,0.0,0.0,0.0,0.0,0.0,0.0,0.0,0.0,0.0,0.0,0.0,0.0,0.0,0.0,0.0,0.0,0.0,0.0,0.0,0.0,0.0,0.0,0.0,0.0,0.0,0.0,1.8747,2.1313,2.3529,0.0,2.6505,2.7037,2.6623,2.6058,2.4431,2.1231,0.0,0.0,0.0,0.0,0.0,0.0,0.0,0.0,0.0,0.0,0.0,0.0,0.0,0.0,0.0,0.0,0.0,0.0,0.0,0.0,0.0,0.0,0.0,0.0,0.0,0.0,0.0,0.0,0.0,0.0,0.0,0.0,0.0,0.0,0.0,0.0,0.0,0.0,0.0,0.0,0.0,0.0,0.0,0.0,0.0,0.0,0.0,0.0,0.0,0.0,0.0,0.0,0.0,0.0,0.0,0.0,0.0,0.0,0.0,0.0,0.0,0.0,0.0,0.0,0.0,0.0,0.0,0.0,0.0,0.0,0.0,0.0,0.0,0.0,0.0,0.0,0.0,0.0,0.0,0.0,0.0,0.0,0.0,0.0,0.0,0.0,0.0,0.0,0.0,0.0,0.0,0.0,0.0,0.0,0.0,0.0,0.0,0.0,0.0,0.0,0.0,0.0,1.9091,2.2135,2.4546,2.5703,2.6736,2.7359,2.7256,2.5679,2.3794,0.0,0.0,0.0,0.0,0.0,0.0,0.0,0.0,0.0,0.0,0.0,0.0,0.0,0.0,0.0,0.0,0.0,0.0,0.0,0.0,0.0,0.0,0.0,0.0,0.0,0.0,0.0,0.0,0.0,0.0,0.0,0.0,0.0,0.0,0.0,0.0,0.0,0.0,0.0,0.0,0.0,0.0,0.0,0.0,0.0,0.0,0.0,0.0,0.0,0.0,0.0,0.0,0.0,0.0,0.0,0.0,0.0,0.0,0.0,0.0,0.0,0.0,0.0,0.0,0.0,0.0,0.0,0.0,0.0,0.0,0.0,0.0,0.0,0.0,0.0,0.0,0.0,0.0,0.0,0.0,0.0,0.0,0.0,0.0,0.0,0.0,0.0,0.0,0.0,0.0,0.0,0.0,0.0,0.0,0.0,0.0,0.0,0.0,0.0,0.0,0.0,0.0,0.0,1.903,2.2153,2.4564,2.5393,2.698,2.7706,2.7378,2.6825,2.5064,2.1568,0.0,0.0,0.0,0.0,0.0,0.0,0.0,0.0,0.0,0.0,0.0,0.0,0.0,0.0,0.0,0.0,0.0,0.0,0.0,0.0,0.0,0.0,0.0,0.0,0.0,0.0,0.0,0.0,0.0,0.0,0.0,0.0,0.0,0.0,0.0,0.0,0.0,0.0,0.0,0.0,0.0,0.0,0.0,0.0,0.0,0.0,0.0,0.0,0.0,0.0,0.0,0.0,0.0,0.0,0.0,0.0,0.0,0.0,0.0,0.0,0.0,0.0,0.0,0.0,0.0,0.0,0.0,0.0,0.0,0.0,0.0,0.0,0.0,0.0,0.0,0.0,0.0,0.0,0.0,0.0,0.0,0.0,0.0,0.0,0.0,0.0,0.0,0.0,0.0,0.0,0.0,0.0,0.0,0.0,0.0,0.0,0.0,0.0,0.0,0.0,0.0,0.0,1.9506,2.2336,2.472,2.6031,2.727,2.7924,2.7764,2.7314,2.5564,2.215,0.0,0.0,0.0,0.0,0.0,0.0,0.0,0.0,0.0,0.0,0.0,0.0,0.0,0.0,0.0,0.0,0.0,0.0,0.0,0.0,0.0,0.0,0.0,0.0,0.0,0.0,0.0,0.0,0.0,0.0,0.0,0.0,0.0,0.0,0.0,0.0,0.0,0.0,0.0,0.0,0.0,0.0,0.0,0.0,0.0,0.0,0.0,0.0,0.0,0.0,0.0,0.0,0.0,0.0,0.0,0.0,0.0,0.0,0.0,0.0,0.0,0.0,0.0,0.0,0.0,0.0,0.0,0.0,0.0,0.0,0.0,0.0,0.0,0.0,0.0,0.0,0.0,0.0,0.0,0.0,0.0,0.0,0.0,0.0,0.0,0.0,0.0,0.0,0.0,0.0,0.0,0.0,0.0,0.0,0.0,0.0,0.0,0.0,0.0,0.0,0.0,0.0,2.0335,2.2814,2.5069,2.6998,2.7641,2.7999,2.8194,2.7369,2.572,2.3183,0.0,0.0,0.0,0.0,0.0,0.0,0.0,0.0,0.0,0.0,0.0,0.0,0.0,0.0,0.0,0.0,0.0,0.0,0.0,0.0,0.0,0.0,0.0,0.0,0.0,0.0,0.0,0.0,0.0,0.0,0.0,0.0,0.0,0.0,0.0,0.0,0.0,0.0,0.0,0.0,0.0,0.0,0.0,0.0,0.0,0.0,0.0,0.0,0.0,0.0,0.0,0.0,0.0,0.0,0.0,0.0,0.0,0.0,0.0,0.0,2.1092,0.0,0.0,0.0,0.0,0.0,0.0,0.0,0.0,0.0,0.0,0.0,0.0,0.0,0.0,0.0,0.0,0.0,0.0,0.0,0.0,0.0,0.0,0.0,0.0,0.0,0.0,0.0,0.0,0.0,0.0,0.0,0.0,0.0,0.0,0.0,0.0,0.0,0.0,0.0,0.0,0.0,2.063,2.3522,2.5571,2.6175,2.7479,2.8128,2.7676,2.7806,2.6676,2.3738,0.0,0.0,0.0,0.0,0.0,0.0,0.0,0.0,0.0,0.0,0.0,0.0,0.0,0.0,0.0,0.0,0.0,0.0,0.0,0.0,0.0,0.0,0.0,0.0,0.0,0.0,0.0,0.0,0.0,0.0,0.0,0.0,0.0,0.0,0.0,0.0,0.0,0.0,0.0,0.0,0.0,0.0,0.0,0.0,0.0,0.0,0.0,0.0,0.0,0.0,0.0,0.0,0.0,0.0,0.0,0.0,0.0,0.0,0.0,0.0,0.0,2.237,0.0,0.0,0.0,0.0,0.0,0.0,0.0,0.0,0.0,0.0,0.0,0.0,0.0,0.0,0.0,0.0,0.0,0.0,0.0,0.0,0.0,0.0,0.0,0.0,0.0,0.0,0.0,0.0,0.0,0.0,0.0,0.0,0.0,0.0,0.0,0.0,0.0,0.0,0.0,0.0,2.1499,2.4068,2.6168,2.6986,2.793,2.8211,2.7891,2.8087,2.7266,2.4883,2.3299,0.0,0.0,0.0,0.0,0.0,0.0,0.0,0.0,0.0,0.0,0.0,0.0,0.0,0.0,0.0,0.0,0.0,0.0,0.0,0.0,0.0,0.0,0.0,0.0,0.0,0.0,0.0,0.0,0.0,0.0,0.0,0.0,0.0,0.0,0.0,0.0,0.0,0.0,0.0,0.0,0.0,0.0,0.0,0.0,0.0,0.0,0.0,0.0,0.0,0.0,0.0,0.0,0.0,2.8725,2.9372,2.9564,2.982,3.0015,3.0016,2.7551,2.6456,2.6082,0.0,0.0,0.0,0.0,0.0,0.0,0.0,0.0,0.0,0.0,0.0,0.0,0.0,0.0,0.0,0.0,0.0,0.0,0.0,0.0,0.0,0.0,0.0,0.0,0.0,2.587,2.5758,0.0,0.0,0.0,0.0,0.0,0.0,0.0,0.0,0.0,0.0,0.0,0.0,2.2617,2.4791,2.6647,2.7951,2.8281,2.8301,2.8174,2.8281,2.7617,2.6055,2.4264,2.2522,0.0,0.0,0.0,0.0,0.0,0.0,0.0,0.0,0.0,0.0,0.0,0.0,0.0,0.0,0.0,0.0,0.0,0.0,0.0,0.0,0.0,0.0,0.0,0.0,0.0,0.0,0.0,0.0,0.0,0.0,0.0,0.0,1.7191,1.8056,0.0,0.0,0.0,0.0,0.0,0.0,0.0,0.0,0.0,0.0,0.0,0.0,0.0,2.4905,2.7151,2.912,3.0512,3.1265,3.3396,3.399,3.3081,3.3728,3.3814,3.3401,3.3428,0.0,2.8026,2.7533,0.0,0.0,0.0,0.0,0.0,0.0,0.0,0.0,0.0,0.0,0.0,0.0,0.0,0.0,0.0,0.0,0.0,0.0,0.0,0.0,0.0,0.0,2.7069,2.7638,2.7644,2.7363,0.0,2.4992,2.2615,2.135,2.0631,0.0,0.0,0.0,0.0,0.0,0.0,0.0,2.3887,2.5703,2.7079,2.7435,2.796,2.8194,2.796,2.8174,2.7871,2.6914,2.572,2.4165,2.2246,2.0456,0.0,0.0,0.0,0.0,0.0,0.0,0.0,0.0,0.0,0.0,0.0,0.0,0.0,0.0,0.0,0.0,0.0,0.0,0.0,0.0,0.0,0.0,0.0,0.0,0.0,0.0,0.0,0.0,0.0,1.6934,1.8339,1.9125,1.9079,1.829,0.0,0.0,0.0,0.0,0.0,0.0,0.0,0.0,0.0,2.6871,2.7926,2.9436,3.1456,3.3021,3.418,3.4844,3.6143,3.6425,3.5938,3.6383,3.6431,3.6232,3.6651,3.5647,3.3555,3.0577,2.8166,2.6058,0.0,0.0,0.0,0.0,2.4945,2.5404,2.7459,2.8396,0.0,0.0,0.0,0.0,0.0,0.0,0.0,0.0,0.0,0.0,0.0,0.0,0.0,3.0113,3.0168,2.9874,2.9557,2.8253,2.6546,0.0,2.3165,2.1967,2.016,0.0,0.0,0.0,0.0,0.0,2.4199,2.6035,2.7427,2.7883,2.8194,2.8281,2.8174,2.8174,2.8027,2.7422,2.6606,2.554,2.4205,2.2287,2.0547,0.0,0.0,0.0,0.0,0.0,0.0,0.0,0.0,0.0,0.0,0.0,0.0,0.0,0.0,0.0,0.0,0.0,0.0,0.0,0.0,0.0,0.0,0.0,0.0,0.0,0.0,0.0,0.0,1.8897,1.9916,2.0373,2.116,2.0631,0.0,0.0,0.0,0.0,0.0,0.0,2.496,2.6311,2.8285,3.0821,3.2192,3.3578,3.5251,3.6223,3.6992,3.7613,3.7892,3.8039,3.8086,3.8275,3.8313,3.846,3.8644,3.8442,3.7795,3.3557,3.1174,2.9794,2.758,2.6455,2.6304,2.773,2.8246,2.8558,3.1378,3.2438,3.24,3.098,0.0,2.9341,2.6384,0.0,0.0,0.0,0.0,2.7507,2.9356,2.9886,3.0332,3.1809,3.2016,3.1639,3.0895,3.0548,2.955,0.0,2.5611,2.4202,2.1913,0.0,0.0,0.0,0.0,2.425,2.5119,2.6626,2.7752,2.831,2.8301,2.8301,2.8301,2.8301,2.8164,2.7851,2.7117,2.6291,2.5641,2.3779,2.2109,2.0968,0.0,0.0,0.0,0.0,0.0,0.0,0.0,0.0,0.0,0.0,0.0,0.0,0.0,0.0,0.0,0.0,0.0,0.0,0.0,0.0,0.0,0.0,0.0,0.0,0.0,0.0,0.0,0.0,0.0,2.2525,2.4682,0.0,0.0,0.0,0.0,2.4014,2.5158,2.6524,2.8186,3.022,3.2253,3.444,3.5387,3.6422,3.7839,3.8241,3.8541,3.8793,3.9141,3.9352,3.9529,3.9233,3.931,3.9489,3.9489,3.92,3.8658,3.6895,3.5664,3.4569,3.2494,3.1602,3.1521,3.1884,3.205,3.2112,3.3174,3.3883,3.4173,3.3335,3.1849,3.0216,2.9904,2.8795,0.0,0.0,2.9319,3.0024,3.1824,3.1984,3.1783,3.2347,3.23,3.1921,3.1134,3.0583,2.984,0.0,2.7511,2.6657,2.4956,0.0,2.4343,2.4196,2.4866,2.5828,2.7191,2.7763,2.8212,2.8688,2.8408,2.8301,2.8301,2.8301,2.8281,2.8262,2.709,2.6367,2.6328,2.4512,2.3083,2.2331,2.0186,0.0,0.0,0.0,0.0,0.0,0.0,0.0,0.0,0.0,0.0,0.0,0.0,0.0,0.0,0.0,0.0,0.0,0.0,0.0,0.0,0.0,0.0,0.0,0.0,0.0,0.0,0.0,0.0,2.5096,2.6611,0.0,2.5008,2.5597,2.6618,2.7751,2.9272,3.0841,3.2218,3.3615,3.5064,3.6303,3.7516,3.8463,3.9104,3.986,4.0345,4.0475,4.0682,4.0749,4.0409,4.0537,4.0416,4.016,4.0354,4.0256,3.977,3.9069,3.7636,3.5867,3.5135,3.4568,3.4151,3.4691,3.4915,3.5039,3.5503,3.594,3.6086,3.5112,3.3679,3.2447,3.281,3.2277,3.1695,3.2154,3.264,3.3191,3.3861,3.3958,3.4048,3.4445,3.4287,3.3885,3.3277,3.2858,3.2218,3.113,2.9408,2.7849,2.6943,2.6557,2.6103,2.5502,2.6185,2.6873,2.7661,2.8347,2.886,2.9104,2.9183,2.9121,2.9121,2.8848,2.8691,2.8691,2.75,2.6797,2.6797,2.5055,2.387,2.328,2.1868,2.0112,0.0,0.0,0.0,0.0,0.0,0.0,0.0,0.0,0.0,0.0,0.0,0.0,0.0,0.0,0.0,0.0,0.0,0.0,0.0,0.0,0.0,0.0,0.0,0.0,0.0,0.0,2.6691,2.7036,2.9068,2.9731,2.8092,2.9295,3.0494,3.1359,3.2759,3.3911,3.4844,3.6084,3.7087,3.7861,3.905,3.991,4.0269,4.0939,4.1329,4.1354,4.138,4.1345,4.1171,4.1102,4.1065,4.0918,4.1004,4.0893,4.0623,4.0217,3.9071,3.7605,3.7216,3.6751,3.6382,3.6726,3.6773,3.6746,3.6976,3.6928,3.6719,3.6307,3.5332,3.4486,3.4921,3.48,3.4582,3.4751,3.5088,3.5352,3.5254,3.5418,3.5574,3.5521,3.5385,3.5178,3.4343,3.4133,3.3832,3.2867,3.0997,2.9385,2.8614,2.8094,2.7544,2.6796,2.7393,2.814,2.831,2.9056,2.9695,2.9888,2.9857,2.9905,2.9905,2.9372,2.8928,2.8928,2.757,2.6783,2.6663,2.509,2.4028,2.3841,2.2585,2.0988,1.9061,0.0,0.0,0.0,0.0,0.0,0.0,0.0,0.0,0.0,0.0,0.0,0.0,0.0,0.0,0.0,0.0,0.0,0.0,0.0,0.0,0.0,0.0,0.0,2.4319,2.7174,2.8998,2.8449,3.1995,3.3656,3.1518,3.3315,3.4626,3.4895,3.54,3.5789,3.6086,3.7437,3.8477,3.9308,4.0065,4.0827,4.1272,4.1379,4.1379,4.1379,4.1056,4.1221,4.1718,4.1163,4.1096,4.1582,4.1378,4.1263,4.1167,4.0328,4.0001,3.9965,3.8613,3.8308,3.8488,3.7898,3.746,3.7324,3.7536,3.6906,3.6224,3.6932,3.6637,3.6129,3.6333,3.6435,3.6435,3.6435,3.6435,3.6357,3.6129,3.6231,3.6255,3.5455,3.5432,3.5328,3.42,3.4178,3.4178,3.3329,3.2267,3.1073,3.0071,2.9484,2.8802,2.8188,2.886,0.0,2.9435,3.0018,3.059,3.0901,3.0701,3.048,3.048,2.9655,2.9026,2.8794,2.7382,2.642,2.6091,2.4626,2.3794,2.3861,2.2191,2.0933,2.0186,0.0,0.0,0.0,0.0,0.0,0.0,0.0,0.0,0.0,0.0,0.0,0.0,0.0,0.0,0.0,0.0,0.0,0.0,0.0,0.0,0.0,0.0,2.7331,2.7312,2.9776,3.1926,3.2599,3.4463,3.5426,3.4987,3.5541,3.6146,3.6836,3.7139,3.7324,3.7453,3.8761,3.9526,3.978,4.0864,4.1629,4.2177,4.2202,4.2313,4.2534,4.2177,4.2252,4.2649,4.2513,4.2165,4.1694,4.183,4.1607,4.0991,4.0913,4.0898,4.0823,3.9635,3.921,3.9259,3.9306,3.8911,3.8334,3.7987,3.77,3.7388,3.7276,3.7084,3.686,3.6988,3.6988,3.6988,3.6988,3.7252,3.7469,3.698,3.7252,3.7436,3.672,3.6614,3.6377,3.5432,3.5323,3.5323,3.4888,3.4051,3.3156,3.2358,3.1232,3.0684,3.1315,3.0768,0.0,3.076,3.0852,3.071,3.0278,3.0406,3.0485,3.0167,2.9828,2.9226,2.8376,2.7302,2.6428,2.5839,2.4854,2.4286,2.4323,2.2839,2.1871,0.0,0.0,0.0,0.0,0.0,0.0,0.0,0.0,0.0,0.0,0.0,0.0,0.0,0.0,0.0,0.0,0.0,0.0,0.0,0.0,0.0,0.0,2.8022,3.0472,3.1522,3.296,3.4129,3.4923,3.6237,3.7106,3.7211,3.7613,3.8065,3.8403,3.88,3.897,3.8863,3.9904,4.0587,4.0587,4.1546,4.219,4.2513,4.2625,4.2762,4.2762,4.2625,4.2538,4.265,4.2513,4.2114,0.0,4.1731,4.1533,4.1016,4.1101,4.1136,0.0,0.0,0.0,0.0,0.0,3.9491,3.8767,3.8538,3.819,3.7844,3.7637,3.7436,3.7436,3.7621,3.7726,3.7726,3.7726,3.7968,3.8031,3.7508,3.7652,3.7868,3.7227,3.7251,3.7143,3.6386,3.6168,3.6059,3.5621,3.5223,0.0,3.3988,3.2577,3.1613,3.202,3.1646,3.1457,3.1519,3.1738,3.1681,3.1211,3.1251,3.1191,3.093,3.0388,0.0,0.0,0.0,2.6244,2.4967,2.4683,0.0,0.0,0.0,2.3433,2.3371,0.0,0.0,0.0,2.2319,2.2418,0.0,0.0,0.0,0.0,0.0,0.0,0.0,0.0,0.0,0.0,0.0,0.0,0.0,0.0,0.0,0.0,3.0772,3.3235,3.571,3.5907,3.5957,3.6191,3.7594,3.8513,3.8561,3.9406,3.9916,3.972,4.0294,4.0403,4.0135,0.0,0.0,0.0,0.0,4.2562,4.2612,4.2899,4.2899,4.2612,4.2562,4.2425,4.2224,4.1834,4.172,4.172,4.1516,4.1402,4.1378,4.1096,4.1237,4.1435,4.1439,4.1071,4.0671,4.0408,3.9741,3.9093,3.9345,0.0,0.0,3.8142,3.7987,3.7809,3.8388,3.8469,3.8421,3.8421,3.8421,3.8315,3.7809,3.7785,3.7868,3.7227,3.7358,3.7382,3.682,3.6712,3.6495,3.5995,3.6026,3.5893,3.5313,3.3703,3.2187,3.1569,3.2002,3.2436,3.22,3.2608,3.2845,3.2804,0.0,0.0,3.2072,3.0933,2.987,2.9112,2.7661,2.5959,2.4122,2.4751,2.4812,2.4142,2.4791,2.5378,2.5808,2.6424,2.6765,2.6806,2.4281,2.4178,0.0,0.0,0.0,0.0,0.0,0.0,0.0,0.0,0.0,0.0,0.0,0.0,0.0,0.0,0.0,2.9706,3.2345,3.4536,3.6062,3.6955,3.7604,3.7854,3.8563,3.9177,3.9588,3.9843,4.022,4.0572,4.0746,4.0685,4.0706,4.1731,0.0,4.1607,4.2463,4.3075,4.3526,4.2962,4.2962,4.3526,0.0,0.0,4.2874,4.2762,4.2625,4.2287,4.2538,4.2538,4.2287,4.2526,4.2588,4.2538,4.1878,4.1657,4.1681,4.1262,4.0734,4.0439,4.033,3.9623,3.9019,3.978,3.934,3.8729,3.9275,3.9104,0.0,3.8421,3.8421,3.8315,3.7998,3.7998,3.7868,3.7227,3.7358,3.7382,3.6603,3.6603,3.6719,3.6805,3.6386,3.6229,3.6451,3.5076,3.3983,3.4033,3.356,3.3348,3.3637,3.335,3.2834,3.2255,3.1816,3.1301,3.0943,3.0569,2.9836,2.8689,2.738,2.6174,2.547,2.6154,2.6472,2.6276,2.664,2.691,2.6993,2.7448,2.8048,2.8752,2.7469,2.7212,0.0,0.0,0.0,0.0,0.0,0.0,0.0,0.0,0.0,0.0,0.0,2.2363,2.4687,0.0,2.9155,3.1833,3.3953,3.5678,3.724,3.7831,3.8247,3.838,3.9272,3.9902,4.0168,4.0682,4.1163,4.125,4.1607,4.1768,4.1521,4.2128,4.2301,4.1917,4.2501,4.3012,4.3587,4.3312,4.3312,4.3587,4.3587,4.3287,4.2762,4.3037,4.2899,4.2513,4.265,4.2538,4.2312,4.265,4.2874,4.2936,4.2326,4.2177,4.2238,4.1941,4.1386,4.0867,4.1065,4.0488,3.9661,4.0147,3.9962,3.9701,3.9996,3.9981,3.9709,3.9226,3.9047,3.8867,3.8152,3.7974,3.7868,3.7465,3.7572,3.7679,3.7036,3.7115,3.7372,3.7409,3.7087,3.6879,3.6901,3.5954,3.5168,3.4954,3.44,3.4155,3.4142,3.3922,3.3478,3.2774,3.2058,3.1562,3.1556,3.085,3.0106,2.908,2.8084,2.7322,2.6643,2.7462,2.7925,2.7702,2.7901,2.8078,2.8276,2.8832,2.939,2.9849,2.9849,2.9849,0.0,0.0,0.0,0.0,0.0,0.0,0.0,0.0,2.0182,2.2262,2.3541,2.5138,2.7653,2.9327,3.1201,3.3621,3.5282,3.6647,3.8129,3.8547,3.8776,3.8885,3.9762,4.0427,4.0636,4.1501,4.1972,4.1834,4.2513,4.2762,4.2312,4.2538,4.2587,4.2485,4.2687,4.3123,4.3796,4.3901,4.3901,4.3821,4.4277,4.3901,4.28,4.3148,4.3099,4.28,4.2899,4.2786,4.2598,4.28,4.295,4.3073,4.2737,4.2625,4.2463,4.2374,4.1756,4.1086,4.1645,4.1164,4.0306,4.0404,4.0501,4.0597,4.0843,4.0854,4.069,3.9947,3.9643,3.9365,3.8369,3.8142,3.8059,3.7989,3.8096,3.8203,3.7797,3.7887,3.8084,3.809,3.7748,3.7506,3.7238,3.6684,3.6058,3.521,3.4987,3.4797,3.4513,3.4391,3.4146,3.353,3.2712,3.2296,3.2333,3.1191,3.0258,2.9754,2.9206,2.8595,2.7779,2.8725,2.9092,2.8854,2.9039,2.9393,2.9704,3.0266,3.0706,3.0811,3.1671,3.1918,1.5527,1.5319,1.5879,1.7719,1.8281,1.9544,0.0,0.0,2.4399,2.6759,2.7876,2.8898,3.027,3.1394,3.2643,3.4119,3.5709,3.696,3.7825,3.9253,4.0274,4.0522,4.0419,4.0684,4.1371,4.1558,4.1834,4.24,4.2513,4.265,4.2874,4.2986,4.3212,4.3576,4.3601,4.4217,4.5296,4.4794,4.4794,4.5296,4.4342,4.384,4.3689,4.3263,4.3313,4.374,4.4102,4.4281,4.4055,4.4055,4.3751,4.3406,4.3295,4.2961,4.2513,4.2438,4.2213,4.2012,4.2326,4.1867,4.1274,4.1966,4.1582,4.1072,4.1929,4.1447,4.0439,4.0062,3.9588,3.9199,3.8851,3.8719,3.8731,3.899,3.9196,3.9196,3.8442,3.8465,3.8629,3.8551,3.8018,3.773,3.8156,3.7407,3.6553,3.5699,3.5318,3.5123,3.4923,3.484,3.4592,3.3842,3.3426,3.2831,3.2058,3.1126,3.0505,3.0319,2.9828,2.9387,2.8906,2.9347,2.9803,2.9998,3.0472,3.0785,3.1153,3.1195,3.1642,3.228,3.2763,3.2784,1.902,1.897,1.9314,0.0,2.1548,2.2853,2.5037,2.5777,2.6441,2.8386,2.9562,3.0502,3.1825,3.2891,3.4005,0.0,3.6557,3.7786,3.8718,3.9753,4.0491,4.0804,4.0692,4.091,4.181,4.1859,4.2086,4.2513,4.265,4.2874,4.2986,4.3288,4.3564,4.379,4.4116,4.4669,4.5472,4.5246,4.5246,4.5497,4.5582,4.5153,4.4522,4.4598,4.4598,4.4522,4.4634,4.4608,4.4726,4.4169,4.4068,4.4004,4.3589,4.3437,4.3407,4.2761,4.2312,4.211,4.2199,4.2164,4.2015,4.2238,4.2103,4.1941,4.2188,4.1879,4.1237,4.0672,4.0317,3.9964,3.9454,3.9513,3.969,3.9682,3.9968,3.9997,3.9235,3.9057,3.8989,3.8573,3.8101,3.7874,3.8096,3.7396,3.6724,3.6167,3.5649,3.5143,3.4984,3.4573,3.4041,3.3545,3.351,3.3296,3.2512,3.2226,3.1701,3.1106,3.079,3.0406,2.9968,3.0386,3.083,3.1075,3.1218,3.14,3.1754,3.1996,3.2448,3.3226,3.3671,3.398,2.0521,2.1074,0.0,2.2471,2.3967,2.5472,2.6355,2.7138,2.8031,2.9591,3.0603,3.1516,3.2499,3.3685,3.4849,3.5825,3.7176,3.8348,3.9353,4.0063,4.0443,4.0721,4.0696,4.0978,4.1842,4.1903,4.2164,4.2625,4.2874,4.2986,4.2986,4.3514,4.3865,4.413,4.4684,4.5263,4.5842,4.5842,4.5842,4.5723,4.6213,4.6028,4.5334,4.574,4.5715,4.5334,4.5137,4.5112,4.5284,4.4648,4.4508,4.4709,4.4102,4.3946,4.4103,4.3283,4.2658,4.2168,4.2159,4.2199,4.2174,4.1972,4.2086,4.2199,4.2144,4.1981,4.1672,4.1031,4.0813,4.0507,3.9922,4.0114,4.0475,4.0535,4.0779,4.0761,4.0292,3.9941,3.9607,3.9121,3.8403,3.7956,3.8077,3.7362,3.6667,3.6423,3.5776,3.5143,3.4984,3.4265,3.3837,3.3713,3.3717,3.3518,3.333,3.2946,3.2403,3.1869,3.1456,3.107,3.0754,3.1166,3.1556,3.2018,3.1921,3.2097,3.2342,3.2567,3.3135,3.3919,3.4274,3.5051,1.851,1.9885,2.1749,2.2852,2.4696,2.683,2.8494,2.9078,2.9557,3.0863,3.1586,3.1993,3.2015,3.3582,3.4863,3.5153,3.6916,3.8544,3.9423,4.0063,4.041,4.0428,4.0512,4.073,0.0,4.1529,4.2077,4.2936,4.2961,4.2986,4.2986,4.3514,4.4155,4.5055,4.5613,4.6172,4.678,4.678,4.6661,4.6276,4.5773,4.5615,4.5918,4.5918,4.5918,4.5943,4.6144,4.6069,4.5893,4.5893,4.5563,4.5106,4.5081,4.4734,4.4202,4.4153,4.3431,4.2311,4.2168,4.1859,4.1606,4.1606,4.1606,4.1704,4.2214,4.1813,4.1172,4.1172,4.0787,4.0403,4.0379,4.0379,4.0643,4.1677,4.1707,4.1496,4.1633,4.1266,4.0632,4.0364,3.912,3.8218,3.8464,3.7335,3.6423,3.6423,3.5776,3.5143,3.4984,3.4278,3.4153,3.4777,3.3897,3.3514,3.4228,3.2835,3.2097,3.2411,3.1465,3.0995,3.1305,3.1325,3.1787,3.2685,3.2664,3.2799,3.3182,3.3161,3.3507,3.4274,3.4784,3.5629,2.1301,2.2862,2.4585,2.6108,2.7262,2.841,2.9229,2.9746,3.0202,3.1094,3.1105,3.1362,3.2431,3.3242,3.4188,3.5465,3.7356,3.8883,3.9604,4.0554,4.1023,4.0452,4.0572,0.0,0.0,0.0,0.0,4.2911,4.2635,4.276,4.3489,4.4269,4.494,4.5639,4.6076,4.655,4.7112,4.6754,4.6637,4.6849,4.6671,4.6595,4.6501,4.6501,4.6382,4.6144,4.6225,4.62,4.6119,4.5978,4.5927,4.5817,4.5674,4.554,4.5221,4.511,4.4259,4.3247,4.2592,4.2512,4.2692,4.2095,4.1972,4.1997,4.2193,4.1891,4.1378,4.1287,4.1317,4.1437,4.1437,4.1942,4.2543,4.2904,4.278,4.2626,4.2362,4.1453,4.0468,4.0006,3.9059,3.8326,3.8326,3.782,3.7106,3.656,3.5871,3.5148,3.4636,3.449,3.4673,3.4922,3.4551,3.4451,3.4654,3.4124,3.3697,3.3272,3.2492,3.2135,3.2554,3.1993,3.216,3.3141,3.3141,3.3372,3.3968,3.3508,3.3854,3.4784,3.5072,3.5392,2.3438,2.5044,2.6504,2.7983,2.8973,2.9574,3.0031,3.0433,3.0747,3.1149,3.08,3.0704,3.1841,3.2231,3.2961,3.4876,3.659,3.8162,3.9474,4.0322,4.0672,4.0403,4.0508,4.0782,0.0,0.0,0.0,4.2886,4.266,4.2836,4.374,4.4485,4.5055,4.5613,4.5988,4.636,4.6923,4.659,4.659,4.6923,4.7221,4.7247,4.6857,4.6917,4.678,4.6636,4.6421,4.6301,4.6276,4.6162,4.6094,4.6276,4.6137,4.5974,4.5914,4.566,4.5072,4.4269,4.3217,4.2897,4.2963,4.2504,4.2266,4.2037,4.2152,4.1891,4.1426,4.1528,4.1701,4.2014,4.2206,4.276,4.3289,4.3457,4.3279,4.2997,4.2879,4.1834,4.0733,4.0419,3.9336,3.8571,3.8571,3.8039,3.7276,3.6436,3.5852,3.5376,3.48,3.4862,3.4922,3.4922,3.4797,3.4675,3.4657,3.4472,3.4024,3.3478,3.2815,3.2595,3.3115,3.2572,3.2662,3.3738,3.3884,3.4117,3.4525,3.4064,3.4403,3.551,3.5339,3.5596,2.4698,2.6203,2.748,2.8711,2.9518,3.0229,3.0847,3.1042,3.1063,3.1162,3.0615,3.0161,0.0,0.0,3.1228,3.3324,3.4933,3.673,3.8832,3.9285,3.9623,0.0,0.0,0.0,0.0,0.0,0.0,4.2936,0.0,4.3212,4.3815,4.4156,4.4548,4.5157,4.5476,4.5847,4.6462,4.6462,4.6462,4.6462,4.7327,4.7419,4.6953,4.7093,4.7205,4.7087,4.6541,4.6326,4.6301,4.6326,4.6326,4.6301,4.6301,4.6326,4.6301,4.5939,4.5793,4.5544,4.4004,4.3086,4.2598,4.283,4.2598,4.2131,4.2482,4.2001,4.1365,4.187,4.2038,4.2158,4.2663,4.2832,4.2952,4.3433,4.3065,4.2738,4.3255,4.2339,4.1315,4.1338,4.0188,3.9088,3.9067,3.8039,3.6957,3.5865,3.5889,3.5935,3.548,3.517,3.4922,3.4922,3.4673,3.4423,3.4423,3.3793,3.3327,3.3327,3.2686,3.2571,3.3176,3.3135,3.351,3.4423,3.4806,3.4901,3.4912,3.4776,3.5229,3.6113,3.5682,3.6081,2.6408,2.828,2.9826,2.9917,3.0286,3.0669,3.0417,3.0328,3.0312,3.0057,2.8873,2.8004,0.0,0.0,0.0,3.2205,3.5628,0.0,3.9661,4.0918,0.0,4.1979,0.0,4.2077,4.2534,4.2338,0.0,0.0,4.2836,4.2961,4.4342,4.4383,4.5018,4.6627,4.6206,4.6487,4.773,4.7496,4.7496,4.773,4.7743,4.7508,4.7118,4.739,4.7231,4.6541,4.6661,4.6566,4.6301,4.6566,4.6566,4.6301,4.6566,4.6541,4.6301,4.5939,4.5689,4.5504,4.4842,4.4339,4.3885,4.3634,4.3394,4.3277,4.3041,4.2826,4.2635,4.2638,4.2832,4.3144,4.3289,4.3625,4.3986,4.4106,4.3636,4.3279,4.382,4.2719,4.1791,4.2176,4.0802,3.9411,3.9171,3.7984,3.6999,3.7027,3.63,3.5558,3.5107,3.517,3.5294,3.5294,3.4922,3.4797,3.4797,3.4322,3.4138,3.4138,3.3613,3.3759,3.4451,3.3821,3.4056,3.5359,3.4889,3.4933,3.5664,3.4602,3.4444,3.5143,3.5146,3.55,2.8325,2.9736,3.0858,3.0662,3.095,3.0901,3.0072,2.9929,2.9612,2.8448,2.7208,0.0,2.6014,0.0,0.0,0.0,0.0,0.0,3.9491,4.1139,4.2339,0.0,4.2999,0.0,4.3664,4.3576,4.3587,0.0,4.3363,4.3601,4.5153,4.4929,4.5527,4.6821,4.6346,4.6549,4.7574,4.7808,4.7808,4.76,4.7834,4.7574,4.6872,4.7457,4.7231,4.6566,0.0,4.6566,4.6301,4.6566,4.6421,4.6326,4.6819,4.6799,4.6677,4.6287,4.6113,4.5935,4.5445,4.5399,4.5327,4.4561,4.4052,4.3815,4.3576,4.3287,4.3046,4.3264,4.3409,4.3577,4.394,4.4229,4.4347,4.4347,4.4016,4.3773,4.4078,4.318,4.2294,4.2169,4.0891,3.9773,3.9529,3.82,3.7167,3.6983,3.6514,3.5895,3.5174,3.5292,3.5294,3.5046,3.4922,3.4797,3.4548,3.4423,3.4298,3.3922,3.4077,3.4285,3.4652,3.4309,3.4572,3.5459,3.5206,3.5328,3.5721,3.4782,3.4761,3.5635,3.5349,3.5703,2.9966,3.0834,3.1265,3.1289,3.1486,3.1306,2.9912,2.9615,2.8929,2.6696,0.0,2.4771,2.4114,2.5718,2.7751,2.9571,0.0,3.6844,3.9136,4.0745,4.214,4.3447,4.3687,4.4141,4.4694,4.4744,4.4744,4.4744,4.4407,4.4673,4.5775,4.5642,4.5822,4.6502,4.6346,4.6601,4.712,4.7821,4.7821,4.712,4.7704,4.7613,4.6642,4.7365,4.7478,4.6787,0.0,0.0,4.6426,4.6502,4.6527,4.6577,4.7054,4.723,4.7107,4.686,4.6687,4.6563,4.6165,4.6289,4.6488,4.5519,4.4836,4.4329,4.4329,4.3723,4.3192,4.3965,4.399,4.3843,4.4596,4.4519,4.4319,4.4319,4.4247,4.4266,4.4185,4.3516,4.2728,4.1834,4.077,3.9933,3.9799,3.8595,3.736,3.6556,3.6719,3.6537,3.5369,3.5448,3.5293,3.4709,3.4794,3.4794,3.4206,3.4478,3.4332,3.3642,3.4253,3.4483,3.4423,3.4797,3.5088,3.5239,3.5537,3.5499,3.538,3.497,3.5439,3.65,3.5938,3.6264,3.0724,3.1852,3.2535,3.1623,3.1842,3.1767,3.0015,2.8849,0.0,0.0,2.4026,2.3185,2.2278,2.4167,0.0,2.9866,0.0,0.0,0.0,0.0,4.2401,0.0,0.0,0.0,0.0,0.0,0.0,0.0,0.0,4.5857,4.559,4.5294,4.5706,4.6823,4.7444,4.7821,4.7925,4.7886,4.7886,4.7925,4.7534,4.7529,4.7795,4.8017,4.7707,4.7126,4.7825,0.0,4.7029,4.7456,4.7631,4.7631,4.7732,4.7782,4.7782,4.7433,4.7134,4.7057,4.7159,4.6936,4.6613,4.6414,4.6093,4.5674,4.5674,4.5085,4.4573,4.4915,4.4817,4.4596,4.4398,4.4659,4.487,4.4262,4.4407,4.4747,4.4906,4.4272,4.3399,4.2034,4.1038,4.018,3.9643,3.846,3.7461,3.6978,3.6922,3.6527,3.554,3.5658,3.6016,3.6003,3.5718,3.5636,3.5875,3.5658,3.5369,3.4879,3.522,3.5184,3.4818,3.517,3.5333,3.5239,3.5198,3.5008,3.4884,3.4798,3.507,3.5474,3.6195,3.6631,3.1635,3.2358,3.269,3.2494,3.2292,3.1419,2.9056,0.0,0.0,0.0,2.2117,2.1597,2.0831,0.0,0.0,0.0,0.0,0.0,0.0,0.0,0.0,0.0,0.0,0.0,0.0,0.0,0.0,0.0,0.0,4.6938,4.6729,4.6824,4.7262,4.7985,4.8274,4.8431,4.8431,4.8315,4.8172,4.8198,4.8342,4.8392,4.8343,4.8868,4.8634,4.7828,4.8426,0.0,4.7556,4.8081,4.8182,4.8207,4.851,4.8611,4.8611,4.8234,4.8084,4.7983,4.7808,4.7583,4.7507,4.7733,4.696,4.6117,4.5868,4.5502,4.5086,4.5453,4.5405,4.5254,4.5229,4.5266,4.5167,4.4782,4.4924,4.4914,4.4753,4.446,4.3825,4.2645,4.1798,4.1065,4.0498,3.9437,3.8466,3.8194,3.7807,3.7388,3.6714,3.675,3.6568,3.616,3.5956,3.6172,3.6527,3.6418,3.6187,3.609,3.5992,3.5742,3.5636,3.5417,3.5438,3.5459,3.5008,3.4774,3.4889,3.4654,3.4884,3.5627,3.6208,3.6687,3.237,3.2851,3.3085,3.3387,3.2705,3.1254,2.8365,2.6496,0.0,2.135,2.0595,2.037,1.9929,0.0,2.4338,0.0,2.9083,0.0,0.0,0.0,0.0,0.0,0.0,0.0,0.0,0.0,0.0,0.0,0.0,0.0,4.7703,4.8315,4.8779,4.9125,4.8895,4.8779,4.8895,4.8779,4.8716,4.8498,4.9153,4.9403,4.9092,4.975,4.9593,4.888,4.9106,0.0,0.0,4.8734,4.8935,4.896,4.9292,4.947,4.947,4.9089,4.8989,4.8863,4.8385,4.8384,4.843,4.8785,4.778,4.6486,4.6361,4.6093,4.5798,4.6043,4.597,4.5939,4.6064,4.5821,4.5609,4.5575,4.5404,4.4999,4.4458,4.4411,4.4135,4.3302,4.2514,4.1753,4.1316,4.0381,3.9675,3.9122,3.8733,3.8289,3.7743,3.7595,3.7267,3.6476,3.6404,3.6732,3.7094,3.7094,3.7053,3.7078,3.6597,3.6387,3.6398,3.5975,3.5706,3.5722,3.5289,3.5163,3.5316,3.5051,3.5402,3.6282,3.6535,3.6905,3.2461,3.3937,3.4882,3.3738,3.3299,3.219,2.8639,0.0,2.4251,2.1129,2.0308,2.0121,2.0024,2.0768,2.2654,2.6321,2.7728,3.0532,0.0,0.0,0.0,0.0,0.0,0.0,0.0,0.0,0.0,0.0,0.0,0.0,4.7703,4.8055,4.8521,4.9072,4.9098,4.924,4.9442,4.924,4.916,4.9402,4.9455,4.9943,5.0629,5.0435,5.0188,5.0116,5.0355,0.0,0.0,5.0229,5.0434,5.0333,5.0155,5.0053,5.0053,4.9643,4.9469,4.9217,4.9417,4.9138,4.8735,4.8953,4.8471,4.772,4.8357,4.7983,4.7283,4.7308,4.7082,4.6602,4.6093,4.6247,4.649,4.6304,4.5773,4.5301,4.4778,4.4526,4.4135,4.328,4.2492,4.1615,4.092,4.0658,4.0204,3.9122,3.9144,3.8833,3.7448,3.7455,3.7697,3.8044,3.7637,3.7591,3.8026,3.8067,3.7881,3.7446,3.7384,3.7198,3.6825,3.6722,3.6494,3.6121,3.6623,3.6721,3.6295,3.6838,3.7199,3.7243,3.755,3.7594,3.2695,3.4045,3.498,3.4812,3.3295,3.1322,2.8353,0.0,2.3157,2.0611,1.9399,1.8976,1.9556,1.9782,2.0836,2.3949,2.5012,2.7284,3.26,0.0,0.0,0.0,0.0,0.0,0.0,0.0,0.0,0.0,0.0,0.0,4.8521,4.8868,4.9213,4.967,4.9442,4.963,5.0121,5.0005,5.0184,5.0628,5.0976,5.1136,5.1398,5.1373,5.1158,5.0783,5.0891,0.0,0.0,5.0764,5.0867,5.0867,5.0741,5.0741,5.0614,5.0359,4.9952,4.9825,5.0155,4.9696,4.9032,4.9515,4.9311,4.8828,4.8632,4.8259,4.7958,4.7583,4.7428,4.7292,4.6779,4.6645,4.6437,4.6113,4.5754,4.521,4.4663,4.4388,4.4135,4.3302,4.287,4.2462,4.1601,4.1732,4.1604,4.0646,4.0389,4.0076,3.9384,3.8993,3.8788,3.8952,3.8553,3.8645,3.9101,3.8988,3.8779,3.8582,3.8026,3.777,3.8005,3.7611,3.7359,3.6949,3.7045,3.704,3.6848,3.704,3.7253,3.7374,3.7495,3.7637,3.2309,3.3886,3.4861,3.5091,3.3225,3.0643,0.0,2.5307,2.2503,2.0461,1.9159,1.8618,1.9347,1.9263,1.9897,2.2371,2.323,2.5335,3.0163,0.0,0.0,0.0,0.0,0.0,0.0,0.0,0.0,0.0,0.0,0.0,0.0,4.9556,4.9783,5.001,4.9783,5.0081,5.0702,5.0702,5.0963,5.1626,5.2149,5.2178,5.2002,5.2183,5.1996,5.1372,0.0,0.0,0.0,5.112,5.1246,5.1246,5.112,5.112,5.112,5.0715,5.0487,5.0359,5.0588,5.0078,4.959,4.9976,4.9976,4.9772,4.8907,4.8761,4.8812,4.7929,4.7691,4.7597,4.7206,4.6812,4.6271,4.6025,4.5734,4.5439,4.4889,4.4725,4.4514,4.3823,4.3521,4.3197,4.2321,4.2441,4.2581,4.1756,4.1215,4.0962,4.0829,4.0049,3.964,3.9909,3.9654,3.9595,3.974,3.9719,3.953,3.9045,3.8835,3.8618,3.8681,3.859,3.827,3.7957,3.7954,3.7868,3.789,3.7752,3.7819,3.7911,3.7811,3.8055,3.0776,3.314,3.4901,3.4528,3.2942,3.0932,2.8336,2.5524,2.2821,2.0879,1.9885,1.942,1.9552,1.9473,2.0122,2.2242,2.2976,2.5141,3.0827,3.2044,0.0,0.0,0.0,0.0,0.0,0.0,0.0,0.0,0.0,0.0,0.0,5.001,5.001,5.001,5.001,5.0422,5.1391,5.102,5.1359,5.2191,5.2577,5.2661,5.2588,5.2588,5.2368,0.0,0.0,0.0,0.0,5.1596,5.1596,5.1596,5.1246,5.112,5.112,5.0715,5.0867,5.0994,5.0715,5.0588,5.0461,5.0232,5.0359,5.0461,4.9847,4.9847,4.9847,4.8837,4.8026,4.7364,4.7098,4.6697,4.6271,4.6025,4.6011,4.6104,4.6127,4.5934,4.555,4.5057,4.4405,4.3567,4.2786,4.2883,4.2883,4.2159,4.1614,4.1186,4.0942,4.0096,3.9868,4.0758,4.0751,4.0431,3.9578,3.9813,3.9741,3.8874,3.9678,3.9647,3.8723,3.9523,3.9678,3.921,3.9473,3.9735,3.9735,3.9626,3.9528,3.9294,3.8941,3.9192,2.7757,2.9706,3.1345,3.1207,2.9586,2.7765,2.6656,2.4664,2.2538,2.0807,1.9854,1.9316,1.9552,1.9152,1.9924,2.3238,2.3882,2.5358,2.9274,0.0,0.0,0.0,0.0,0.0,0.0,0.0,0.0,0.0,0.0,0.0,0.0,5.001,5.001,5.001,5.001,5.0498,5.1646,5.1529,5.2009,5.3173,5.332,5.285,5.2056,5.2429,0.0,0.0,0.0,0.0,0.0,5.1596,5.1721,5.1872,5.1596,5.1622,5.1747,5.1346,5.1246,5.112,5.122,5.0842,5.0232,5.0359,5.0359,5.0232,5.0001,5.0232,5.0232,4.8967,4.8318,4.7954,4.746,4.6831,4.6405,4.6294,4.6148,4.5989,4.585,4.5957,4.5969,4.5243,4.4936,4.4497,4.3284,4.336,4.3502,4.2935,4.2505,4.2364,4.2581,4.1871,4.1438,4.1752,4.1997,4.1693,4.0494,4.0255,3.9878,3.9281,3.9361,3.9396,3.9363,3.9886,3.9908,3.9494,3.9888,4.0018,3.9757,3.9927,3.9677,3.9339,3.969,3.9814,2.5314,2.7236,2.894,2.9173,2.7753,2.621,2.5622,2.391,2.2098,2.0682,1.9873,1.9399,1.9356,1.9257,1.996,2.2382,2.3339,2.4998,2.8708,0.0,0.0,0.0,0.0,0.0,0.0,0.0,0.0,0.0,0.0,0.0,0.0,5.0348,5.0348,5.0348,5.0235,5.0721,5.1828,5.1945,5.2543,5.3592,5.3592,5.316,5.2352,5.2578,0.0,0.0,0.0,0.0,0.0,5.1596,5.1977,5.2411,5.18,5.1977,5.2411,5.18,5.1346,5.112,5.1372,5.0867,5.0104,5.0487,5.0359,5.0155,5.0486,5.041,4.9976,4.9097,4.868,4.8305,4.7642,4.725,4.697,4.6623,4.6588,4.6561,4.642,4.6666,4.6653,4.6043,4.5711,4.5367,4.4113,4.4157,4.4222,4.3741,4.3327,4.3257,4.3592,4.3003,4.2439,4.2752,4.2522,4.22,4.163,4.0974,4.0267,3.9532,3.9812,3.9982,3.9773,4.0626,4.078,4.0169,4.0432,4.0323,3.9888,4.0162,4.0129,3.9765,4.0118,4.0479,0.0,2.5442,2.7125,2.7872,2.6907,2.5647,2.4873,2.3257,0.0,2.0391,1.9977,1.966,1.9233,1.9636,2.0194,2.063,2.2095,2.4693,0.0,0.0,0.0,0.0,0.0,0.0,0.0,0.0,0.0,0.0,0.0,0.0,0.0,5.0906,5.0906,5.0906,5.0711,5.0976,5.1828,5.2178,5.2779,5.3592,5.3592,5.347,5.3052,5.2711,0.0,0.0,0.0,0.0,0.0,5.1648,5.224,5.2939,5.2009,5.2213,5.286,5.1931,5.1346,5.112,5.112,5.0741,5.0232,5.0487,5.0359,5.0359,5.1151,5.056,4.9536,4.9252,4.8993,4.8622,4.7823,4.7797,4.7886,4.7003,4.7212,4.7643,4.7643,4.7744,4.7658,4.7182,4.6803,4.6344,4.5236,4.5199,4.5069,4.4604,4.422,4.4095,4.4124,4.351,4.3236,4.3509,4.2774,4.2394,4.2682,4.189,4.0848,3.9737,4.0667,4.0912,4.0061,4.1575,4.2049,4.1131,4.1044,4.0782,4.0323,4.0484,4.0529,4.0497,4.0442,4.1135,1.9722,0.0,2.2432,2.2657,2.2418,2.2133,0.0,2.197,0.0,0.0,0.0,0.0,2.037,2.0296,2.1245,2.4538,2.5728,2.7426,3.079,0.0,0.0,0.0,0.0,0.0,0.0,0.0,0.0,0.0,0.0,0.0,0.0,5.0906,5.0906,5.0906,5.1045,5.1541,5.2151,5.2294,5.2779,5.3592,5.3833,5.3468,5.246,5.2524,0.0,0.0,0.0,0.0,5.3031,5.278,5.3111,5.3717,5.2959,5.2694,5.2678,5.1898,5.1596,5.1471,5.1471,5.1246,5.0867,5.0614,5.0588,5.0589,5.0893,5.0474,4.985,4.9693,4.9559,4.9315,4.8646,4.8444,4.8373,4.8254,4.8146,4.8048,4.8048,4.8177,4.8209,4.7781,4.7613,4.7264,4.6344,4.5934,4.5689,4.5578,4.5231,4.5031,4.5041,4.4699,4.4229,4.4033,4.3848,4.351,4.3342,4.1846,4.0856,4.0869,4.1092,4.1348,4.1431,4.2406,4.2704,4.2092,4.1371,4.1067,4.1199,4.1611,4.1681,4.1772,4.256,4.265,1.8328,1.9718,2.121,2.1542,2.154,2.1497,2.1825,2.134,0.0,0.0,0.0,0.0,0.0,0.0,2.2172,2.4572,2.6492,0.0,0.0,0.0,0.0,0.0,0.0,0.0,0.0,0.0,0.0,0.0,0.0,0.0,0.0,5.1348,5.1348,5.1348,5.1655,5.1904,5.2086,5.2504,5.2993,5.3544,5.3937,5.379,5.313,5.3093,5.2822,0.0,0.0,0.0,5.3095,5.2819,5.3254,5.3966,5.2952,5.2819,5.2864,5.1951,5.1471,5.1346,5.1346,5.1246,5.1172,5.1151,5.11,5.1126,5.1736,5.1109,5.0231,5.0481,5.0394,5.0147,4.9609,4.9366,4.92,4.8962,4.8874,4.8824,4.8538,4.8627,4.8546,4.8086,4.8269,4.8123,4.7477,4.7332,4.7114,4.6891,4.6475,4.6158,4.5729,4.5427,4.5039,4.4826,4.4401,4.4124,4.4272,4.2852,4.2046,4.1954,4.1954,4.201,4.2214,4.3088,4.3163,4.242,4.1699,4.1439,4.1573,4.2104,4.226,4.1968,4.3015,4.3284,1.8391,2.0039,2.1729,2.1902,2.2011,2.2091,2.1922,0.0,0.0,0.0,0.0,0.0,0.0,0.0,0.0,0.0,0.0,0.0,0.0,0.0,0.0,0.0,0.0,0.0,0.0,0.0,0.0,0.0,0.0,0.0,0.0,5.1787,5.1952,5.2036,5.235,5.2408,5.2015,5.2767,5.3236,5.353,5.3791,5.3919,5.3919,5.3643,5.3335,0.0,0.0,0.0,5.2994,5.2871,5.3289,5.3939,5.2811,5.2766,5.3183,5.203,5.1471,5.112,5.112,5.112,5.1198,5.1664,5.164,5.1639,5.2715,5.188,5.0795,5.1373,5.1209,5.0788,5.0321,5.0156,5.0151,4.9557,4.9487,4.9509,4.9268,4.9194,4.9073,4.8546,4.8983,4.9066,4.8584,4.8679,4.8681,4.8127,4.7879,4.74,4.6442,4.6072,4.5748,4.5578,4.4806,4.4527,4.5265,4.431,4.3611,4.3349,4.3056,4.2799,4.2938,4.3545,4.3447,4.2551,4.2049,4.1808,4.1808,4.2482,4.2526,4.1918,4.313,4.3623,1.9738,2.1393,2.2005,1.9871,2.0505,2.1496,2.0709,0.0,0.0,0.0,0.0,0.0,0.0,0.0,0.0,0.0,0.0,0.0,0.0,0.0,0.0,0.0,0.0,0.0,0.0,0.0,0.0,0.0,0.0,0.0,0.0,5.2004,5.2367,5.2986,5.3238,5.3376,5.3266,5.322,5.3014,5.2895,5.3208,5.3148,5.2917,5.3061,5.328,5.348,0.0,5.3646,5.4624,5.3982,5.4036,5.4364,5.3885,5.3342,5.2722,5.2147,5.1872,5.1471,5.1246,5.1246,5.1497,5.135,5.1305,5.1562,5.2228,5.2133,5.1815,5.2092,5.1234,5.0272,5.0198,5.0295,5.053,5.0458,5.0198,4.9961,4.9961,5.0005,4.9904,4.9073,4.9577,5.004,4.9089,4.9055,4.9118,4.9028,4.9153,4.8828,4.7859,4.7488,4.6833,4.6052,4.5578,4.5298,4.5298,4.5233,4.5147,4.5527,4.4035,4.3585,4.422,4.3751,4.3317,4.3075,4.2297,4.2058,4.2311,4.297,4.3214,4.2944,4.4437,4.4619,1.9165,2.0617,2.1596,2.1295,2.2747,2.414,2.3845,0.0,0.0,0.0,0.0,0.0,0.0,0.0,0.0,0.0,0.0,0.0,0.0,0.0,0.0,0.0,0.0,0.0,0.0,0.0,0.0,0.0,0.0,0.0,0.0,0.0,5.2892,5.397,5.3685,5.3594,5.3594,5.3468,5.3275,5.2967,5.3497,5.3601,5.3486,5.3951,5.3992,5.3901,0.0,5.4024,5.4269,5.3877,5.3877,5.3999,5.3632,5.3102,5.2588,5.197,5.1721,5.1596,5.1471,5.1471,5.1701,5.2227,5.2026,5.1898,5.2642,5.2343,5.1833,5.1544,5.1259,5.0921,5.0758,5.0731,5.0696,5.0696,5.0554,5.0388,5.0104,5.0364,5.0504,4.9857,5.0359,5.0839,5.0307,5.0224,5.0108,5.0108,4.9982,4.9628,4.8828,4.83,4.7707,4.7135,4.6526,4.6136,4.6024,4.5853,4.5596,4.5357,4.4776,4.43,4.4211,4.3828,4.3502,4.3184,4.2827,4.2696,4.2835,4.3503,4.3614,4.3184,4.4686,4.4937,1.8963,2.0153,2.1458,2.313,2.467,2.6086,2.7211,0.0,0.0,0.0,0.0,0.0,0.0,0.0,0.0,0.0,0.0,0.0,0.0,0.0,0.0,0.0,0.0,0.0,0.0,0.0,0.0,0.0,0.0,0.0,0.0,0.0,5.3675,5.4509,5.4476,5.4304,5.4161,5.4051,5.3713,5.2986,5.3641,5.3918,5.3832,5.4585,5.4686,5.4121,5.4405,5.4341,5.3833,5.3713,5.3713,5.3713,5.347,5.3105,5.2615,5.197,5.1721,5.1721,5.1471,5.1471,5.1779,5.2696,5.262,5.2052,5.2796,5.2476,5.1848,5.1021,5.1333,5.1771,5.1205,5.0857,5.0837,5.0696,5.0696,5.0554,5.0246,5.0771,5.1031,5.0599,5.11,5.1571,5.1303,5.1087,5.0944,5.0944,5.0633,5.0342,4.9805,4.903,4.8521,4.8395,4.7591,4.7003,4.6817,4.6217,4.5509,4.4906,4.4814,4.4503,4.3883,4.3752,4.3534,4.3184,4.3163,4.3163,4.3184,4.3997,4.3997,4.3302,4.4823,4.5074,2.0577,2.1496,2.2114,2.3821,2.4161,0.0,2.85,2.8273,0.0,0.0,0.0,0.0,0.0,0.0,0.0,0.0,0.0,0.0,0.0,0.0,0.0,0.0,0.0,0.0,0.0,0.0,0.0,0.0,0.0,0.0,0.0,0.0,0.0,5.4537,5.5849,5.639,5.5702,5.545,5.4341,5.2306,5.3205,5.3298,5.2883,5.429,5.4625,5.4102,5.4449,5.4607,5.446,5.4194,5.4074,5.4074,5.4074,5.3592,5.2983,5.2368,5.2121,5.1996,5.1372,5.1372,5.1701,5.1946,5.2026,5.2001,5.2334,5.245,5.227,5.1209,5.163,5.2114,5.0742,5.0847,5.1095,5.0837,5.0696,5.0696,5.0696,5.1489,5.1921,5.0984,5.1805,5.2248,5.1501,5.1393,5.1431,5.1431,5.1277,5.1099,5.0743,5.0335,4.9864,4.9336,4.8888,4.8289,4.7348,4.6115,4.536,4.52,4.4185,4.3643,4.3862,4.3143,4.2905,4.3184,4.2861,4.2861,4.3184,4.3997,4.4135,4.3719,4.48,4.521,1.9873,2.1384,2.3058,2.5046,2.6371,0.0,0.0,0.0,0.0,0.0,0.0,0.0,0.0,0.0,0.0,0.0,0.0,0.0,0.0,0.0,0.0,0.0,0.0,0.0,0.0,0.0,0.0,0.0,0.0,0.0,0.0,0.0,0.0,5.6214,5.6066,5.6008,5.6181,5.5666,5.4979,5.3961,5.448,5.4542,5.4205,5.5225,5.5159,5.4366,5.4706,5.4699,5.4286,5.3901,5.3865,5.4074,5.3592,5.347,5.3349,5.2368,5.2121,5.1996,5.1596,5.1471,5.1701,5.2175,5.2358,5.2282,5.1871,5.2302,5.2673,5.1245,5.1681,5.2327,5.0993,5.095,5.1095,5.0837,5.096,5.1201,5.1201,5.1778,5.2211,5.1873,5.184,5.1875,5.1561,5.1361,5.1254,5.1254,5.1378,5.1277,5.1277,5.063,5.0072,4.9779,4.8848,4.8164,4.7835,4.6615,4.5944,4.6199,4.4863,4.4062,4.3883,4.3545,4.3306,4.3184,4.3023,4.3023,4.3184,4.3997,4.4135,4.3697,4.48,4.521,1.9782,2.1346,2.3376,2.541,2.7531,0.0,0.0,0.0,0.0,0.0,0.0,0.0,0.0,0.0,0.0,0.0,0.0,0.0,0.0,0.0,0.0,0.0,0.0,0.0,0.0,0.0,0.0,0.0,0.0,0.0,0.0,0.0,0.0,0.0,5.6437,5.6321,5.6582,5.6119,5.5805,5.5695,5.5904,5.5651,5.5026,5.5678,5.5524,5.4699,5.4908,5.479,5.4405,5.3992,5.3956,5.4074,5.347,5.3349,5.347,5.2615,5.2368,5.2368,5.1846,5.1852,5.224,5.2717,5.29,5.2926,5.2207,5.2668,5.2941,5.133,5.1904,5.2654,5.126,5.1095,5.1284,5.1054,5.1225,5.1537,5.1706,5.2163,5.2524,5.2524,5.2349,5.2149,5.2149,5.1709,5.1489,5.1489,5.1355,5.1431,5.1562,5.0944,5.0342,5.0158,4.8937,4.81,4.81,4.6746,4.6052,4.6505,4.5317,4.4581,4.4342,4.4036,4.3774,4.3621,4.3468,4.3403,4.3381,4.4219,4.4358,4.4058,4.5187,4.5554,2.0911,2.1468,2.2723,2.4596,0.0,0.0,0.0,0.0,0.0,0.0,0.0,0.0,0.0,0.0,0.0,0.0,0.0,0.0,0.0,0.0,0.0,0.0,0.0,0.0,0.0,0.0,0.0,0.0,0.0,0.0,0.0,0.0,0.0,0.0,5.7139,5.7513,5.688,5.688,5.6993,5.7303,5.6993,5.6194,5.5026,5.5678,5.5613,5.5026,5.5026,5.5026,5.5026,5.4699,5.446,5.4074,5.3713,5.3592,5.347,5.2834,5.2861,5.2983,5.197,5.249,5.3502,5.3448,5.3889,5.4251,5.3501,5.3443,5.3443,5.1915,5.2204,5.2654,5.1492,5.1516,5.1828,5.1512,5.1489,5.1658,5.2187,5.2692,5.3077,5.3077,5.3186,5.3219,5.3219,5.2459,5.2,5.2,5.1716,5.1562,5.1847,5.1254,5.0633,5.0143,4.8962,4.8056,4.8056,4.6419,4.5577,4.6024,4.5144,4.4884,4.5325,4.4386,4.4102,4.4582,4.4102,4.3862,4.3862,4.4591,4.5012,4.4967,4.5711,4.6403,2.0235,2.2192,0.0,0.0,0.0,0.0,0.0,0.0,0.0,0.0,0.0,0.0,0.0,0.0,0.0,0.0,0.0,0.0,0.0,0.0,0.0,0.0,0.0,0.0,0.0,0.0,0.0,0.0,0.0,0.0,0.0,0.0,0.0,0.0,5.6872,5.6959,5.7191,5.7191,5.7191,5.7303,5.6993,5.6537,5.6023,5.5992,5.5613,5.5026,5.5261,5.5261,5.5026,5.4699,5.4449,5.409,5.367,5.3713,5.3833,5.3227,5.2983,5.301,5.2245,5.249,5.3197,5.3678,5.3997,5.4105,5.3737,5.3675,5.3663,5.2582,5.2614,5.2792,5.2189,5.2206,5.2294,5.1585,5.2067,5.2644,5.2812,5.2956,5.3077,5.3077,5.2736,5.2593,5.2593,5.2136,5.192,5.192,5.1638,5.1254,5.0789,5.0478,5.0031,4.8896,4.8432,4.797,4.7663,4.7509,4.7225,4.7073,4.6768,4.6245,4.5369,4.4713,4.4451,4.4582,4.4409,4.4463,4.4816,4.5191,4.5613,4.5929,4.6375,4.6724,2.2223,0.0,0.0,0.0,0.0,0.0,0.0,0.0,0.0,0.0,0.0,0.0,0.0,0.0,0.0,0.0,0.0,0.0,0.0,0.0,0.0,0.0,0.0,0.0,0.0,0.0,0.0,0.0,0.0,0.0,0.0,0.0,0.0,0.0,5.6955,5.6926,5.7303,5.7303,5.7303,5.7303,5.6734,5.6392,5.6165,5.6079,5.5729,5.5379,5.5496,5.5261,5.5026,5.4817,5.4477,5.4055,5.3937,5.3833,5.3833,5.3227,5.3132,5.301,5.2368,5.2774,5.3641,5.3885,5.4546,5.5076,5.4417,5.4386,5.4459,5.3317,5.3063,5.3117,5.2765,5.2783,5.2607,5.1895,5.2429,5.3077,5.3225,5.3369,5.3365,5.3365,5.3101,5.2884,5.2884,5.238,5.2071,5.1883,5.1664,5.1332,5.0611,5.0585,5.0027,4.852,4.8455,4.8014,4.7225,4.7597,4.7553,4.692,4.7247,4.7025,4.5926,4.5274,4.4976,4.515,4.4836,4.487,4.5178,4.5729,4.6036,4.645,4.6735,4.7133,2.5469,0.0,0.0,0.0,0.0,0.0,0.0,0.0,0.0,0.0,0.0,0.0,0.0,0.0,0.0,0.0,0.0,0.0,0.0,0.0,0.0,0.0,0.0,0.0,0.0,0.0,0.0,0.0,0.0,0.0,0.0,0.0,0.0,5.7303,5.7358,5.7328,5.7328,5.7328,5.7299,0.0,5.6326,5.5843,5.5872,5.5937,5.5933,5.599,5.5613,5.5379,5.5026,5.5026,5.4671,5.4194,5.4074,5.3954,5.3592,5.3227,5.3159,5.3213,5.2448,5.3217,5.448,5.4277,5.5279,5.642,5.5551,5.5391,5.5206,5.3997,5.3614,5.3468,5.3253,5.3122,5.2865,5.2299,5.272,5.3225,5.3569,5.3784,5.3822,5.3822,5.3822,5.3822,5.3822,5.3171,5.2353,5.1859,5.1836,5.1571,5.0807,5.0903,5.0582,4.8896,4.8758,4.8093,4.6852,4.7175,4.7021,4.6239,4.6999,4.7193,4.6684,4.597,4.5778,4.6151,4.5691,4.5472,4.5472,4.6134,4.6568,4.6591,4.6902,4.7463,0.0,0.0,0.0,0.0,0.0,0.0,0.0,0.0,0.0,0.0,0.0,0.0,0.0,0.0,0.0,0.0,0.0,0.0,0.0,0.0,0.0,0.0,0.0,0.0,0.0,0.0,0.0,0.0,0.0,0.0,0.0,0.0,0.0,5.764,5.7423,5.724,5.721,5.721,5.6866,0.0,5.5867,5.57,5.5539,5.5535,5.5766,5.599,5.5613,5.5496,5.5379,5.5144,5.479,5.446,5.4194,5.3954,5.3592,5.347,5.3768,5.4174,5.3681,5.4459,5.5559,5.6015,5.5945,5.5816,5.6158,5.5546,5.4645,5.4376,5.3861,5.3503,5.333,5.3242,5.3006,5.3031,5.3154,5.3617,5.4154,5.4025,5.3822,5.3822,5.3822,5.3822,5.3822,5.3036,5.2136,5.1021,5.1152,5.1152,5.0307,5.0544,5.0163,4.8888,4.8395,4.7902,4.7557,4.7425,4.7432,4.7917,4.7938,4.7831,4.7664,4.7552,4.7225,4.6913,4.6715,4.6613,4.6613,4.6803,4.6945,4.7356,4.7499,4.7751,0.0,0.0,0.0,0.0,0.0,0.0,0.0,0.0,0.0,0.0,0.0,0.0,0.0,0.0,0.0,0.0,0.0,0.0,0.0,0.0,0.0,0.0,0.0,0.0,0.0,0.0,0.0,0.0,0.0,0.0,0.0,5.5925,5.6493,5.6844,5.7467,5.7429,5.6809,5.7104,5.6682,5.582,5.5528,5.5167,5.501,5.5526,5.568,5.5794,5.582,5.5845,5.5729,5.5496,5.5172,5.4607,5.446,5.4101,5.3592,5.3592,5.385,5.424,5.4117,5.4646,5.5564,5.6144,5.6022,5.5921,5.6213,5.5709,5.4913,5.4645,5.4106,5.3802,5.3782,5.3646,5.3553,5.4127,5.4101,5.401,5.4427,5.4548,5.4199,5.3784,5.3929,5.3876,5.351,5.2798,5.2009,5.1361,5.1257,5.1221,5.0665,5.0559,5.0168,4.9163,4.8688,4.8339,4.784,4.7656,4.7835,4.818,4.8059,4.7954,4.7907,4.8259,4.8055,4.6872,4.6973,4.6983,4.6758,4.7167,4.7447,4.7698,4.7698,4.7835,0.0,0.0,0.0,0.0,0.0,0.0,0.0,0.0,0.0,0.0,0.0,0.0,0.0,0.0,0.0,0.0,0.0,0.0,0.0,0.0,0.0,0.0,0.0,0.0,0.0,0.0,0.0,0.0,0.0,0.0,5.5242,5.6092,5.6289,5.585,5.7319,5.7596,5.6338,5.6809,5.6643,5.5645,5.4924,5.4555,5.4371,5.5314,5.5559,5.5394,5.6108,5.6079,5.5678,5.5905,5.5468,5.456,5.4671,5.4221,5.3713,5.3592,5.3931,5.4278,5.4278,5.4807,5.5644,5.5902,5.6122,5.6132,5.6132,5.5868,5.5339,5.4779,5.4241,5.4099,5.4174,5.3936,5.3959,5.4988,5.4882,5.4546,5.4791,5.5016,5.4745,5.3838,5.4105,5.4102,5.3297,5.2387,5.1836,5.1711,5.1431,5.1164,5.0972,5.0735,5.0202,4.9456,4.9148,4.8814,4.8255,4.8271,4.8191,4.8109,4.8214,4.8155,4.81,4.8758,4.8383,4.6748,4.7276,4.7254,4.6613,4.7454,4.7804,4.7827,4.7827,4.7872,0.0,0.0,0.0,0.0,0.0,0.0,0.0,0.0,0.0,0.0,0.0,0.0,0.0,0.0,0.0,0.0,0.0,0.0,0.0,0.0,0.0,0.0,0.0,0.0,0.0,0.0,0.0,0.0,0.0,0.0,5.4604,5.5225,5.5595,5.585,5.7339,5.7583,5.6279,5.6581,5.6179,5.5031,5.4176,5.3751,5.3961,5.4507,5.4851,5.507,5.5823,5.5366,5.446,5.5536,5.5303,5.4185,5.4713,5.4552,5.3954,5.3713,5.4324,5.5176,5.5176,5.5934,5.6936,5.7065,5.6601,5.6132,5.6132,5.5604,5.5099,5.5099,5.4537,5.3997,5.4099,5.3909,5.3858,5.4511,5.5039,5.5226,5.5408,5.5287,5.4868,5.4324,5.405,5.3654,5.3149,5.2373,5.1479,5.0637,5.0835,5.0519,4.9559,4.9886,5.0086,4.9669,4.9229,4.9194,4.9675,4.9275,4.9029,4.9245,4.9102,4.9124,4.8873,4.9383,4.9153,4.814,4.8499,4.8292,4.7499,4.7975,4.7998,4.7591,4.7591,4.782,0.0,0.0,0.0,0.0,0.0,0.0,0.0,0.0,0.0,0.0,0.0,0.0,0.0,0.0,0.0,0.0,0.0,0.0,0.0,0.0,0.0,0.0,0.0,0.0,0.0,0.0,0.0,0.0,0.0,5.3123,5.3831,5.4287,5.4818,5.5217,5.6509,5.6538,5.5426,5.5782,5.5424,5.4328,5.3961,5.371,5.3739,5.441,5.4769,5.4764,5.544,5.5163,5.44,5.5311,5.508,5.419,5.4775,5.479,5.4341,5.3954,5.4597,5.566,5.541,5.6197,5.7174,5.7174,5.6655,5.6132,5.6132,5.5604,5.5099,5.5099,5.4671,5.4241,5.4241,5.4133,5.4062,5.434,5.4678,5.5089,5.5351,5.5306,5.5014,5.4427,5.3716,5.3252,5.3053,5.2564,5.1911,5.1072,5.1261,5.1037,5.0313,5.0584,5.0637,5.0063,4.9549,4.9532,5.0104,4.9311,4.9014,4.9955,4.8951,4.8623,4.9112,4.9299,4.9067,4.84,4.8835,4.8441,4.7206,4.7924,4.8182,4.7905,4.8062,4.8171,0.0,0.0,0.0,0.0,0.0,0.0,0.0,0.0,0.0,0.0,0.0,0.0,0.0,0.0,0.0,0.0,0.0,0.0,0.0,0.0,0.0,0.0,0.0,0.0,0.0,0.0,0.0,0.0,0.0,5.2705,5.3288,5.3759,5.4186,5.4671,5.5663,5.5782,5.4938,5.51,5.4773,5.3993,5.389,5.3815,5.3635,5.4515,5.4614,5.4313,5.496,5.5002,5.4476,5.5194,5.5055,5.4394,5.4893,5.4936,5.4726,5.4386,5.4977,5.606,5.5698,5.6305,5.7303,5.7174,5.6655,5.6132,5.6,5.5604,5.5099,5.5099,5.4805,5.4511,5.4511,5.4407,5.4315,5.4315,5.4441,5.4687,5.5089,5.5246,5.5131,5.44,5.3449,5.2865,5.3152,5.2541,5.2106,5.1673,5.1716,5.1491,5.1107,5.0966,5.0901,5.0501,4.9982,4.9818,5.0246,4.9362,4.9259,5.0096,4.8845,4.8429,4.9236,4.9235,4.9026,4.873,4.891,4.8326,4.7252,4.8177,4.8483,4.8233,4.8367,4.8338,0.0,0.0,0.0,0.0,0.0,0.0,0.0,0.0,0.0,0.0,0.0,0.0,0.0,0.0,0.0,0.0,0.0,0.0,0.0,0.0,0.0,0.0,0.0,0.0,0.0,0.0,0.0,0.0,0.0,5.2339,5.2983,5.352,5.3989,5.4274,5.5529,5.5857,5.5276,5.499,5.4668,5.4304,5.3993,5.3919,5.3919,5.4592,5.4351,5.3646,5.4569,5.4662,5.4201,5.5135,5.5282,5.4941,5.5359,5.5261,5.4991,5.5001,5.5606,5.6362,5.6314,5.6913,5.756,5.6942,5.6394,5.6,5.5736,5.5365,5.5099,5.5099,5.4805,5.4511,5.4511,5.4407,5.4315,5.4315,5.4441,5.4587,5.4612,5.4862,5.4844,5.4328,5.3643,5.3029,5.3053,5.2235,5.1585,5.1749,5.156,5.144,5.1184,5.0953,5.0912,5.0889,5.0413,5.0246,5.0696,5.0435,5.0073,4.9579,4.9252,4.9236,4.9723,4.9502,4.9455,4.9677,4.9154,4.8588,4.8308,4.8812,4.8812,4.8331,4.8302,4.7951,2.3186,0.0,0.0,0.0,0.0,0.0,0.0,0.0,0.0,0.0,0.0,0.0,0.0,0.0,0.0,0.0,0.0,0.0,0.0,0.0,0.0,0.0,0.0,0.0,0.0,0.0,0.0,0.0,0.0,0.0,5.2841,5.3255,5.3989,5.4845,5.4951,5.4687,5.4097,5.3994,5.3847,5.3714,5.4259,5.423,5.3919,5.4361,5.4124,5.353,5.3888,5.4099,5.4086,5.4869,5.5109,5.5055,5.5619,5.5866,5.5877,5.5381,5.5976,5.6886,5.673,5.6941,5.7303,5.7303,5.6915,5.6394,5.6,5.5736,5.5339,5.4805,5.5039,5.5247,5.4588,5.4543,5.449,5.3583,5.3772,5.4049,5.386,5.4084,5.3967,5.3626,5.3316,5.3029,5.2766,5.2306,5.1801,5.185,5.1729,5.1417,5.1319,5.1321,5.1202,5.0866,5.0674,5.0554,5.0696,5.0437,5.0173,5.0026,4.9474,4.9083,4.9259,4.9502,4.9151,4.8315,4.8988,4.8751,4.7918,4.8062,4.8182,4.8326,4.826,4.819,2.1899,2.3626,0.0,0.0,0.0,0.0,0.0,0.0,0.0,0.0,0.0,0.0,0.0,0.0,0.0,0.0,0.0,0.0,0.0,0.0,0.0,0.0,0.0,0.0,0.0,0.0,0.0,0.0,0.0,0.0,5.2783,5.3337,5.409,5.5179,5.4845,5.4315,5.3692,5.3592,5.3491,5.3592,5.4137,5.4331,5.4023,5.4436,5.4303,5.371,5.3867,5.3984,5.4374,5.4806,5.5163,5.5366,5.582,5.6124,5.6332,5.6048,5.6676,5.7564,5.7284,5.7232,5.756,5.7431,5.7044,5.6524,5.6132,5.5736,5.5472,5.4939,5.52,5.5543,5.4883,5.4686,5.4398,5.3369,5.3306,5.3495,5.3554,5.3621,5.3653,5.3313,5.3147,5.289,5.2607,5.2176,5.1868,5.2233,5.2018,5.1826,5.1994,5.1874,5.1562,5.1032,5.0816,5.0696,5.0696,5.027,5.0104,5.0026,4.9455,4.9264,4.9275,4.9553,4.9368,4.8469,4.9037,4.8894,4.8039,4.7895,4.7947,4.8048,4.8004,4.7889,0.0,0.0,0.0,0.0,0.0,0.0,0.0,0.0,0.0,0.0,0.0,0.0,0.0,0.0,0.0,0.0,0.0,0.0,0.0,0.0,0.0,0.0,0.0,0.0,0.0,0.0,0.0,0.0,0.0,5.2129,5.2753,5.3635,5.4491,5.5149,5.5149,5.482,5.4162,5.3933,5.3733,5.3733,5.3763,5.3989,5.4333,5.4982,5.4923,5.4333,5.441,5.462,5.4979,5.4979,5.5392,5.5961,5.5961,5.6124,5.6535,5.6791,5.7528,5.8295,5.7878,5.7944,5.8071,5.7044,5.6682,5.6551,5.5868,5.5604,5.5472,5.5232,5.5125,5.5125,5.5125,5.4588,5.404,5.3696,5.3306,5.3092,5.3478,5.3758,5.3935,5.3783,5.3147,5.2607,5.2607,5.1859,5.1576,5.2646,5.2526,5.2427,5.298,5.2572,5.2043,5.1513,5.1008,5.0696,5.0696,5.0412,4.9961,4.9509,4.9509,4.9509,4.9509,4.9961,5.0104,5.008,4.918,4.8896,4.898,4.8523,4.8125,4.762,4.7515,4.7003,2.0215,0.0,0.0,0.0,0.0,0.0,0.0,0.0,0.0,0.0,0.0,0.0,0.0,0.0,0.0,0.0,0.0,0.0,0.0,0.0,0.0,0.0,0.0,0.0,0.0,0.0,0.0,0.0,5.2269,5.2591,5.21,5.3396,5.4311,5.4491,5.4012,5.3414,5.2755,5.2659,5.2897,5.3345,5.3853,5.425,5.4671,5.4613,5.4377,5.4023,5.3809,5.3926,5.4316,5.4996,5.5217,5.531,5.5993,5.6613,5.7154,5.6959,5.7438,5.823,5.8396,5.8071,5.756,5.7688,5.7303,5.6682,5.6132,5.5736,5.5472,5.4779,5.5091,5.5565,5.5047,5.4945,5.4493,5.3445,5.3306,5.352,5.3827,5.3569,5.3331,5.3457,5.3155,5.2878,5.2878,5.2198,5.2024,5.3103,5.2327,5.1871,5.2793,5.2089,5.1483,5.1313,5.091,5.0696,5.0696,5.0554,5.0412,4.9961,4.9961,4.9795,4.9509,4.9961,4.9772,4.9133,4.9203,4.906,4.8399,4.7993,4.778,4.762,4.7307,4.7275,2.1269,2.2221,2.3635,0.0,0.0,0.0,3.1013,3.2662,0.0,0.0,0.0,0.0,0.0,0.0,0.0,0.0,0.0,0.0,0.0,0.0,0.0,0.0,0.0,0.0,0.0,0.0,0.0,5.1896,5.2673,5.3166,5.3247,5.3555,5.3922,5.4389,5.3488,5.2798,5.2407,5.2137,5.2372,5.3174,5.3593,5.4182,5.5006,5.4539,5.4304,5.4259,5.3739,5.3772,5.4273,5.5047,5.5242,5.5083,5.6051,5.6844,5.7378,5.7136,5.7796,5.8578,5.8704,5.8198,5.7688,5.7944,5.7431,5.6785,5.6263,5.6,5.5604,5.4939,5.5174,5.5486,5.5202,5.4919,5.4479,5.3658,5.347,5.3419,5.3912,5.3452,5.3142,5.3894,5.367,5.3256,5.3256,5.2759,5.2705,5.3345,5.2592,5.2111,5.2719,5.2063,5.1455,5.1236,5.0954,5.0696,5.0696,5.0696,5.0554,5.0104,5.0246,5.0104,4.9795,4.9961,4.9819,4.9369,4.951,4.9107,4.845,4.8136,4.7734,4.7582,4.7466,4.7501,2.3244,2.3807,2.5124,0.0,0.0,0.0,3.2102,3.2375,3.2885,0.0,0.0,0.0,0.0,0.0,0.0,0.0,0.0,0.0,0.0,0.0,0.0,0.0,0.0,0.0,0.0,5.1208,5.1423,5.2965,5.3144,5.3773,5.5119,5.3832,5.3451,5.4345,5.3044,5.2382,5.2292,5.178,5.2077,5.3174,5.3174,5.3892,5.5179,5.4539,5.4436,5.47,5.3844,5.3878,5.4517,5.5155,5.5242,5.5111,5.6051,5.6844,5.7378,5.7378,5.8165,5.908,5.8829,5.8451,5.8071,5.7816,5.7431,5.7044,5.6394,5.6132,5.5868,5.5232,5.5151,5.5147,5.532,5.4731,5.4168,5.4352,5.3658,5.328,5.3938,5.3503,5.3356,5.4577,5.4214,5.3632,5.3683,5.352,5.332,5.3492,5.3057,5.2815,5.2937,5.2425,5.1746,5.126,5.0978,5.0696,5.0696,5.0696,5.0554,5.0246,5.0554,5.0554,5.0104,5.0104,5.0104,5.0104,4.9652,4.9273,4.8685,4.839,4.7947,4.74,4.7648,4.7596,0.0,0.0,0.0,0.0,0.0,0.0,2.613,2.7884,3.0462,0.0,0.0,0.0,0.0,0.0,0.0,0.0,0.0,0.0,0.0,0.0,0.0,0.0,0.0,0.0,0.0,5.1113,5.1149,5.2048,5.2778,5.3773,5.5119,5.3414,5.2456,5.2672,5.1922,5.1263,5.0631,5.102,5.1887,5.3174,5.3174,5.3794,5.4905,5.4436,5.42,5.4023,5.371,5.3878,5.4546,5.5155,5.5353,5.5424,5.6166,5.6961,5.7712,5.7499,5.8043,5.8829,5.8704,5.8325,5.7816,5.7688,5.7303,5.6812,5.6682,5.6132,5.5604,5.5232,5.5143,5.5268,5.477,5.5014,5.5252,5.4807,5.4628,5.4526,5.5099,5.4193,5.363,5.4602,5.3935,5.3206,5.3632,5.3039,5.2982,5.432,5.3378,5.2858,5.3582,5.2699,5.1779,5.1681,5.1119,5.0696,5.0696,5.0696,5.0696,5.0554,5.0696,5.0696,5.0554,5.0554,5.0554,5.0554,4.9795,4.9175,4.8529,4.7941,4.7744,4.7818,4.7585,4.7772,0.0,0.0,0.0,2.8011,0.0,0.0,0.0,2.7981,2.9109,0.0,0.0,0.0,0.0,0.0,0.0,0.0,0.0,0.0,0.0,0.0,0.0,0.0,0.0,0.0,0.0,5.0236,5.0445,5.1458,5.224,5.3144,5.4132,5.2935,5.2132,5.1897,5.1266,5.0755,5.0425,5.0755,5.1653,5.3174,5.3174,5.3794,5.5006,5.4671,5.4333,5.4097,5.3815,5.4158,5.4952,5.4952,5.5487,5.6419,5.6394,5.6932,5.7831,5.7499,5.8043,5.8955,5.8955,5.8451,5.7944,5.7944,5.7431,5.6942,5.6812,5.6076,5.5366,5.5153,5.4863,5.4496,5.4363,5.4645,5.4738,5.4344,5.4473,5.4679,5.4951,5.4338,5.3827,5.4355,5.3792,5.3381,5.3607,5.3453,5.347,5.429,5.347,5.3048,5.3893,5.2907,5.2099,5.182,5.1236,5.0837,5.0696,5.0696,5.0696,5.0696,5.0696,5.0696,5.0696,5.0554,5.0246,5.0104,4.9532,4.8984,4.8562,4.8154,4.8021,4.8076,4.8076,4.8216,0.0,0.0,0.0,0.0,0.0,2.9367,0.0,0.0,0.0,0.0,0.0,0.0,0.0,0.0,0.0,0.0,0.0,0.0,0.0,0.0,0.0,0.0,0.0,0.0,0.0,4.8953,4.9434,5.0993,5.1263,5.1708,5.2755,5.2187,5.1623,5.1118,5.0727,5.0456,5.0306,5.0697,5.1656,5.3174,5.3324,5.4012,5.5078,5.4773,5.4539,5.42,5.4036,5.4555,5.5496,5.4894,5.5736,5.7303,5.6508,5.6963,5.7831,5.7499,5.8165,5.9205,5.908,5.862,5.806,5.8043,5.7688,5.7174,5.6682,5.5992,5.5256,5.5207,5.4498,5.3839,5.4184,5.421,5.4105,5.397,5.4334,5.4671,5.4775,5.4454,5.4106,5.4106,5.3861,5.363,5.3747,5.3728,5.3886,5.411,5.3562,5.3338,5.3911,5.2973,5.2238,5.182,5.1376,5.1095,5.0696,5.0696,5.0837,5.0696,5.0696,5.0837,5.0696,5.0412,4.9961,4.9509,4.9245,4.9058,4.8614,4.8627,4.8413,4.819,4.8567,4.8472,0.0,0.0,0.0,0.0,3.3938,0.0,0.0,0.0,0.0,0.0,0.0,0.0,0.0,0.0,0.0,0.0,0.0,0.0,0.0,0.0,0.0,0.0,0.0,0.0,0.0,0.0,4.7929,5.0426,4.9042,4.9074,5.1319,5.081,5.0152,4.9614,4.9972,4.9972,4.9464,5.1203,5.2396,5.3204,5.3803,5.4391,5.4803,5.4539,5.42,5.3948,5.4351,5.5022,5.585,5.5438,5.6223,5.7611,5.6162,5.6708,5.8189,5.762,5.8165,5.9205,5.8829,5.8091,5.748,5.7651,5.7431,5.7044,5.6394,5.5992,5.5644,5.5207,5.4498,5.3839,5.4184,5.421,5.4341,5.4863,5.5046,5.5229,5.57,5.5008,5.4511,5.4511,5.4106,5.3904,5.3747,5.3381,5.3318,5.4411,5.3683,5.3067,5.3733,5.3003,5.2238,5.182,5.1376,5.1095,5.0696,5.0954,5.0954,5.0696,5.0954,5.0954,5.0696,5.0696,5.0246,4.9509,4.9818,4.9509,4.8453,4.8812,4.8701,4.819,4.8367,4.8453,0.0,0.0,0.0,0.0,0.0,0.0,0.0,0.0,2.8767,0.0,0.0,0.0,0.0,0.0,0.0,0.0,0.0,0.0,0.0,0.0,0.0,0.0,0.0,0.0,0.0,0.0,0.0,0.0,4.6894,4.7317,5.0276,5.0095,4.9915,5.0095,5.0573,5.0573,5.0095,5.1206,5.2347,5.3398,5.3699,5.4291,5.4976,5.4773,5.4436,5.4126,5.4107,5.4497,5.5109,5.4894,5.5758,5.6863,5.6044,5.6652,5.8,5.7293,5.762,5.8438,5.8435,5.7784,5.6693,5.644,5.6269,5.6097,5.5649,5.5344,5.4934,5.4708,5.3892,5.3091,5.3188,5.3474,5.3889,5.4105,5.463,5.5261,5.5442,5.5121,5.4805,5.4511,5.4376,5.4183,5.3869,5.3468,5.3457,5.3959,5.3406,5.3105,5.3632,5.3117,5.2515,5.182,5.1656,5.1376,5.0696,5.0954,5.1071,5.0954,5.1095,5.1095,5.0696,5.0696,5.0412,4.9818,4.9795,4.9389,4.8691,4.8691,4.8575,4.8367,4.843,4.84,4.0836,0.0,0.0,0.0,0.0,0.0,0.0,0.0,0.0,0.0,0.0,0.0,0.0,0.0,0.0,2.91,0.0,0.0,0.0,0.0,0.0,0.0,0.0,0.0,0.0,0.0,0.0,4.5494,4.4352,4.5232,4.8762,4.9249,4.9584,5.0216,5.0693,5.0813,5.0608,5.1148,5.2171,5.3622,5.3706,5.4201,5.5108,5.4773,5.4436,5.42,5.4094,5.4264,5.4594,5.4517,5.5271,5.6485,5.5979,5.656,5.7571,5.7075,5.7293,5.7768,5.8006,5.7378,5.6252,5.5469,5.5274,5.5366,5.5136,5.4799,5.4457,5.4205,5.3335,5.2651,5.2664,5.3128,5.3541,5.3608,5.4445,5.5103,5.5153,5.5099,5.4965,5.4645,5.4645,5.4511,5.4241,5.3725,5.3468,5.357,5.3181,5.3055,5.3432,5.3155,5.2654,5.2099,5.182,5.1541,5.0837,5.1095,5.1376,5.1376,5.1211,5.1095,5.0696,5.0696,5.0554,5.0104,4.9961,4.9532,4.898,4.8812,4.8523,4.84,4.84,4.84,0.0,0.0,0.0,3.8684,0.0,0.0,0.0,0.0,3.2182,0.0,0.0,0.0,0.0,0.0,3.0328,2.9886,3.0254,0.0,0.0,0.0,0.0,0.0,0.0,0.0,0.0,0.0,0.0,4.2303,4.1179,4.2241,4.6478,4.7955,4.8862,4.9374,4.9942,5.0363,5.0608,5.0993,5.1982,5.3622,5.3961,5.4421,5.4803,5.4436,5.42,5.3948,5.4304,5.4672,5.4884,5.4594,5.5351,5.6647,5.5787,5.62,5.7306,5.702,5.7293,5.7712,5.7527,5.7042,5.6292,5.5346,5.5196,5.5284,5.5033,5.4727,5.4348,5.3959,5.327,5.2758,5.3188,5.3373,5.3504,5.4053,5.4628,5.5072,5.5099,5.5099,5.5099,5.5099,5.5099,5.4939,5.4511,5.3997,5.3478,5.3503,5.3204,5.2929,5.2955,5.2929,5.2792,5.2377,5.2099,5.1656,5.1211,5.1516,5.182,5.182,5.1376,5.1095,5.0696,5.0696,5.0554,5.0104,5.0412,5.0128,4.898,4.9389,4.9078,4.84,4.84,4.84,0.0,0.0,4.878,4.3105,0.0,0.0,0.0,0.0,0.0,0.0,0.0,0.0,0.0,3.2259,3.1463,3.0723,3.036,2.956,0.0,2.6567,0.0,0.0,0.0,0.0,0.0,0.0,0.0,4.0317,4.0539,4.213,4.5764,4.7098,4.8177,4.9038,5.0035,5.0516,5.0608,5.1148,5.2171,5.3622,5.3736,5.4132,5.4803,5.4436,5.42,5.3919,5.3867,5.3849,5.3954,5.4313,5.501,5.5874,5.5997,5.6578,5.722,5.6766,5.6735,5.6818,5.5996,5.5945,5.5955,5.5104,5.466,5.4515,5.4526,5.4229,5.3781,5.3349,5.3243,5.3183,5.2821,5.3188,5.3763,5.4053,5.4498,5.4892,5.502,5.5099,5.5099,5.5099,5.5099,5.5099,5.4939,5.4537,5.4132,5.3861,5.3316,5.3067,5.3589,5.3478,5.3204,5.2767,5.2629,5.2476,5.2122,5.2478,5.247,5.1845,5.1681,5.1401,5.0696,5.0696,5.0696,5.0554,5.0412,5.0104,4.9699,4.9389,4.898,4.8835,4.8546,4.84,4.99,5.0736,0.0,4.5841,4.363,0.0,3.6342,0.0,0.0,0.0,0.0,0.0,0.0,0.0,3.3214,3.2688,3.1325,2.9391,0.0,2.5591,2.5487,2.6376,0.0,0.0,0.0,0.0,3.6038,3.8296,3.8515,4.0331,0.0,0.0,4.7402,4.9125,4.9761,5.0215,5.0608,5.0788,5.1693,5.326,5.3405,5.3922,5.4803,5.4568,5.423,5.3919,5.371,5.3605,5.3559,5.3994,5.4662,5.5445,5.5881,5.6466,5.7078,5.6623,5.6279,5.5961,5.5379,5.5423,5.5583,5.4837,5.4341,5.4156,5.4148,5.3768,5.3308,5.3068,5.305,5.3031,5.2949,5.3343,5.3815,5.4341,5.4656,5.4892,5.502,5.5099,5.5099,5.5099,5.5099,5.5099,5.5099,5.4805,5.4376,5.4241,5.3725,5.3376,5.358,5.3759,5.3513,5.3012,5.2891,5.2754,5.2544,5.2907,5.2808,5.1845,5.182,5.1541,5.0696,5.0837,5.0837,5.0696,5.0388,5.0246,4.9961,4.9268,4.898,4.8835,4.8546,4.84]},{"header":{"parameterUnit":"m.s-1","parameterCategory":1,"la1":30.6,"la2":29.2853,"lo1":-89.7004,"lo2":-87.6739,"dy":0.0162,"dx":0.0183,"nx":112,"ny":82,"refTime":"2024-04-07T00:00:00:Z","depth":0,"parameterNumber":3,"parameterNumberName":"V-component_of_WINDS"},"data":[0.0,0.0,0.0,0.0,0.0,0.0,0.0,0.0,0.0,0.0,0.0,0.0,0.0,0.0,0.0,0.0,0.0,0.0,0.0,0.0,0.0,0.0,0.0,0.0,0.0,0.0,0.0,0.0,0.0,0.0,0.0,0.0,0.0,0.0,0.0,0.0,0.0,0.0,0.0,0.0,0.0,0.0,0.0,0.0,0.0,0.0,0.0,0.0,0.0,0.0,0.0,0.0,0.0,0.0,0.0,0.0,0.0,0.0,0.0,0.0,0.0,0.0,0.0,0.0,0.0,0.0,0.0,0.0,0.0,0.0,0.0,0.0,0.0,0.0,0.0,0.0,0.0,0.0,0.0,0.0,0.0,0.0,0.0,0.0,0.0,0.0,0.0,0.0,0.0,0.0,0.0,-3.8545,-4.3872,-4.7043,-4.646,-4.611,-4.3526,-3.7775,0.0,0.0,0.0,0.0,0.0,0.0,0.0,0.0,0.0,0.0,0.0,0.0,0.0,0.0,0.0,0.0,0.0,0.0,0.0,0.0,0.0,0.0,0.0,0.0,0.0,0.0,0.0,0.0,0.0,0.0,0.0,0.0,0.0,0.0,0.0,0.0,0.0,0.0,0.0,0.0,0.0,0.0,0.0,0.0,0.0,0.0,0.0,0.0,0.0,0.0,0.0,0.0,0.0,0.0,0.0,0.0,0.0,0.0,0.0,0.0,0.0,0.0,0.0,0.0,0.0,0.0,0.0,0.0,0.0,0.0,0.0,0.0,0.0,0.0,0.0,0.0,0.0,0.0,0.0,0.0,0.0,0.0,0.0,0.0,0.0,0.0,0.0,0.0,0.0,0.0,0.0,0.0,0.0,0.0,0.0,0.0,0.0,0.0,0.0,0.0,0.0,0.0,0.0,0.0,-3.681,-4.334,-4.5412,-4.6442,-4.6839,-4.5828,-4.3337,-3.9064,0.0,0.0,0.0,0.0,0.0,0.0,0.0,0.0,0.0,0.0,0.0,0.0,0.0,0.0,0.0,0.0,0.0,0.0,0.0,0.0,0.0,0.0,0.0,0.0,0.0,0.0,0.0,0.0,0.0,0.0,0.0,0.0,0.0,0.0,0.0,0.0,0.0,0.0,0.0,0.0,0.0,0.0,0.0,0.0,0.0,0.0,0.0,0.0,0.0,0.0,0.0,0.0,0.0,0.0,0.0,0.0,0.0,0.0,0.0,0.0,0.0,0.0,0.0,0.0,0.0,0.0,0.0,0.0,0.0,0.0,0.0,0.0,0.0,0.0,0.0,0.0,0.0,0.0,0.0,0.0,0.0,0.0,0.0,0.0,0.0,0.0,0.0,0.0,0.0,0.0,0.0,0.0,0.0,0.0,0.0,0.0,0.0,0.0,0.0,0.0,0.0,0.0,0.0,-3.5511,-3.9549,-4.576,-4.742,-4.7877,-4.7284,-4.6544,-4.3912,-3.886,-3.6229,0.0,0.0,0.0,0.0,0.0,0.0,0.0,0.0,0.0,0.0,0.0,0.0,0.0,0.0,0.0,0.0,0.0,0.0,0.0,0.0,0.0,0.0,0.0,0.0,0.0,0.0,0.0,0.0,0.0,0.0,0.0,0.0,0.0,0.0,0.0,0.0,0.0,0.0,0.0,0.0,0.0,0.0,0.0,0.0,0.0,0.0,0.0,0.0,0.0,0.0,0.0,0.0,0.0,0.0,0.0,0.0,0.0,0.0,0.0,0.0,0.0,0.0,0.0,0.0,0.0,0.0,0.0,0.0,0.0,0.0,0.0,0.0,0.0,0.0,0.0,0.0,0.0,0.0,0.0,0.0,0.0,0.0,0.0,0.0,0.0,0.0,0.0,0.0,0.0,0.0,0.0,0.0,0.0,0.0,0.0,0.0,0.0,0.0,0.0,0.0,0.0,0.0,-3.9571,-4.2427,-4.6756,-4.8483,-4.8802,-4.7501,-4.6794,-4.4164,-3.8642,-3.565,0.0,0.0,0.0,0.0,0.0,0.0,0.0,0.0,0.0,0.0,0.0,0.0,0.0,0.0,0.0,0.0,0.0,0.0,0.0,0.0,0.0,0.0,0.0,0.0,0.0,0.0,0.0,0.0,0.0,0.0,0.0,0.0,0.0,0.0,0.0,0.0,0.0,0.0,0.0,0.0,0.0,0.0,0.0,0.0,0.0,0.0,0.0,0.0,0.0,0.0,0.0,0.0,0.0,0.0,0.0,0.0,0.0,0.0,0.0,0.0,0.0,0.0,0.0,0.0,0.0,0.0,0.0,0.0,0.0,0.0,0.0,0.0,0.0,0.0,0.0,0.0,0.0,0.0,0.0,0.0,0.0,0.0,0.0,0.0,0.0,0.0,0.0,0.0,0.0,0.0,0.0,0.0,0.0,0.0,0.0,0.0,0.0,0.0,0.0,0.0,0.0,0.0,-4.05,-4.4209,-4.6172,-4.7489,-4.7928,-4.7146,-4.5728,-4.3226,-3.9223,-3.4465,0.0,0.0,0.0,0.0,0.0,0.0,0.0,0.0,0.0,0.0,0.0,0.0,0.0,0.0,0.0,0.0,0.0,0.0,0.0,0.0,0.0,0.0,0.0,0.0,0.0,0.0,0.0,0.0,0.0,0.0,0.0,0.0,0.0,0.0,0.0,0.0,0.0,0.0,0.0,0.0,0.0,0.0,0.0,0.0,0.0,0.0,0.0,0.0,0.0,0.0,0.0,0.0,0.0,0.0,0.0,0.0,0.0,0.0,0.0,0.0,0.0,0.0,0.0,0.0,0.0,0.0,0.0,0.0,0.0,0.0,0.0,0.0,0.0,0.0,0.0,0.0,0.0,0.0,0.0,0.0,0.0,0.0,0.0,0.0,0.0,0.0,0.0,0.0,0.0,0.0,0.0,0.0,0.0,0.0,0.0,0.0,0.0,0.0,0.0,0.0,0.0,0.0,-4.0065,-4.3821,0.0,-4.8312,-4.8812,-4.8059,-4.692,-4.4121,-3.9016,0.0,0.0,0.0,0.0,0.0,0.0,0.0,0.0,0.0,0.0,0.0,0.0,0.0,0.0,0.0,0.0,0.0,0.0,0.0,0.0,0.0,0.0,0.0,0.0,0.0,0.0,0.0,0.0,0.0,0.0,0.0,0.0,0.0,0.0,0.0,0.0,0.0,0.0,0.0,0.0,0.0,0.0,0.0,0.0,0.0,0.0,0.0,0.0,0.0,0.0,0.0,0.0,0.0,0.0,0.0,0.0,0.0,0.0,0.0,0.0,0.0,0.0,0.0,0.0,0.0,0.0,0.0,0.0,0.0,0.0,0.0,0.0,0.0,0.0,0.0,0.0,0.0,0.0,0.0,0.0,0.0,0.0,0.0,0.0,0.0,0.0,0.0,0.0,0.0,0.0,0.0,0.0,0.0,0.0,0.0,0.0,0.0,0.0,0.0,0.0,0.0,0.0,-3.5821,-4.0296,-4.4251,0.0,-4.8815,-4.9282,-4.8528,-4.7011,-4.3849,-3.8699,0.0,0.0,0.0,0.0,0.0,0.0,0.0,0.0,0.0,0.0,0.0,0.0,0.0,0.0,0.0,0.0,0.0,0.0,0.0,0.0,0.0,0.0,0.0,0.0,0.0,0.0,0.0,0.0,0.0,0.0,0.0,0.0,0.0,0.0,0.0,0.0,0.0,0.0,0.0,0.0,0.0,0.0,0.0,0.0,0.0,0.0,0.0,0.0,0.0,0.0,0.0,0.0,0.0,0.0,0.0,0.0,0.0,0.0,0.0,0.0,0.0,0.0,0.0,0.0,0.0,0.0,0.0,0.0,0.0,0.0,0.0,0.0,0.0,0.0,0.0,0.0,0.0,0.0,0.0,0.0,0.0,0.0,0.0,0.0,0.0,0.0,0.0,0.0,0.0,0.0,0.0,0.0,0.0,0.0,0.0,0.0,0.0,0.0,0.0,0.0,0.0,0.0,-3.5904,-4.163,-4.5922,-4.7339,-4.8734,-4.9104,-4.8175,-4.5388,-4.2056,0.0,0.0,0.0,0.0,0.0,0.0,0.0,0.0,0.0,0.0,0.0,0.0,0.0,0.0,0.0,0.0,0.0,0.0,0.0,0.0,0.0,0.0,0.0,0.0,0.0,0.0,0.0,0.0,0.0,0.0,0.0,0.0,0.0,0.0,0.0,0.0,0.0,0.0,0.0,0.0,0.0,0.0,0.0,0.0,0.0,0.0,0.0,0.0,0.0,0.0,0.0,0.0,0.0,0.0,0.0,0.0,0.0,0.0,0.0,0.0,0.0,0.0,0.0,0.0,0.0,0.0,0.0,0.0,0.0,0.0,0.0,0.0,0.0,0.0,0.0,0.0,0.0,0.0,0.0,0.0,0.0,0.0,0.0,0.0,0.0,0.0,0.0,0.0,0.0,0.0,0.0,0.0,0.0,0.0,0.0,0.0,0.0,0.0,0.0,0.0,0.0,0.0,0.0,-3.598,-4.1664,-4.5956,-4.7507,-4.9179,-4.9983,-4.9138,-4.7656,-4.43,-3.8512,0.0,0.0,0.0,0.0,0.0,0.0,0.0,0.0,0.0,0.0,0.0,0.0,0.0,0.0,0.0,0.0,0.0,0.0,0.0,0.0,0.0,0.0,0.0,0.0,0.0,0.0,0.0,0.0,0.0,0.0,0.0,0.0,0.0,0.0,0.0,0.0,0.0,0.0,0.0,0.0,0.0,0.0,0.0,0.0,0.0,0.0,0.0,0.0,0.0,0.0,0.0,0.0,0.0,0.0,0.0,0.0,0.0,0.0,0.0,0.0,0.0,0.0,0.0,0.0,0.0,0.0,0.0,0.0,0.0,0.0,0.0,0.0,0.0,0.0,0.0,0.0,0.0,0.0,0.0,0.0,0.0,0.0,0.0,0.0,0.0,0.0,0.0,0.0,0.0,0.0,0.0,0.0,0.0,0.0,0.0,0.0,0.0,0.0,0.0,0.0,0.0,0.0,-3.6302,-4.1788,-4.6006,-4.7695,-4.9197,-4.9862,-4.9324,-4.8277,-4.5184,-3.935,0.0,0.0,0.0,0.0,0.0,0.0,0.0,0.0,0.0,0.0,0.0,0.0,0.0,0.0,0.0,0.0,0.0,0.0,0.0,0.0,0.0,0.0,0.0,0.0,0.0,0.0,0.0,0.0,0.0,0.0,0.0,0.0,0.0,0.0,0.0,0.0,0.0,0.0,0.0,0.0,0.0,0.0,0.0,0.0,0.0,0.0,0.0,0.0,0.0,0.0,0.0,0.0,0.0,0.0,0.0,0.0,0.0,0.0,0.0,0.0,0.0,0.0,0.0,0.0,0.0,0.0,0.0,0.0,0.0,0.0,0.0,0.0,0.0,0.0,0.0,0.0,0.0,0.0,0.0,0.0,0.0,0.0,0.0,0.0,0.0,0.0,0.0,0.0,0.0,0.0,0.0,0.0,0.0,0.0,0.0,0.0,0.0,0.0,0.0,0.0,0.0,0.0,-3.6874,-4.2018,-4.6172,-4.7962,-4.8855,-4.9236,-4.908,-4.7886,-4.523,-4.0561,0.0,0.0,0.0,0.0,0.0,0.0,0.0,0.0,0.0,0.0,0.0,0.0,0.0,0.0,0.0,0.0,0.0,0.0,0.0,0.0,0.0,0.0,0.0,0.0,0.0,0.0,0.0,0.0,0.0,0.0,0.0,0.0,0.0,0.0,0.0,0.0,0.0,0.0,0.0,0.0,0.0,0.0,0.0,0.0,0.0,0.0,0.0,0.0,0.0,0.0,0.0,0.0,0.0,0.0,0.0,0.0,0.0,0.0,0.0,0.0,-2.6046,0.0,0.0,0.0,0.0,0.0,0.0,0.0,0.0,0.0,0.0,0.0,0.0,0.0,0.0,0.0,0.0,0.0,0.0,0.0,0.0,0.0,0.0,0.0,0.0,0.0,0.0,0.0,0.0,0.0,0.0,0.0,0.0,0.0,0.0,0.0,0.0,0.0,0.0,0.0,0.0,0.0,-3.7603,-4.2655,-4.661,-4.8461,-4.9573,-4.9971,-4.9419,-4.8897,-4.6438,-4.1323,0.0,0.0,0.0,0.0,0.0,0.0,0.0,0.0,0.0,0.0,0.0,0.0,0.0,0.0,0.0,0.0,0.0,0.0,0.0,0.0,0.0,0.0,0.0,0.0,0.0,0.0,0.0,0.0,0.0,0.0,0.0,0.0,0.0,0.0,0.0,0.0,0.0,0.0,0.0,0.0,0.0,0.0,0.0,0.0,0.0,0.0,0.0,0.0,0.0,0.0,0.0,0.0,0.0,0.0,0.0,0.0,0.0,0.0,0.0,0.0,0.0,-2.7625,0.0,0.0,0.0,0.0,0.0,0.0,0.0,0.0,0.0,0.0,0.0,0.0,0.0,0.0,0.0,0.0,0.0,0.0,0.0,0.0,0.0,0.0,0.0,0.0,0.0,0.0,0.0,0.0,0.0,0.0,0.0,0.0,0.0,0.0,0.0,0.0,0.0,0.0,0.0,0.0,-3.8193,-4.2977,-4.6726,-4.8685,-4.9365,-4.961,-4.9297,-4.9141,-4.7225,-4.3098,-3.9952,0.0,0.0,0.0,0.0,0.0,0.0,0.0,0.0,0.0,0.0,0.0,0.0,0.0,0.0,0.0,0.0,0.0,0.0,0.0,0.0,0.0,0.0,0.0,0.0,0.0,0.0,0.0,0.0,0.0,0.0,0.0,0.0,0.0,0.0,0.0,0.0,0.0,0.0,0.0,0.0,0.0,0.0,0.0,0.0,0.0,0.0,0.0,0.0,0.0,0.0,0.0,0.0,0.0,-3.4385,-3.5473,-3.6023,-3.6014,-3.6411,-3.7066,-3.4636,-3.3111,-3.2209,0.0,0.0,0.0,0.0,0.0,0.0,0.0,0.0,0.0,0.0,0.0,0.0,0.0,0.0,0.0,0.0,0.0,0.0,0.0,0.0,0.0,0.0,0.0,0.0,0.0,-3.6102,-3.6278,0.0,0.0,0.0,0.0,0.0,0.0,0.0,0.0,0.0,0.0,0.0,0.0,-3.9174,-4.3376,-4.6859,-4.8904,-4.8984,-4.9018,-4.9046,-4.8984,-4.7834,-4.5128,-4.1606,-3.8235,0.0,0.0,0.0,0.0,0.0,0.0,0.0,0.0,0.0,0.0,0.0,0.0,0.0,0.0,0.0,0.0,0.0,0.0,0.0,0.0,0.0,0.0,0.0,0.0,0.0,0.0,0.0,0.0,0.0,0.0,0.0,0.0,-2.3771,-2.5314,0.0,0.0,0.0,0.0,0.0,0.0,0.0,0.0,0.0,0.0,0.0,0.0,0.0,-3.0347,-3.2646,-3.5326,-3.7014,-3.7759,-4.0154,-4.1234,-4.1218,-4.165,-4.2132,-4.256,-4.2786,0.0,-3.4455,-3.4,0.0,0.0,0.0,0.0,0.0,0.0,0.0,0.0,0.0,0.0,0.0,0.0,0.0,0.0,0.0,0.0,0.0,0.0,0.0,0.0,0.0,0.0,-3.6582,-3.7521,-3.8049,-3.8539,0.0,-3.6194,-3.3371,-3.2104,-3.1921,0.0,0.0,0.0,0.0,0.0,0.0,0.0,-4.1373,-4.4744,-4.7378,-4.924,-4.9168,-4.908,-4.9168,-4.9046,-4.8274,-4.6616,-4.4103,-4.1437,-3.8531,-3.4555,0.0,0.0,0.0,0.0,0.0,0.0,0.0,0.0,0.0,0.0,0.0,0.0,0.0,0.0,0.0,0.0,0.0,0.0,0.0,0.0,0.0,0.0,0.0,0.0,0.0,0.0,0.0,0.0,0.0,-2.3523,-2.5592,-2.6566,-2.6503,-2.529,0.0,0.0,0.0,0.0,0.0,0.0,0.0,0.0,0.0,-3.348,-3.4486,-3.6027,-3.8159,-4.0058,-4.128,-4.1896,-4.3457,-4.4187,-4.4182,-4.4929,-4.5392,-4.555,-4.5666,-4.4217,-4.1438,-3.8269,-3.5095,-3.2179,0.0,0.0,0.0,0.0,-3.0667,-3.1652,-3.3758,-3.491,0.0,0.0,0.0,0.0,0.0,0.0,0.0,0.0,0.0,0.0,0.0,0.0,0.0,-4.0695,-4.1333,-4.1498,-4.1629,-4.035,-3.8444,0.0,-3.5165,-3.3988,-3.1342,0.0,0.0,0.0,0.0,0.0,-4.1914,-4.4868,-4.7267,-4.9033,-4.908,-4.8984,-4.9046,-4.9046,-4.8545,-4.7496,-4.5621,-4.3575,-4.1504,-3.7648,-3.4365,0.0,0.0,0.0,0.0,0.0,0.0,0.0,0.0,0.0,0.0,0.0,0.0,0.0,0.0,0.0,0.0,0.0,0.0,0.0,0.0,0.0,0.0,0.0,0.0,0.0,0.0,0.0,0.0,-2.6249,-2.7922,-2.817,-2.9529,-2.8659,0.0,0.0,0.0,0.0,0.0,0.0,-3.1805,-3.3227,-3.54,-3.8574,-3.9576,-4.0915,-4.2573,-4.3747,-4.4479,-4.4825,-4.5763,-4.635,-4.6615,-4.7266,-4.7737,-4.792,-4.7722,-4.7684,-4.7302,-4.2187,-3.8842,-3.6793,-3.4364,-3.2962,-3.2482,-3.4091,-3.488,-3.5582,-3.8576,-3.9879,-4.0011,-3.8947,0.0,-3.5752,-3.3169,0.0,0.0,0.0,0.0,-3.5367,-3.8085,-3.9303,-4.0435,-4.2793,-4.3466,-4.3548,-4.3313,-4.3224,-4.2398,0.0,-3.8511,-3.6914,-3.3743,0.0,0.0,0.0,0.0,-4.016,-4.2644,-4.5202,-4.7349,-4.8787,-4.9018,-4.9018,-4.9018,-4.9018,-4.8781,-4.824,-4.6499,-4.5081,-4.3968,-4.0169,-3.7163,-3.5069,0.0,0.0,0.0,0.0,0.0,0.0,0.0,0.0,0.0,0.0,0.0,0.0,0.0,0.0,0.0,0.0,0.0,0.0,0.0,0.0,0.0,0.0,0.0,0.0,0.0,0.0,0.0,0.0,0.0,-3.1146,-3.3972,0.0,0.0,0.0,0.0,-3.1155,-3.2492,-3.4102,-3.6076,-3.7654,-3.9829,-4.253,-4.3119,-4.3988,-4.5095,-4.598,-4.6341,-4.6232,-4.7061,-4.7951,-4.8814,-4.9103,-4.9641,-5.0543,-5.0543,-5.0174,-4.9259,-4.597,-4.365,-4.2123,-4.0487,-3.9199,-3.8409,-3.9373,-4.0292,-4.1287,-4.1893,-4.3174,-4.4335,-4.2859,-4.0401,-3.8157,-3.8104,-3.669,0.0,0.0,-3.7867,-3.8951,-4.0917,-4.1682,-4.2178,-4.2927,-4.3255,-4.3535,-4.4054,-4.3677,-4.2815,0.0,-4.1564,-4.1049,-3.8985,0.0,-3.8957,-3.8911,-4.038,-4.2355,-4.459,-4.6435,-4.7894,-4.8702,-4.8956,-4.9018,-4.9018,-4.9018,-4.8984,-4.8951,-4.6921,-4.5669,-4.5602,-4.1822,-3.8992,-3.7349,-3.3762,0.0,0.0,0.0,0.0,0.0,0.0,0.0,0.0,0.0,0.0,0.0,0.0,0.0,0.0,0.0,0.0,0.0,0.0,0.0,0.0,0.0,0.0,0.0,0.0,0.0,0.0,0.0,0.0,-3.4541,-3.6965,0.0,-3.349,-3.4123,-3.5163,-3.6166,-3.7805,-3.9653,-4.1798,-4.264,-4.3884,-4.5843,-4.6122,-4.6659,-4.7649,-4.814,-4.8295,-4.8237,-4.9132,-4.9432,-4.9458,-5.0059,-5.0357,-5.0262,-5.0056,-4.9934,-4.9774,-4.8031,-4.6477,-4.5092,-4.3777,-4.2879,-4.2362,-4.3031,-4.3503,-4.3854,-4.4633,-4.5183,-4.5367,-4.3945,-4.234,-4.0974,-4.1434,-4.076,-4.0025,-4.1155,-4.1965,-4.2674,-4.334,-4.4056,-4.4775,-4.5503,-4.5915,-4.6213,-4.6653,-4.671,-4.6442,-4.5721,-4.443,-4.2883,-4.1096,-4.1486,-4.1773,-4.0812,-4.1905,-4.3639,-4.5584,-4.7178,-4.8509,-4.9409,-5.0042,-5.0439,-5.0439,-4.9965,-4.9695,-4.9695,-4.7631,-4.6413,-4.6413,-4.3179,-4.0931,-3.9919,-3.7124,-3.3805,0.0,0.0,0.0,0.0,0.0,0.0,0.0,0.0,0.0,0.0,0.0,0.0,0.0,0.0,0.0,0.0,0.0,0.0,0.0,0.0,0.0,0.0,0.0,0.0,0.0,0.0,-3.6906,-3.7042,-4.0008,-4.0734,-3.728,-3.8525,-3.992,-4.0684,-4.2119,-4.3599,-4.5001,-4.5568,-4.6417,-4.7598,-4.7794,-4.82,-4.9068,-4.9224,-4.9254,-4.9284,-4.9975,-5.0155,-4.9944,-5.0757,-5.0938,-5.0756,-5.0636,-5.0725,-5.0842,-4.9664,-4.8682,-4.7702,-4.6164,-4.5384,-4.513,-4.5555,-4.5818,-4.599,-4.6904,-4.6843,-4.6162,-4.544,-4.4618,-4.3943,-4.4297,-4.4143,-4.3867,-4.4479,-4.491,-4.5249,-4.5326,-4.5743,-4.6361,-4.7138,-4.7387,-4.754,-4.8147,-4.8297,-4.8317,-4.8271,-4.661,-4.482,-4.3644,-4.3887,-4.3866,-4.2675,-4.4052,-4.5474,-4.6424,-4.8119,-4.9421,-4.9989,-5.0688,-5.1023,-5.1023,-5.0113,-4.9603,-4.9603,-4.7275,-4.5925,-4.5949,-4.3023,-4.1201,-4.0676,-3.8152,-3.5103,-3.1566,0.0,0.0,0.0,0.0,0.0,0.0,0.0,0.0,0.0,0.0,0.0,0.0,0.0,0.0,0.0,0.0,0.0,0.0,0.0,0.0,0.0,0.0,0.0,-3.3319,-3.6892,-3.9188,-3.8622,-4.3239,-4.507,-4.1448,-4.3417,-4.4922,-4.4664,-4.5311,-4.5602,-4.5367,-4.6437,-4.7304,-4.7684,-4.8173,-4.8656,-4.9404,-4.9314,-4.9314,-4.9314,-4.9584,-5.0005,-5.0608,-5.106,-5.1664,-5.2276,-5.2487,-5.2577,-5.2455,-5.0927,-5.0289,-5.0018,-4.7897,-4.6887,-4.6689,-4.7219,-4.7518,-4.7773,-4.8697,-4.8097,-4.6995,-4.7484,-4.7318,-4.6872,-4.6713,-4.6634,-4.6634,-4.6634,-4.6634,-4.6744,-4.6872,-4.6793,-4.6824,-4.748,-4.7449,-4.7526,-4.8392,-4.836,-4.836,-4.8949,-4.8064,-4.7169,-4.675,-4.6059,-4.5428,-4.4892,-4.6866,0.0,-4.7106,-4.9226,-5.066,-5.0426,-5.0593,-5.0727,-5.0727,-4.9354,-4.8547,-4.8639,-4.5798,-4.4188,-4.4293,-4.1392,-3.9796,-3.9711,-3.675,-3.4497,-3.294,0.0,0.0,0.0,0.0,0.0,0.0,0.0,0.0,0.0,0.0,0.0,0.0,0.0,0.0,0.0,0.0,0.0,0.0,0.0,0.0,0.0,0.0,-3.6435,-3.6742,-3.9875,-4.256,-4.4055,-4.5734,-4.6377,-4.5187,-4.5696,-4.6265,-4.6517,-4.7323,-4.7773,-4.7722,-4.8729,-4.9469,-4.9565,-4.9793,-5.0276,-5.0938,-5.0968,-5.0876,-5.069,-5.0938,-5.1028,-5.1053,-5.1116,-5.115,-5.1031,-5.097,-5.0698,-5.0395,-4.9853,-4.9613,-4.9523,-4.8728,-4.842,-4.848,-4.9194,-4.9358,-4.9066,-4.8841,-4.8471,-4.807,-4.7711,-4.7465,-4.7392,-4.7342,-4.7342,-4.7342,-4.7342,-4.7681,-4.7958,-4.7546,-4.7681,-4.8132,-4.8729,-4.8809,-4.8937,-4.9674,-4.9751,-4.9751,-5.0057,-4.9544,-4.8925,-4.8426,-4.8092,-4.7934,-4.7991,-4.8529,0.0,-4.9226,-5.0593,-5.1363,-5.0893,-5.1362,-5.1497,-5.0959,-4.9888,-4.8882,-4.7934,-4.6118,-4.4865,-4.453,-4.2618,-4.123,-4.0481,-3.7453,-3.5343,0.0,0.0,0.0,0.0,0.0,0.0,0.0,0.0,0.0,0.0,0.0,0.0,0.0,0.0,0.0,0.0,0.0,0.0,0.0,0.0,0.0,0.0,-3.7186,-4.0622,-4.1641,-4.3541,-4.5497,-4.7195,-4.787,-4.814,-4.8059,-4.8142,-4.8285,-4.8714,-4.8998,-4.9212,-4.9297,-5.0166,-5.0571,-5.0571,-5.085,-5.118,-5.1572,-5.1479,-5.1416,-5.1416,-5.1479,-5.1602,-5.1509,-5.1572,-5.1545,0.0,-5.1304,-5.1061,-5.0877,-5.0305,-5.0125,0.0,0.0,0.0,0.0,0.0,-4.9647,-4.962,-4.9105,-4.8881,-4.8656,-4.8173,-4.8132,-4.8132,-4.7937,-4.7855,-4.7855,-4.7855,-4.8162,-4.846,-4.8224,-4.8409,-4.8687,-4.9178,-4.921,-4.9291,-4.9852,-5.001,-5.0089,-5.0402,-5.0538,0.0,-4.9918,-4.9453,-4.9148,-4.9071,-4.9915,-5.0587,-5.0687,-5.1791,-5.2466,-5.2201,-5.2268,-5.2168,-5.1732,-5.0326,0.0,0.0,0.0,-4.4112,-4.2597,-4.1903,0.0,0.0,0.0,-3.7867,-3.7768,0.0,0.0,0.0,-3.5892,-3.5876,0.0,0.0,0.0,0.0,0.0,0.0,0.0,0.0,0.0,0.0,0.0,0.0,0.0,0.0,0.0,0.0,-4.0836,-4.4507,-4.6749,-4.7434,-4.7934,-4.8686,-4.9439,-4.9965,-5.0027,-5.0211,-5.0406,-5.0611,-5.0205,-5.0117,-5.0232,0.0,0.0,0.0,0.0,-5.1632,-5.1693,-5.1353,-5.1353,-5.1693,-5.1632,-5.1695,-5.191,-5.2124,-5.2215,-5.2215,-5.2427,-5.2518,-5.2487,-5.1664,-5.1151,-5.094,-4.9824,-4.9164,-4.8685,-4.8802,-4.9296,-4.9812,-4.9463,0.0,0.0,-4.882,-4.8841,-4.8831,-4.8477,-4.8363,-4.8301,-4.8301,-4.8301,-4.8385,-4.8831,-4.88,-4.8687,-4.9178,-4.9128,-4.9159,-4.9533,-4.9613,-4.9773,-5.0231,-5.0976,-5.1499,-5.1141,-5.044,-4.9801,-4.9316,-5.1214,-5.2416,-5.1781,-5.2952,-5.3861,-5.3795,0.0,0.0,-5.2594,-5.0726,-4.9224,-4.845,-4.5584,-4.2779,-4.0146,-4.0588,-4.0688,-4.018,-4.0654,-4.1211,-4.191,-4.2493,-4.2833,-4.2899,-3.8858,-3.8692,0.0,0.0,0.0,0.0,0.0,0.0,0.0,0.0,0.0,0.0,0.0,0.0,0.0,0.0,0.0,-3.9781,-4.3514,-4.646,-4.7856,-4.9041,-4.9677,-4.9781,-4.9581,-4.9696,-5.0217,-5.0314,-5.0114,-4.988,-5.0543,-5.0692,-4.9821,-5.0849,0.0,-5.0698,-5.1056,-5.1563,-5.2102,-5.1656,-5.1656,-5.2102,0.0,0.0,-5.1323,-5.1416,-5.1479,-5.1757,-5.1602,-5.1602,-5.1757,-5.1359,-5.1206,-5.1146,-5.0577,-5.0759,-5.1243,-5.0728,-5.0753,-5.0839,-5.0026,-4.9591,-4.9273,-4.9565,-4.9017,-4.8255,-4.8718,-4.8505,0.0,-4.8301,-4.8301,-4.8385,-4.8635,-4.8635,-4.8687,-4.9178,-4.9128,-4.9159,-4.9693,-4.9693,-4.985,-5.0658,-5.1248,-5.1741,-5.23,-5.2248,-5.2081,-5.1908,-5.2679,-5.3367,-5.3831,-5.4422,-5.4644,-5.4216,-5.3478,-5.2875,-5.227,-5.1128,-4.9655,-4.7747,-4.5343,-4.3561,-4.239,-4.2889,-4.3198,-4.3089,-4.3049,-4.3065,-4.3197,-4.3926,-4.4887,-4.6013,-4.3959,-4.3337,0.0,0.0,0.0,0.0,0.0,0.0,0.0,0.0,0.0,0.0,0.0,-3.1789,-3.3824,0.0,-3.9945,-4.2824,-4.5677,-4.7997,-4.8973,-4.975,-5.0071,-5.0018,-5.0266,-5.0616,-5.0953,-5.1145,-5.106,-5.0939,-5.1152,-5.1122,-5.0819,-5.1333,-5.1544,-5.1303,-5.1329,-5.1717,-5.2407,-5.2077,-5.2077,-5.2407,-5.2407,-5.2047,-5.1416,-5.1747,-5.181,-5.1572,-5.1509,-5.1602,-5.1787,-5.1509,-5.1323,-5.1169,-5.1118,-5.1393,-5.1697,-5.0879,-5.088,-5.1147,-5.0486,-4.9998,-4.9861,-5.0022,-4.957,-4.9027,-4.9391,-4.9152,-4.8819,-4.8657,-4.8651,-4.8645,-4.8613,-4.8604,-4.8687,-4.9047,-4.8965,-4.8883,-4.9372,-4.9703,-5.0047,-5.0555,-5.1755,-5.2669,-5.2701,-5.3304,-5.364,-5.3313,-5.3997,-5.4659,-5.5173,-5.5355,-5.5442,-5.5362,-5.4424,-5.3582,-5.3041,-5.1598,-4.9858,-4.7922,-4.6971,-4.5924,-4.4783,-4.5704,-4.6018,-4.5651,-4.553,-4.5374,-4.5251,-4.5917,-4.6581,-4.7308,-4.7308,-4.7308,0.0,0.0,0.0,0.0,0.0,0.0,0.0,0.0,-3.0347,-3.224,-3.4253,-3.6236,-3.8236,-4.0737,-4.3142,-4.5437,-4.7464,-4.9077,-4.9916,-5.0235,-5.0306,-5.0221,-5.1123,-5.1744,-5.1778,-5.1941,-5.2063,-5.2124,-5.1572,-5.1416,-5.1787,-5.1602,-5.1663,-5.1999,-5.1783,-5.2081,-5.2893,-5.2552,-5.2552,-5.2923,-5.3002,-5.2552,-5.169,-5.2111,-5.2051,-5.169,-5.181,-5.1904,-5.1906,-5.169,-5.1413,-5.1105,-5.1386,-5.1479,-5.1512,-5.0723,-5.088,-5.1422,-5.0971,-5.0607,-5.0445,-5.0567,-5.0239,-4.991,-5.0213,-5.0003,-4.9581,-4.933,-4.9174,-4.9047,-4.889,-4.882,-4.8934,-4.9285,-4.9202,-4.9119,-4.9481,-5.005,-5.0539,-5.0778,-5.2435,-5.3565,-5.3181,-5.4131,-5.4737,-5.4219,-5.4919,-5.5686,-5.6046,-5.6121,-5.627,-5.664,-5.5535,-5.4555,-5.4079,-5.2168,-5.0358,-4.8792,-4.8849,-4.8303,-4.6925,-4.8044,-4.8416,-4.7784,-4.7855,-4.773,-4.7537,-4.7969,-4.8198,-4.8363,-4.9714,-5.0344,-2.6894,-2.5749,-2.5912,-2.8219,-2.8834,-3.053,0.0,0.0,-3.7392,-3.9859,-4.0942,-4.1851,-4.3229,-4.4013,-4.5136,-4.7395,-4.8702,-4.9721,-5.0195,-5.0925,-5.1318,-5.1172,-5.1502,-5.184,-5.2244,-5.2245,-5.2124,-5.1665,-5.1572,-5.1509,-5.1323,-5.1229,-5.1498,-5.2162,-5.2192,-5.2695,-5.3982,-5.3384,-5.3384,-5.3982,-5.2845,-5.2247,-5.2067,-5.1558,-5.1618,-5.2127,-5.2792,-5.2539,-5.181,-5.181,-5.1453,-5.0822,-5.0917,-5.1199,-5.1572,-5.1482,-5.1666,-5.188,-5.1574,-5.1243,-5.097,-5.1364,-5.0668,-4.9824,-5.1091,-5.0729,-4.9938,-5.014,-4.9769,-4.928,-4.9505,-4.9558,-4.9797,-5.0584,-5.0623,-5.0623,-5.1246,-5.1278,-5.1496,-5.2576,-5.3299,-5.3885,-5.4493,-5.5198,-5.5488,-5.4972,-5.5172,-5.5666,-5.6711,-5.6854,-5.7005,-5.7453,-5.6746,-5.5737,-5.4424,-5.2842,-5.153,-5.0459,-4.9888,-4.915,-4.8346,-4.9083,-4.9356,-4.9192,-4.9726,-4.9992,-4.9856,-4.9922,-5.0149,-5.0669,-5.1427,-5.146,-3.3447,-3.2529,-3.2144,0.0,-3.4991,-3.6572,-3.949,-4.0268,-4.091,-4.2483,-4.3622,-4.4589,-4.524,-4.6112,-4.7236,0.0,-4.963,-5.0372,-5.1381,-5.1574,-5.1594,-5.1297,-5.1386,-5.1662,-5.2094,-5.2155,-5.1972,-5.1572,-5.1509,-5.1323,-5.1229,-5.1588,-5.1917,-5.2187,-5.2576,-5.3234,-5.4192,-5.3922,-5.3922,-5.4221,-5.3844,-5.3337,-5.2591,-5.2681,-5.2681,-5.2591,-5.2957,-5.2927,-5.2367,-5.2174,-5.2055,-5.221,-5.1947,-5.2227,-5.2657,-5.1874,-5.1787,-5.2002,-5.188,-5.1606,-5.1424,-5.1697,-5.1302,-5.0879,-5.1636,-5.1486,-5.1151,-5.0903,-5.0686,-5.0468,-5.0273,-5.0574,-5.103,-5.1481,-5.1853,-5.2126,-5.2067,-5.2542,-5.2932,-5.3092,-5.3911,-5.4594,-5.4915,-5.5442,-5.5749,-5.5693,-5.5423,-5.5699,-5.6811,-5.6696,-5.6653,-5.6948,-5.6606,-5.5688,-5.4109,-5.3369,-5.2499,-5.1261,-5.1497,-5.1362,-5.0623,-5.1329,-5.1564,-5.1463,-5.1193,-5.099,-5.0817,-5.0711,-5.0933,-5.1408,-5.2097,-5.2828,-3.6457,-3.6502,0.0,-3.7584,-3.9692,-4.1566,-4.1568,-4.2598,-4.3789,-4.4496,-4.537,-4.6072,-4.6198,-4.7225,-4.8409,-4.9536,-5.0241,-5.1121,-5.2223,-5.1976,-5.1533,-5.0964,-5.0934,-5.1058,-5.1213,-5.1516,-5.1606,-5.1479,-5.1323,-5.1229,-5.1229,-5.1858,-5.2276,-5.236,-5.3017,-5.3704,-5.4391,-5.4391,-5.4391,-5.4491,-5.4589,-5.4131,-5.308,-5.3555,-5.3525,-5.308,-5.3555,-5.3525,-5.302,-5.274,-5.2808,-5.3047,-5.2792,-5.3074,-5.3501,-5.2507,-5.2211,-5.2306,-5.2063,-5.188,-5.1849,-5.2063,-5.1972,-5.188,-5.2276,-5.2307,-5.2154,-5.1815,-5.1539,-5.1383,-5.1097,-5.1344,-5.1805,-5.2352,-5.2905,-5.3361,-5.3227,-5.3978,-5.4514,-5.4094,-5.4845,-5.5486,-5.5403,-5.5653,-5.5927,-5.6086,-5.562,-5.5699,-5.6811,-5.6746,-5.6593,-5.6667,-5.6392,-5.5783,-5.4389,-5.4028,-5.3398,-5.226,-5.2874,-5.3011,-5.2472,-5.2909,-5.3041,-5.2764,-5.2091,-5.1615,-5.1508,-5.1366,-5.1514,-5.1983,-5.2777,-5.3716,-3.2883,-3.4617,-3.6922,-3.8221,-4.1305,-4.4215,-4.516,-4.6085,-4.6845,-4.7074,-4.6828,-4.655,-4.6582,-4.7298,-4.8206,-4.9056,-5.0578,-5.1853,-5.2317,-5.1976,-5.126,-5.0147,-5.0029,-4.9851,0.0,-5.0155,-5.0817,-5.1169,-5.1199,-5.1229,-5.1229,-5.1858,-5.239,-5.2753,-5.3407,-5.406,-5.4773,-5.4773,-5.4875,-5.5149,-5.4551,-5.4122,-5.3763,-5.3763,-5.3763,-5.3793,-5.4749,-5.466,-5.3733,-5.3733,-5.3347,-5.2812,-5.2783,-5.3077,-5.3622,-5.3561,-5.3395,-5.3193,-5.2306,-5.2155,-5.2306,-5.2306,-5.2306,-5.2429,-5.307,-5.3039,-5.2698,-5.2698,-5.2206,-5.1713,-5.1682,-5.1682,-5.2021,-5.3345,-5.3866,-5.4324,-5.5249,-5.5767,-5.6183,-5.6328,-5.6392,-5.6395,-5.6228,-5.6141,-5.6086,-5.6086,-5.562,-5.5699,-5.6811,-5.7331,-5.7406,-5.703,-5.6694,-5.6331,-5.5854,-5.4917,-5.4219,-5.3941,-5.3685,-5.3416,-5.3145,-5.3179,-5.2903,-5.2307,-5.2274,-5.2236,-5.2086,-5.2053,-5.2342,-5.2777,-5.3563,-5.4085,-3.8035,-4.0204,-4.2368,-4.4102,-4.5824,-4.7049,-4.7234,-4.7373,-4.7408,-4.7202,-4.6115,-4.5419,-4.6103,-4.6389,-4.7056,-4.859,-5.0254,-5.1599,-5.2082,-5.214,-5.1573,-5.0178,-4.988,0.0,0.0,0.0,0.0,-5.1139,-5.081,-5.096,-5.1828,-5.2293,-5.2851,-5.3436,-5.3473,-5.3786,-5.4436,-5.4022,-5.4124,-5.4611,-5.4404,-5.4315,-5.4446,-5.4446,-5.4547,-5.4749,-5.5089,-5.5059,-5.4719,-5.4071,-5.4012,-5.4361,-5.3714,-5.4032,-5.4858,-5.4239,-5.3929,-5.3645,-5.3069,-5.2732,-5.2486,-5.2215,-5.2063,-5.2094,-5.2337,-5.2429,-5.2487,-5.2608,-5.2883,-5.3037,-5.3037,-5.3683,-5.4453,-5.4914,-5.5752,-5.6311,-5.6216,-5.6794,-5.726,-5.6869,-5.7098,-5.7358,-5.7358,-5.7412,-5.7412,-5.7113,-5.6579,-5.6249,-5.6245,-5.6838,-5.7139,-5.6987,-5.6938,-5.6496,-5.5729,-5.5414,-5.4989,-5.4562,-5.4075,-5.4015,-5.4448,-5.3509,-5.2998,-5.3036,-5.3036,-5.2891,-5.2557,-5.2851,-5.314,-5.3563,-5.3749,-5.424,-4.1852,-4.4041,-4.5906,-4.7983,-4.8942,-4.922,-4.853,-4.8233,-4.7801,-4.6838,-4.5236,-4.426,-4.4846,-4.4566,-4.4953,-4.7132,-4.8778,-5.0185,-5.1444,-5.1379,-5.0903,-5.0117,-4.9579,-4.9253,0.0,0.0,0.0,-5.1109,-5.084,-5.105,-5.2127,-5.2316,-5.2753,-5.3407,-5.3136,-5.3331,-5.3979,-5.3596,-5.3596,-5.3979,-5.4083,-5.4112,-5.4141,-5.445,-5.4773,-5.4845,-5.5078,-5.5179,-5.5149,-5.4529,-5.469,-5.5149,-5.4499,-5.479,-5.5451,-5.49,-5.4677,-5.4425,-5.3368,-5.2973,-5.2819,-5.2488,-5.2428,-5.2612,-5.252,-5.2429,-5.2549,-5.2915,-5.3375,-5.3775,-5.4022,-5.473,-5.5407,-5.5622,-5.6402,-5.7059,-5.6903,-5.7579,-5.8172,-5.7724,-5.8044,-5.8274,-5.8274,-5.8296,-5.8231,-5.7747,-5.7376,-5.689,-5.6236,-5.6611,-5.6987,-5.6987,-5.7063,-5.6863,-5.6279,-5.5979,-5.5796,-5.5442,-5.4883,-5.4787,-5.5113,-5.4209,-5.3561,-5.3214,-5.3445,-5.3296,-5.266,-5.2959,-5.3485,-5.4162,-5.3901,-5.4293,-4.4102,-4.6078,-4.7597,-4.9729,-5.0615,-5.0558,-4.9126,-4.8726,-4.8062,-4.5982,-4.4131,-4.2876,0.0,0.0,-4.2202,-4.483,-4.6358,-4.8084,-5.0607,-5.0058,-4.9591,0.0,0.0,0.0,0.0,0.0,0.0,-5.1169,0.0,-5.1498,-5.2217,-5.1929,-5.2159,-5.2872,-5.2546,-5.2741,-5.3449,-5.3449,-5.3449,-5.3449,-5.373,-5.3597,-5.307,-5.3936,-5.4304,-5.4406,-5.4976,-5.5209,-5.5179,-5.5209,-5.5209,-5.5179,-5.5179,-5.5209,-5.5179,-5.5481,-5.5551,-5.5249,-5.3381,-5.297,-5.3314,-5.3128,-5.3314,-5.3684,-5.3407,-5.304,-5.2944,-5.3591,-5.3806,-5.396,-5.4607,-5.4822,-5.4976,-5.5592,-5.6123,-5.6715,-5.7402,-5.8274,-5.9004,-5.9036,-5.9024,-5.9056,-5.9023,-5.8855,-5.8573,-5.8241,-5.7997,-5.7508,-5.6779,-5.6834,-5.6987,-5.6987,-5.7139,-5.7289,-5.7289,-5.6801,-5.6578,-5.6578,-5.6048,-5.5572,-5.5214,-5.5147,-5.4416,-5.3006,-5.3596,-5.3487,-5.2498,-5.2541,-5.3225,-5.4561,-5.3909,-5.4254,-4.7397,-4.948,-5.0888,-5.1558,-5.116,-5.0293,-4.9393,-4.8068,-4.6454,-4.4561,-4.2011,-3.9809,0.0,0.0,0.0,-4.2544,-4.6222,0.0,-5.0309,-5.0756,0.0,-5.1151,0.0,-5.0817,-5.069,-5.0906,0.0,0.0,-5.105,-5.1199,-5.2845,-5.2197,-5.2477,-5.3875,-5.2687,-5.2544,-5.3477,-5.3685,-5.3685,-5.3477,-5.3727,-5.3935,-5.3965,-5.4038,-5.4333,-5.4976,-5.4875,-5.5006,-5.5179,-5.5006,-5.5006,-5.5179,-5.5006,-5.4976,-5.5179,-5.5481,-5.518,-5.447,-5.4157,-5.4268,-5.4435,-5.3884,-5.3827,-5.3922,-5.411,-5.4081,-5.4082,-5.4329,-5.4822,-5.5222,-5.5407,-5.5838,-5.63,-5.6453,-5.6867,-5.7433,-5.8151,-5.8529,-5.886,-5.9402,-5.9645,-5.9826,-6.003,-5.9911,-5.979,-5.9544,-5.8661,-5.7742,-5.701,-5.6834,-5.6757,-5.6757,-5.6987,-5.7063,-5.7063,-5.7122,-5.7096,-5.7096,-5.6499,-5.6185,-5.6496,-5.5462,-5.4767,-5.4448,-5.424,-5.3793,-5.3123,-5.3029,-5.3039,-5.3095,-5.3607,-5.3889,-5.0577,-5.2292,-5.318,-5.2842,-5.1765,-5.0426,-4.8596,-4.6979,-4.4951,-4.1781,-3.9221,0.0,-3.5805,0.0,0.0,0.0,0.0,0.0,-4.9647,-5.0577,-5.1361,0.0,-5.1931,0.0,-5.2037,-5.2162,-5.2407,0.0,-5.1678,-5.1733,-5.3337,-5.2605,-5.2605,-5.3861,-5.2616,-5.2384,-5.3302,-5.3564,-5.3564,-5.3331,-5.3594,-5.3773,-5.392,-5.3876,-5.4333,-5.5006,0.0,-5.5006,-5.5179,-5.5006,-5.5078,-5.5209,-5.5304,-5.5526,-5.5628,-5.5902,-5.5691,-5.523,-5.5129,-5.5318,-5.5478,-5.454,-5.44,-5.4592,-5.4782,-5.4663,-5.4604,-5.488,-5.5312,-5.5776,-5.5988,-5.6357,-5.6761,-5.6761,-5.7363,-5.8088,-5.8494,-5.916,-5.9844,-6.0504,-6.0623,-6.0663,-6.0869,-6.0837,-6.0651,-6.0351,-5.9585,-5.8864,-5.8251,-5.731,-5.6757,-5.6911,-5.6987,-5.7063,-5.7214,-5.7289,-5.7364,-5.7588,-5.6996,-5.678,-5.7105,-5.6263,-5.5596,-5.5127,-5.4733,-5.4142,-5.3461,-5.3052,-5.3019,-5.3331,-5.3661,-5.3942,-5.3508,-5.4499,-5.4703,-5.3652,-5.2401,-5.0589,-4.7407,-4.5603,-4.3295,-3.8483,0.0,-3.4727,-3.2888,-3.4129,-3.6166,-3.8364,0.0,-4.6112,-4.898,-5.0092,-5.112,-5.2472,-5.2527,-5.2606,-5.3264,-5.3324,-5.3324,-5.3324,-5.2688,-5.277,-5.3833,-5.297,-5.2712,-5.3259,-5.2616,-5.2442,-5.3026,-5.3344,-5.3344,-5.3026,-5.3448,-5.3581,-5.3655,-5.4009,-5.4377,-5.5024,0.0,0.0,-5.5329,-5.5418,-5.5448,-5.5508,-5.6077,-5.6286,-5.6389,-5.6594,-5.6636,-5.6485,-5.6003,-5.6154,-5.6395,-5.5219,-5.5122,-5.5481,-5.5481,-5.5214,-5.5036,-5.5272,-5.5551,-5.5865,-5.6317,-5.6726,-5.6981,-5.6981,-5.7925,-5.8743,-5.8902,-6.0171,-6.1306,-6.173,-6.1597,-6.1491,-6.1578,-6.1466,-6.1265,-6.0839,-6.0512,-6.0211,-6.0045,-5.813,-5.7033,-5.7482,-5.7339,-5.7339,-5.7782,-5.7666,-5.7708,-5.7977,-5.7573,-5.739,-5.7289,-5.7063,-5.6425,-5.5314,-5.4984,-5.4403,-5.3453,-5.2834,-5.3039,-5.4114,-5.3786,-5.4273,-5.5143,-5.5448,-5.4959,-5.4497,-5.2733,-5.0347,-4.7342,-4.4423,0.0,0.0,-3.4154,-3.2355,-2.997,-3.207,0.0,-3.7885,0.0,0.0,0.0,0.0,-5.1208,0.0,0.0,0.0,0.0,0.0,0.0,0.0,0.0,-5.3455,-5.4092,-5.3268,-5.2811,-5.2924,-5.3156,-5.3344,-5.346,-5.3652,-5.3652,-5.346,-5.3964,-5.4436,-5.4982,-5.4995,-5.5367,-5.5914,-5.6244,0.0,-5.6047,-5.6555,-5.6765,-5.6765,-5.6885,-5.6944,-5.6944,-5.7286,-5.6925,-5.6329,-5.6955,-5.6937,-5.6545,-5.6304,-5.6416,-5.6655,-5.6655,-5.6427,-5.6036,-5.5963,-5.6091,-5.6317,-5.6572,-5.7161,-5.769,-5.8208,-5.893,-5.9652,-6.0411,-6.1215,-6.1694,-6.1736,-6.1418,-6.1284,-6.1632,-6.155,-6.1432,-6.1542,-6.0846,-6.0491,-6.0941,-5.9053,-5.7918,-5.8752,-5.8286,-5.8153,-5.8831,-5.9053,-5.8863,-5.8337,-5.804,-5.7697,-5.7096,-5.6834,-5.6272,-5.5314,-5.4459,-5.3651,-5.2704,-5.2574,-5.2486,-5.2592,-5.3661,-5.4308,-5.62,-5.6328,-5.5774,-5.4347,-5.2184,-4.9319,-4.5173,0.0,0.0,0.0,-3.1006,-2.9454,-2.7394,0.0,0.0,0.0,0.0,0.0,0.0,0.0,0.0,0.0,0.0,0.0,0.0,0.0,0.0,0.0,0.0,-5.3759,-5.3993,-5.3392,-5.2952,-5.2827,-5.3145,-5.3319,-5.3319,-5.3424,-5.35,-5.353,-5.3925,-5.4457,-5.5125,-5.5235,-5.5701,-5.6497,-5.645,0.0,-5.6675,-5.6795,-5.6914,-5.6944,-5.7302,-5.7421,-5.7421,-5.7738,-5.7558,-5.7184,-5.7228,-5.7467,-5.7631,-5.7393,-5.7221,-5.695,-5.7151,-5.6694,-5.6176,-5.588,-5.6321,-5.6892,-5.6861,-5.7678,-5.8597,-5.8892,-5.9617,-6.0697,-6.188,-6.2331,-6.2588,-6.2927,-6.2555,-6.2338,-6.2661,-6.2504,-6.2465,-6.2632,-6.1999,-6.1614,-6.2018,-6.0265,-5.9093,-5.9297,-5.8964,-5.874,-5.9026,-5.9139,-5.9052,-5.8607,-5.8163,-5.8041,-5.8153,-5.7233,-5.6713,-5.6746,-5.4952,-5.3803,-5.3215,-5.2856,-5.2704,-5.2819,-5.3934,-5.4648,-5.6636,-5.69,-5.6448,-5.4216,-5.1834,-4.859,-4.3059,-3.9282,0.0,-3.0209,-2.8347,-2.7154,-2.5623,0.0,-3.1151,0.0,-3.6562,0.0,0.0,0.0,0.0,0.0,0.0,0.0,0.0,0.0,0.0,0.0,0.0,0.0,-5.3919,-5.3424,-5.3001,-5.268,-5.2894,-5.3001,-5.2894,-5.3001,-5.3164,-5.3627,-5.3877,-5.4389,-5.5245,-5.5496,-5.6055,-5.6728,-5.674,0.0,0.0,-5.706,-5.7043,-5.7072,-5.7713,-5.7921,-5.7921,-5.8244,-5.8124,-5.7975,-5.7663,-5.7918,-5.849,-5.8398,-5.7962,-5.7405,-5.7507,-5.692,-5.6304,-5.6104,-5.6768,-5.7495,-5.7394,-5.8385,-5.9439,-5.9663,-6.0527,-6.1653,-6.2907,-6.3131,-6.3325,-6.3897,-6.3627,-6.3382,-6.3621,-6.3386,-6.3186,-6.353,-6.2898,-6.2482,-6.2814,-6.135,-6.0222,-6.0111,-5.9698,-5.9358,-5.9363,-5.9363,-5.9297,-5.9051,-5.8568,-5.8515,-5.9106,-5.7852,-5.7421,-5.8008,-5.593,-5.4667,-5.4382,-5.3716,-5.3486,-5.379,-5.4421,-5.4972,-5.6224,-5.6761,-5.6369,-5.5055,-5.2521,-4.8866,-4.3065,0.0,-3.4473,-2.9215,-2.7444,-2.6461,-2.54,-2.6702,-2.8996,-3.2216,-3.4395,-3.7704,0.0,0.0,0.0,0.0,0.0,0.0,0.0,0.0,0.0,0.0,0.0,0.0,-5.3919,-5.3605,-5.3184,-5.2623,-5.2652,-5.2573,-5.2329,-5.2573,-5.3181,-5.3913,-5.3971,-5.4742,-5.6229,-5.6508,-5.6727,-5.6895,-5.7673,0.0,0.0,-5.7782,-5.8018,-5.8158,-5.8466,-5.8605,-5.8605,-5.8901,-5.8435,-5.788,-5.8632,-5.856,-5.8338,-5.9121,-5.9063,-5.8668,-5.8144,-5.7693,-5.7359,-5.7389,-5.7626,-5.8065,-5.8469,-5.9193,-6.0043,-6.1169,-6.1859,-6.2351,-6.2776,-6.3002,-6.3325,-6.3865,-6.3594,-6.3473,-6.3923,-6.3209,-6.2804,-6.353,-6.2643,-6.2146,-6.2945,-6.2029,-6.1517,-6.2083,-6.082,-6.0158,-6.0854,-6.092,-6.0622,-5.9926,-5.9827,-5.9529,-5.8933,-5.8767,-5.8403,-5.7806,-5.7211,-5.6545,-5.5889,-5.5393,-5.515,-5.5215,-5.5149,-5.5213,-5.4955,-5.5829,-5.5709,-5.4382,-5.127,-4.7098,-4.2035,0.0,-3.2615,-2.8239,-2.5978,-2.473,-2.4475,-2.5093,-2.655,-2.9312,-3.0613,-3.3245,-3.868,0.0,0.0,0.0,0.0,0.0,0.0,0.0,0.0,0.0,0.0,0.0,-5.3184,-5.2865,-5.2544,-5.2113,-5.2329,-5.2528,-5.2816,-5.2925,-5.3347,-5.4055,-5.4426,-5.5077,-5.5846,-5.6557,-5.7067,-5.74,-5.7775,0.0,0.0,-5.7886,-5.8003,-5.8003,-5.8114,-5.8114,-5.8225,-5.8445,-5.8486,-5.8337,-5.8466,-5.8703,-5.8954,-5.9009,-5.9027,-5.8971,-5.8474,-5.7768,-5.7154,-5.7467,-5.8049,-5.8662,-5.9073,-5.9972,-6.1068,-6.1753,-6.2116,-6.2513,-6.2905,-6.3099,-6.3325,-6.3897,-6.3858,-6.3849,-6.4367,-6.3956,-6.376,-6.4421,-6.3705,-6.321,-6.3643,-6.3012,-6.268,-6.2946,-6.1998,-6.1249,-6.1376,-6.1495,-6.1165,-6.0271,-5.9977,-5.9862,-5.9944,-5.9037,-5.8642,-5.9131,-5.7869,-5.7036,-5.6741,-5.5961,-5.5491,-5.5409,-5.5328,-5.5278,-5.2724,-5.4229,-5.4721,-5.3269,-4.9961,-4.5861,0.0,-3.5975,-3.1402,-2.7525,-2.5082,-2.3723,-2.3891,-2.4109,-2.4902,-2.7018,-2.7931,-3.0193,-3.5472,0.0,0.0,0.0,0.0,0.0,0.0,0.0,0.0,0.0,0.0,0.0,0.0,-5.2221,-5.2004,-5.1787,-5.2004,-5.2315,-5.2964,-5.2964,-5.347,-5.4403,-5.4714,-5.5225,-5.5766,-5.6451,-5.6993,-5.7557,0.0,0.0,0.0,-5.7781,-5.7669,-5.7669,-5.7781,-5.7781,-5.7781,-5.8085,-5.8335,-5.8445,-5.8195,-5.8634,-5.9099,-5.8773,-5.8773,-5.8793,-5.8804,-5.8112,-5.7404,-5.8143,-5.8893,-5.957,-5.988,-6.0732,-6.1683,-6.1916,-6.2373,-6.283,-6.3224,-6.3579,-6.3869,-6.4062,-6.422,-6.4345,-6.4551,-6.4426,-6.4333,-6.4918,-6.4383,-6.3989,-6.4398,-6.3781,-6.3438,-6.3868,-6.3153,-6.2451,-6.208,-6.2048,-6.1751,-6.0995,-6.0666,-6.0619,-6.0717,-5.9708,-5.9497,-6.0159,-5.8724,-5.8035,-5.8067,-5.7036,-5.6334,-5.5942,-5.6057,-5.5892,-4.9492,-5.202,-5.3487,-5.1674,-4.9069,-4.543,-3.9909,-3.5292,-3.1124,-2.7209,-2.5111,-2.3982,-2.3824,-2.394,-2.4519,-2.6158,-2.7021,-2.9436,-3.4844,-3.6219,0.0,0.0,0.0,0.0,0.0,0.0,0.0,0.0,0.0,0.0,0.0,-5.1787,-5.1787,-5.1787,-5.1787,-5.1986,-5.2296,-5.2603,-5.3416,-5.4998,-5.4683,-5.5252,-5.6394,-5.6394,-5.6652,0.0,0.0,0.0,0.0,-5.7303,-5.7303,-5.7303,-5.7669,-5.7781,-5.7781,-5.8085,-5.8003,-5.7892,-5.8085,-5.8195,-5.8305,-5.8555,-5.8445,-5.8305,-5.8882,-5.8882,-5.8882,-5.9773,-6.0377,-6.0897,-6.1103,-6.141,-6.1683,-6.1916,-6.2751,-6.3457,-6.3489,-6.4398,-6.5052,-6.4348,-6.461,-6.4896,-6.4337,-6.4179,-6.4179,-6.461,-6.408,-6.4031,-6.5204,-6.4167,-6.3802,-6.5227,-6.4586,-6.3771,-6.3338,-6.3099,-6.2682,-6.2212,-6.2583,-6.2233,-6.0783,-6.1152,-6.1098,-6.0378,-6.0206,-6.0033,-6.0033,-5.9026,-5.8055,-5.7174,-5.7462,-5.7291,-4.3361,-4.531,-4.6471,-4.5194,-4.2848,-4.0023,-3.7028,-3.3792,-3.0459,-2.7117,-2.5185,-2.4067,-2.3824,-2.3546,-2.4277,-2.7208,-2.7839,-2.93,-3.3089,0.0,0.0,0.0,0.0,0.0,0.0,0.0,0.0,0.0,0.0,0.0,0.0,-5.1787,-5.1787,-5.1787,-5.1787,-5.2293,-5.3248,-5.336,-5.4092,-5.5303,-5.5215,-5.545,-5.5823,-5.6223,0.0,0.0,0.0,0.0,0.0,-5.7303,-5.7191,-5.7107,-5.7303,-5.7332,-5.722,-5.7528,-5.7669,-5.7781,-5.764,-5.7974,-5.8555,-5.8445,-5.8445,-5.8555,-5.8803,-5.8555,-5.8555,-5.9667,-6.0744,-6.1379,-6.102,-6.1308,-6.1582,-6.1714,-6.2651,-6.3589,-6.3689,-6.4429,-6.5044,-6.5218,-6.5383,-6.5352,-6.5085,-6.4893,-6.4799,-6.5176,-6.4523,-6.4616,-6.6199,-6.5725,-6.5676,-6.6817,-6.5923,-6.4819,-6.387,-6.3188,-6.2595,-6.1956,-6.1488,-6.0955,-6.0325,-6.0261,-6.0294,-6.0239,-5.9979,-5.9892,-6.0066,-5.8917,-5.8001,-5.7238,-5.6947,-5.6861,-3.8427,-4.0761,-4.2108,-4.1279,-3.9269,-3.6915,-3.4785,-3.2165,-2.9325,-2.6472,-2.4872,-2.3849,-2.348,-2.3257,-2.3893,-2.609,-2.6967,-2.863,-3.2024,0.0,0.0,0.0,0.0,0.0,0.0,0.0,0.0,0.0,0.0,0.0,0.0,-5.1458,-5.1458,-5.1458,-5.1568,-5.2294,-5.3669,-5.3556,-5.4173,-5.5496,-5.5496,-5.5532,-5.5652,-5.6137,0.0,0.0,0.0,0.0,0.0,-5.7303,-5.7222,-5.7196,-5.7278,-5.7222,-5.7196,-5.7278,-5.7528,-5.7781,-5.7557,-5.8003,-5.8664,-5.8335,-5.8445,-5.8723,-5.8851,-5.8762,-5.8773,-5.956,-6.0654,-6.155,-6.0978,-6.1578,-6.2331,-6.2152,-6.3248,-6.4381,-6.4482,-6.5123,-6.5708,-6.5756,-6.5892,-6.5702,-6.5093,-6.5158,-6.5255,-6.5155,-6.5151,-6.5665,-6.7126,-6.6856,-6.6938,-6.7757,-6.6746,-6.5607,-6.472,-6.3702,-6.2903,-6.2352,-6.1895,-6.1273,-6.0663,-6.0801,-6.0745,-6.0402,-6.0226,-6.0064,-5.9979,-5.871,-5.8116,-5.813,-5.7029,-5.7013,0.0,-3.7543,-3.9468,-3.8896,-3.7377,-3.53,-3.2858,-3.0309,0.0,-2.5407,-2.4234,-2.343,-2.2921,-2.3195,-2.354,-2.3732,-2.5305,-2.791,0.0,0.0,0.0,0.0,0.0,0.0,0.0,0.0,0.0,0.0,0.0,0.0,0.0,-5.0906,-5.0906,-5.0906,-5.1155,-5.21,-5.3669,-5.3329,-5.3943,-5.5496,-5.5496,-5.5613,-5.5905,-5.6279,0.0,0.0,0.0,0.0,0.0,-5.7361,-5.7511,-5.7772,-5.7509,-5.7482,-5.7686,-5.7422,-5.7528,-5.7781,-5.7781,-5.8114,-5.8555,-5.8335,-5.8445,-5.8703,-5.9103,-5.9199,-5.9297,-5.9482,-6.0502,-6.14,-6.0936,-6.229,-6.3548,-6.3233,-6.4389,-6.5574,-6.5574,-6.6321,-6.6815,-6.6147,-6.6224,-6.5879,-6.4604,-6.5154,-6.5576,-6.49,-6.5869,-6.6937,-6.7945,-6.7644,-6.7542,-6.8295,-6.7142,-6.6226,-6.604,-6.4505,-6.3505,-6.3285,-6.3528,-6.2998,-6.1688,-6.2516,-6.234,-6.0979,-6.085,-6.0461,-5.9781,-5.8631,-5.8695,-5.9758,-5.7756,-5.7936,-2.8297,0.0,-3.174,-3.0759,-3.0159,-2.964,0.0,-2.7994,0.0,0.0,0.0,0.0,-2.3956,-2.3659,-2.444,-2.7735,-2.908,-3.0864,-3.4196,0.0,0.0,0.0,0.0,0.0,0.0,0.0,0.0,0.0,0.0,0.0,0.0,-5.0906,-5.0906,-5.0906,-5.0822,-5.1541,-5.3301,-5.3215,-5.3943,-5.5496,-5.5261,-5.5126,-5.5281,-5.608,0.0,0.0,0.0,0.0,-5.7369,-5.76,-5.7455,-5.7103,-5.7542,-5.7254,-5.6738,-5.7135,-5.7303,-5.7416,-5.7416,-5.7669,-5.8003,-5.8225,-5.8195,-5.8453,-5.9325,-5.9887,-6.0205,-6.0283,-6.12,-6.1997,-6.1431,-6.2285,-6.3326,-6.3171,-6.4183,-6.523,-6.523,-6.6007,-6.6659,-6.6679,-6.6751,-6.6568,-6.5879,-6.6213,-6.6477,-6.6316,-6.6742,-6.7394,-6.8373,-6.8503,-6.8761,-6.9118,-6.817,-6.7644,-6.7706,-6.537,-6.3824,-6.3538,-6.358,-6.3367,-6.2892,-6.3464,-6.3311,-6.2404,-6.1336,-6.0599,-6.0225,-5.9703,-6.0083,-6.1064,-5.9943,-6.007,-2.5695,-2.7391,-2.9059,-2.8717,-2.8326,-2.8015,-2.781,-2.6949,0.0,0.0,0.0,0.0,0.0,0.0,-2.5394,-2.7652,-2.9813,0.0,0.0,0.0,0.0,0.0,0.0,0.0,0.0,0.0,0.0,0.0,0.0,0.0,0.0,-5.046,-5.046,-5.046,-5.0761,-5.1453,-5.2542,-5.2733,-5.3458,-5.4725,-5.4887,-5.4976,-5.5018,-5.5704,-5.5907,0.0,0.0,0.0,-5.6937,-5.7139,-5.7108,-5.6868,-5.7283,-5.7139,-5.6938,-5.7193,-5.7416,-5.7528,-5.7528,-5.7669,-5.7839,-5.8326,-5.8526,-5.8814,-6.0043,-6.0373,-6.0396,-6.0696,-6.1679,-6.2482,-6.1812,-6.2902,-6.4119,-6.3809,-6.4564,-6.5383,-6.5596,-6.6016,-6.6512,-6.6796,-6.705,-6.7155,-6.656,-6.7285,-6.7914,-6.7593,-6.8258,-6.8755,-6.9089,-6.9287,-6.9354,-6.9026,-6.8371,-6.7945,-6.7849,-6.6303,-6.5056,-6.4604,-6.4604,-6.4381,-6.3779,-6.4182,-6.3991,-6.289,-6.1821,-6.1148,-6.1058,-6.0693,-6.0917,-6.1639,-6.0865,-6.0962,-2.5313,-2.7205,-2.8967,-2.8934,-2.8556,-2.8148,-2.7933,0.0,0.0,0.0,0.0,0.0,0.0,0.0,0.0,0.0,0.0,0.0,0.0,0.0,0.0,0.0,0.0,0.0,0.0,0.0,0.0,0.0,0.0,0.0,0.0,-5.001,-4.9951,-5.0032,-5.0775,-5.1277,-5.1563,-5.2081,-5.2773,-5.353,-5.4262,-5.463,-5.463,-5.5066,-5.5472,0.0,0.0,0.0,-5.6335,-5.645,-5.6648,-5.684,-5.6881,-5.7082,-5.7282,-5.728,-5.7416,-5.7781,-5.7781,-5.7781,-5.7868,-5.8395,-5.8884,-5.9404,-6.0642,-6.0743,-6.0535,-6.1224,-6.2122,-6.2718,-6.2141,-6.3623,-6.5063,-6.4584,-6.5079,-6.57,-6.5978,-6.6179,-6.6318,-6.6512,-6.7111,-6.7534,-6.687,-6.8246,-6.9202,-6.8732,-6.9664,-7.0274,-6.9834,-6.9938,-6.9777,-6.8861,-6.834,-6.7915,-6.7426,-6.7264,-6.6835,-6.6119,-6.5984,-6.5592,-6.4565,-6.4864,-6.4412,-6.3084,-6.234,-6.1983,-6.1983,-6.1524,-6.1588,-6.2145,-6.131,-6.144,-2.6796,-2.8389,-2.8807,-2.6013,-2.6363,-2.7024,-2.5803,0.0,0.0,0.0,0.0,0.0,0.0,0.0,0.0,0.0,0.0,0.0,0.0,0.0,0.0,0.0,0.0,0.0,0.0,0.0,0.0,0.0,0.0,0.0,0.0,-4.9783,-4.9912,-5.0282,-5.03,-5.0211,-5.0327,-5.1619,-5.2553,-5.2895,-5.2746,-5.2917,-5.3148,-5.3995,-5.4218,-5.4185,0.0,-5.604,-5.6073,-5.6637,-5.6694,-5.6542,-5.6783,-5.6705,-5.6537,-5.6908,-5.7107,-5.7416,-5.7669,-5.7669,-5.7445,-5.7786,-5.8502,-5.9315,-6.0082,-6.104,-6.2025,-6.2912,-6.2708,-6.208,-6.1989,-6.3513,-6.4967,-6.4875,-6.5125,-6.5406,-6.5406,-6.6059,-6.6527,-6.6318,-6.7306,-6.7935,-6.7565,-6.8457,-6.918,-6.9052,-6.9873,-7.0385,-6.9962,-7.0073,-7.009,-6.9577,-6.8861,-6.8437,-6.8437,-6.8339,-6.8209,-6.7815,-6.7164,-6.6478,-6.5869,-6.5478,-6.4828,-6.3862,-6.3302,-6.2945,-6.2728,-6.2231,-6.2584,-6.3667,-6.2587,-6.2553,-2.5665,-2.6869,-2.7642,-2.7134,-2.8725,-3.0212,-2.9446,0.0,0.0,0.0,0.0,0.0,0.0,0.0,0.0,0.0,0.0,0.0,0.0,0.0,0.0,0.0,0.0,0.0,0.0,0.0,0.0,0.0,0.0,0.0,0.0,0.0,-4.9756,-5.0548,-5.0281,-4.9978,-4.9978,-5.0739,-5.1223,-5.1598,-5.2342,-5.2904,-5.3021,-5.3716,-5.4228,-5.4373,0.0,-5.5457,-5.5709,-5.6035,-5.6035,-5.5917,-5.627,-5.6449,-5.6394,-5.6964,-5.7191,-5.7303,-5.7416,-5.7416,-5.7419,-5.8259,-5.8805,-5.9178,-6.0291,-6.1015,-6.15,-6.225,-6.2738,-6.3163,-6.3244,-6.4064,-6.4888,-6.4888,-6.4998,-6.5077,-6.5297,-6.5933,-6.6416,-6.6464,-6.7747,-6.8704,-6.8611,-6.9445,-7.0249,-7.0249,-7.0722,-7.0876,-7.0385,-7.0607,-7.0397,-6.9227,-6.8978,-6.8723,-6.8234,-6.8301,-6.8239,-6.7882,-6.733,-6.6614,-6.5546,-6.5285,-6.4799,-6.4024,-6.3793,-6.3599,-6.3505,-6.3002,-6.3163,-6.4024,-6.2937,-6.271,-2.4937,-2.5795,-2.6855,-2.8819,-3.0738,-3.2357,-3.3305,0.0,0.0,0.0,0.0,0.0,0.0,0.0,0.0,0.0,0.0,0.0,0.0,0.0,0.0,0.0,0.0,0.0,0.0,0.0,0.0,0.0,0.0,0.0,0.0,0.0,-4.9834,-5.083,-5.0578,-5.0419,-5.0286,-5.0404,-5.0308,-5.0282,-5.1801,-5.2525,-5.267,-5.3407,-5.3974,-5.4595,-5.4643,-5.4817,-5.5261,-5.5379,-5.5379,-5.5379,-5.5613,-5.5961,-5.6423,-5.6964,-5.7191,-5.7191,-5.7416,-5.7416,-5.7507,-5.8783,-5.8956,-5.9094,-6.0468,-6.0901,-6.0975,-6.1619,-6.2829,-6.3932,-6.4087,-6.4512,-6.4777,-6.4888,-6.4888,-6.4998,-6.5187,-6.5868,-6.6505,-6.6541,-6.812,-6.9377,-6.9332,-7.0315,-7.1092,-7.1092,-7.1314,-7.1233,-7.0799,-7.1006,-7.0598,-6.9116,-6.9246,-6.9033,-6.8119,-6.8198,-6.8109,-6.7525,-6.707,-6.6291,-6.506,-6.4866,-6.4542,-6.4024,-6.3991,-6.3991,-6.4024,-6.3421,-6.3421,-6.3897,-6.2839,-6.2612,-2.6456,-2.7024,-2.743,-2.9416,-2.9441,0.0,-3.442,-3.3694,0.0,0.0,0.0,0.0,0.0,0.0,0.0,0.0,0.0,0.0,0.0,0.0,0.0,0.0,0.0,0.0,0.0,0.0,0.0,0.0,0.0,0.0,0.0,0.0,0.0,-5.0857,-5.1626,-5.1672,-5.1266,-5.1482,-5.0895,-4.9637,-5.005,-5.0578,-5.1068,-5.1971,-5.275,-5.3398,-5.4212,-5.4607,-5.4699,-5.4908,-5.5026,-5.5026,-5.5026,-5.5496,-5.6077,-5.6652,-5.688,-5.6993,-5.7557,-5.7557,-5.7419,-5.8457,-5.8805,-5.9035,-5.9938,-6.0871,-6.1744,-6.2677,-6.3192,-6.3501,-6.3507,-6.3923,-6.4524,-6.4777,-6.4888,-6.4888,-6.4888,-6.5903,-6.6756,-6.6443,-6.8126,-6.9651,-6.9283,-7.0091,-7.0789,-7.0789,-7.0901,-7.0981,-7.114,-7.0567,-7.0231,-7.046,-6.982,-6.9285,-6.8892,-6.8691,-6.8208,-6.7328,-6.6128,-6.5316,-6.5027,-6.4569,-6.4211,-6.4024,-6.4146,-6.4146,-6.4024,-6.3421,-6.3325,-6.3612,-6.2808,-6.2513,-2.5666,-2.6764,-2.7971,-3.0383,-3.1567,0.0,0.0,0.0,0.0,0.0,0.0,0.0,0.0,0.0,0.0,0.0,0.0,0.0,0.0,0.0,0.0,0.0,0.0,0.0,0.0,0.0,0.0,0.0,0.0,0.0,0.0,0.0,0.0,-5.1286,-5.0926,-5.0874,-5.1031,-5.0785,-5.0379,-5.01,-5.0803,-5.1308,-5.1664,-5.2406,-5.3266,-5.413,-5.4231,-5.446,-5.4762,-5.4373,-5.4574,-5.5026,-5.5496,-5.5613,-5.5729,-5.6652,-5.688,-5.6993,-5.7303,-5.7416,-5.7419,-5.8201,-5.8405,-5.8577,-5.9409,-6.0432,-6.1401,-6.1889,-6.2694,-6.3478,-6.4106,-6.434,-6.4524,-6.4777,-6.5226,-6.5534,-6.5534,-6.6273,-6.6827,-6.6694,-6.7559,-6.822,-6.8115,-6.9095,-6.9902,-6.9902,-7.0392,-7.0901,-7.0901,-7.0981,-7.085,-7.0435,-7.0086,-6.9752,-6.96,-6.9436,-6.9086,-6.8493,-6.746,-6.6256,-6.506,-6.4864,-6.4507,-6.4024,-6.4085,-6.4085,-6.4024,-6.3421,-6.3325,-6.358,-6.2808,-6.2513,-2.5093,-2.6243,-2.7859,-3.0283,-3.2377,0.0,0.0,0.0,0.0,0.0,0.0,0.0,0.0,0.0,0.0,0.0,0.0,0.0,0.0,0.0,0.0,0.0,0.0,0.0,0.0,0.0,0.0,0.0,0.0,0.0,0.0,0.0,0.0,0.0,-5.104,-5.0935,-5.1171,-5.0752,-5.069,-5.0812,-5.1451,-5.1896,-5.2218,-5.2836,-5.3619,-5.446,-5.4194,-5.4314,-5.4643,-5.4228,-5.4429,-5.5026,-5.5613,-5.5729,-5.5613,-5.6423,-5.6652,-5.6652,-5.7078,-5.7335,-5.7511,-5.8292,-5.8494,-5.8523,-5.953,-6.0321,-6.117,-6.1717,-6.2408,-6.3309,-6.4443,-6.4524,-6.4473,-6.5053,-6.5565,-6.5965,-6.618,-6.6765,-6.7227,-6.7227,-6.761,-6.7962,-6.7962,-6.8933,-6.9584,-6.9584,-7.0361,-7.0789,-7.0645,-7.1092,-7.1233,-7.0645,-7.0215,-6.9986,-6.9986,-6.9631,-6.9249,-6.8946,-6.8143,-6.7037,-6.574,-6.5287,-6.4898,-6.4671,-6.4445,-6.4347,-6.4315,-6.3742,-6.3645,-6.3806,-6.3059,-6.2988,-2.5032,-2.5585,-2.7081,-2.8925,0.0,0.0,0.0,0.0,0.0,0.0,0.0,0.0,0.0,0.0,0.0,0.0,0.0,0.0,0.0,0.0,0.0,0.0,0.0,0.0,0.0,0.0,0.0,0.0,0.0,0.0,0.0,0.0,0.0,0.0,-5.2358,-5.2701,-5.2121,-5.2121,-5.1996,-5.1596,-5.1996,-5.2173,-5.2218,-5.2836,-5.347,-5.4074,-5.4074,-5.4074,-5.4074,-5.446,-5.4699,-5.5026,-5.5379,-5.5496,-5.5613,-5.6164,-5.6193,-5.6077,-5.6964,-5.7283,-5.7625,-5.8841,-5.8809,-5.8688,-6.0472,-6.094,-6.094,-6.2145,-6.2769,-6.3309,-6.4158,-6.4188,-6.4288,-6.5637,-6.5903,-6.6119,-6.6796,-6.7442,-6.7935,-6.7935,-6.8691,-6.9356,-6.9356,-6.9933,-7.0275,-7.0275,-7.0532,-7.0645,-7.0388,-7.0869,-7.1314,-7.1612,-7.0578,-6.9922,-6.9922,-6.9145,-6.8533,-6.8234,-6.7883,-6.7492,-6.7197,-6.5805,-6.5384,-6.6096,-6.5384,-6.5027,-6.5027,-6.4577,-6.4284,-6.422,-6.3789,-6.3868,-2.4222,-2.6098,0.0,0.0,0.0,0.0,0.0,0.0,0.0,0.0,0.0,0.0,0.0,0.0,0.0,0.0,0.0,0.0,0.0,0.0,0.0,0.0,0.0,0.0,0.0,0.0,0.0,0.0,0.0,0.0,0.0,0.0,0.0,0.0,-5.1433,-5.1511,-5.1721,-5.1721,-5.1721,-5.1596,-5.1996,-5.2262,-5.2471,-5.2903,-5.347,-5.4074,-5.3833,-5.3833,-5.4074,-5.446,-5.4212,-5.3854,-5.5094,-5.5379,-5.5261,-5.5845,-5.6077,-5.6105,-5.6766,-5.7283,-5.7801,-5.8579,-5.9186,-5.9827,-6.0472,-6.1204,-6.1733,-6.1838,-6.2426,-6.3194,-6.3592,-6.4183,-6.4866,-6.5729,-6.6642,-6.7381,-6.7596,-6.7781,-6.7935,-6.7935,-6.7804,-6.7619,-6.7619,-6.8562,-6.9214,-6.9214,-7.0105,-7.0869,-7.1203,-7.1424,-7.1452,-7.1477,-7.1132,-7.0785,-7.0332,-7.0436,-7.0345,-6.9788,-6.9663,-6.8885,-6.7262,-6.629,-6.5902,-6.6096,-6.5223,-6.4997,-6.5513,-6.454,-6.4243,-6.4689,-6.4419,-6.431,-2.602,0.0,0.0,0.0,0.0,0.0,0.0,0.0,0.0,0.0,0.0,0.0,0.0,0.0,0.0,0.0,0.0,0.0,0.0,0.0,0.0,0.0,0.0,0.0,0.0,0.0,0.0,0.0,0.0,0.0,0.0,0.0,0.0,0.0,-5.1282,-5.1256,-5.1596,-5.1596,-5.1596,-5.1596,-5.1759,-5.1901,-5.2146,-5.2754,-5.3349,-5.3713,-5.3592,-5.3833,-5.4074,-5.4341,-5.424,-5.4055,-5.4887,-5.5261,-5.5261,-5.5845,-5.599,-5.6105,-5.6652,-5.7341,-5.8029,-5.8548,-5.9266,-6.0105,-6.0702,-6.1202,-6.1555,-6.1878,-6.2404,-6.3023,-6.3725,-6.4317,-6.4964,-6.5534,-6.6805,-6.7935,-6.7819,-6.8003,-6.8304,-6.8304,-6.7966,-6.7689,-6.7689,-6.8572,-6.9101,-6.8851,-6.9503,-7.0329,-7.1282,-7.0917,-7.0786,-7.1261,-7.0832,-7.0518,-7.0015,-7.0235,-7.017,-6.9561,-6.9717,-6.9065,-6.7451,-6.6807,-6.6679,-6.6938,-6.616,-6.5901,-6.6353,-6.5308,-6.514,-6.5421,-6.5218,-6.5172,-2.8788,0.0,0.0,0.0,0.0,0.0,0.0,0.0,0.0,0.0,0.0,0.0,0.0,0.0,0.0,0.0,0.0,0.0,0.0,0.0,0.0,0.0,0.0,0.0,0.0,0.0,0.0,0.0,0.0,0.0,0.0,0.0,0.0,-5.1596,-5.1419,-5.1393,-5.1393,-5.1393,-5.1367,0.0,-5.1163,-5.1171,-5.1197,-5.2391,-5.3078,-5.3132,-5.347,-5.3713,-5.4074,-5.4074,-5.4433,-5.4908,-5.5026,-5.5144,-5.5496,-5.5845,-5.6018,-5.6075,-5.6738,-5.757,-5.8422,-5.8717,-5.928,-5.9977,-6.0889,-6.0981,-6.1044,-6.2116,-6.2498,-6.288,-6.403,-6.4443,-6.4704,-6.5163,-6.6576,-6.7819,-6.7647,-6.8224,-6.8889,-6.8889,-6.8889,-6.8889,-6.8889,-6.9294,-6.9475,-6.882,-6.8789,-6.9377,-7.0902,-7.0062,-6.962,-7.0813,-6.9958,-6.9326,-6.9135,-6.8963,-6.8737,-6.823,-6.8705,-6.8666,-6.7926,-6.7515,-6.7551,-6.8101,-6.7422,-6.7098,-6.7098,-6.6502,-6.6199,-6.623,-6.6058,-6.6234,0.0,0.0,0.0,0.0,0.0,0.0,0.0,0.0,0.0,0.0,0.0,0.0,0.0,0.0,0.0,0.0,0.0,0.0,0.0,0.0,0.0,0.0,0.0,0.0,0.0,0.0,0.0,0.0,0.0,0.0,0.0,0.0,0.0,-5.122,-5.0581,-5.0198,-5.0172,-5.0172,-5.009,0.0,-4.9863,-4.9933,-5.0228,-5.1562,-5.2459,-5.3132,-5.347,-5.3592,-5.3713,-5.3954,-5.4314,-5.4699,-5.4908,-5.5144,-5.5496,-5.5613,-5.5922,-5.6345,-5.6815,-5.7639,-5.8803,-5.9286,-5.9994,-6.0646,-6.1286,-6.1421,-6.1494,-6.1732,-6.2234,-6.2644,-6.2996,-6.3734,-6.4588,-6.4619,-6.6229,-6.7709,-6.8081,-6.8531,-6.8889,-6.8889,-6.8889,-6.8889,-6.8889,-6.8807,-6.8562,-6.8326,-6.8813,-6.9444,-7.0203,-6.9888,-6.9681,-6.982,-6.9116,-6.8412,-6.7604,-6.8363,-6.8692,-6.8115,-6.9102,-6.927,-6.8388,-6.8228,-6.8075,-6.7625,-6.6716,-6.6262,-6.6262,-6.5313,-6.5211,-6.5782,-6.5678,-6.6026,0.0,0.0,0.0,0.0,0.0,0.0,0.0,0.0,0.0,0.0,0.0,0.0,0.0,0.0,0.0,0.0,0.0,0.0,0.0,0.0,0.0,0.0,0.0,0.0,0.0,0.0,0.0,0.0,0.0,0.0,0.0,-4.9915,-4.9981,-5.0292,-5.0176,-4.9922,-4.9384,-4.964,-4.9708,-4.9386,-4.9127,-4.9239,-4.9531,-5.088,-5.1922,-5.2486,-5.2971,-5.3227,-5.3349,-5.3592,-5.3981,-5.4607,-5.4699,-5.5054,-5.5496,-5.5496,-5.6007,-5.666,-5.6778,-5.7837,-5.9066,-5.9163,-5.9815,-6.0495,-6.0811,-6.1062,-6.1255,-6.1494,-6.1969,-6.244,-6.2971,-6.365,-6.439,-6.5081,-6.6216,-6.7295,-6.7512,-6.7966,-6.8444,-6.8224,-6.8408,-6.8649,-6.8489,-6.8497,-6.8706,-6.9095,-6.927,-6.9539,-7.0379,-6.9588,-6.9051,-6.9243,-6.8575,-6.7769,-6.7069,-6.806,-6.8316,-6.7546,-6.8636,-6.8805,-6.7787,-6.7969,-6.7683,-6.694,-6.6774,-6.648,-6.6161,-6.5821,-6.5909,-6.6257,-6.6257,-6.6447,0.0,0.0,0.0,0.0,0.0,0.0,0.0,0.0,0.0,0.0,0.0,0.0,0.0,0.0,0.0,0.0,0.0,0.0,0.0,0.0,0.0,0.0,0.0,0.0,0.0,0.0,0.0,0.0,0.0,0.0,-4.974,-4.9845,-4.98,-4.9412,-5.0047,-4.9848,-4.8974,-4.9384,-4.9456,-4.923,-4.8807,-4.8692,-4.8956,-5.0244,-5.1134,-5.1656,-5.2322,-5.2754,-5.2836,-5.3052,-5.3565,-5.4323,-5.4433,-5.4936,-5.5379,-5.5496,-5.6091,-5.6948,-5.6948,-5.8008,-5.9152,-5.8908,-5.9399,-6.0194,-6.0194,-6.0438,-6.0923,-6.1375,-6.185,-6.2234,-6.315,-6.3712,-6.4306,-6.5533,-6.6282,-6.6761,-6.6763,-6.7336,-6.7907,-6.7683,-6.8019,-6.8321,-6.7911,-6.8272,-6.8789,-6.9565,-6.9189,-6.9144,-7.0157,-6.8878,-6.8155,-6.8698,-6.7957,-6.7186,-6.6723,-6.7673,-6.7874,-6.6828,-6.7906,-6.8138,-6.7123,-6.7419,-6.7208,-6.6454,-6.6894,-6.6862,-6.6262,-6.6528,-6.671,-6.6742,-6.6742,-6.6806,0.0,0.0,0.0,0.0,0.0,0.0,0.0,0.0,0.0,0.0,0.0,0.0,0.0,0.0,0.0,0.0,0.0,0.0,0.0,0.0,0.0,0.0,0.0,0.0,0.0,0.0,0.0,0.0,0.0,0.0,-4.9165,-4.8644,-4.8755,-4.9412,-4.9189,-4.8964,-4.8922,-4.8753,-4.8621,-4.8687,-4.8354,-4.8186,-4.7951,-4.8864,-4.9823,-5.0684,-5.2284,-5.2541,-5.168,-5.2702,-5.3173,-5.348,-5.4002,-5.4552,-5.5144,-5.5379,-5.6254,-5.7387,-5.7387,-5.8175,-5.9217,-5.9093,-5.9645,-6.0194,-6.0194,-6.0681,-6.1193,-6.1193,-6.1642,-6.2116,-6.2234,-6.3119,-6.4186,-6.4964,-6.5592,-6.6403,-6.7216,-6.7668,-6.8059,-6.8295,-6.8562,-6.8674,-6.8027,-6.7641,-6.7392,-6.7198,-6.6852,-6.7042,-6.79,-6.7417,-6.7074,-6.7431,-6.6834,-6.6179,-6.5623,-6.6897,-6.7174,-6.5947,-6.7894,-6.8552,-6.7577,-6.7351,-6.7036,-6.6565,-6.6448,-6.6165,-6.5678,-6.5429,-6.546,-6.5805,-6.5805,-6.6121,0.0,0.0,0.0,0.0,0.0,0.0,0.0,0.0,0.0,0.0,0.0,0.0,0.0,0.0,0.0,0.0,0.0,0.0,0.0,0.0,0.0,0.0,0.0,0.0,0.0,0.0,0.0,0.0,0.0,-4.7832,-4.7626,-4.7818,-4.7863,-4.8,-4.8477,-4.8502,-4.7758,-4.8064,-4.8179,-4.8066,-4.7951,-4.7938,-4.7964,-4.8562,-4.9098,-4.9745,-5.0801,-5.1216,-5.1174,-5.2031,-5.2728,-5.3253,-5.3828,-5.4314,-5.4817,-5.5144,-5.6045,-5.7136,-5.7378,-5.8193,-5.9205,-5.9205,-5.9702,-6.0194,-6.0194,-6.0681,-6.1193,-6.1193,-6.1523,-6.185,-6.185,-6.2824,-6.3861,-6.4189,-6.4875,-6.5652,-6.6553,-6.6794,-6.7034,-6.7512,-6.753,-6.7549,-6.7904,-6.7888,-6.7652,-6.7163,-6.7411,-6.7728,-6.7684,-6.7433,-6.7198,-6.7042,-6.6354,-6.5731,-6.5297,-6.6336,-6.6847,-6.6293,-6.7376,-6.7853,-6.7597,-6.6928,-6.6614,-6.6617,-6.6299,-6.5764,-6.4974,-6.566,-6.5712,-6.5334,-6.5849,-6.6301,0.0,0.0,0.0,0.0,0.0,0.0,0.0,0.0,0.0,0.0,0.0,0.0,0.0,0.0,0.0,0.0,0.0,0.0,0.0,0.0,0.0,0.0,0.0,0.0,0.0,0.0,0.0,0.0,0.0,-4.6835,-4.6527,-4.6938,-4.7103,-4.69,-4.7962,-4.8064,-4.7129,-4.7897,-4.8034,-4.756,-4.7677,-4.7821,-4.8081,-4.8444,-4.8745,-4.8904,-4.9704,-5.018,-5.0578,-5.1469,-5.2245,-5.2988,-5.3708,-5.4221,-5.4488,-5.5103,-5.5945,-5.6798,-5.7426,-5.8306,-5.908,-5.9205,-5.9702,-6.0194,-6.0316,-6.0681,-6.1193,-6.1193,-6.1404,-6.1613,-6.1613,-6.2588,-6.3595,-6.3595,-6.4308,-6.5173,-6.5652,-6.6132,-6.6583,-6.688,-6.6894,-6.7059,-6.7727,-6.7857,-6.76,-6.7342,-6.7703,-6.8021,-6.7821,-6.7634,-6.7243,-6.6713,-6.6028,-6.5515,-6.5187,-6.6103,-6.6569,-6.648,-6.6922,-6.7272,-6.7458,-6.6538,-6.6255,-6.6764,-6.6098,-6.5607,-6.5037,-6.6007,-6.6122,-6.5481,-6.5964,-6.6228,0.0,0.0,0.0,0.0,0.0,0.0,0.0,0.0,0.0,0.0,0.0,0.0,0.0,0.0,0.0,0.0,0.0,0.0,0.0,0.0,0.0,0.0,0.0,0.0,0.0,0.0,0.0,0.0,0.0,-4.6306,-4.6875,-4.632,-4.6315,-4.718,-4.7218,-4.7496,-4.8051,-4.8438,-4.8154,-4.7205,-4.756,-4.7703,-4.7703,-4.8299,-4.851,-4.8303,-4.9785,-5.0089,-4.9666,-5.1189,-5.2004,-5.2365,-5.3227,-5.3833,-5.4276,-5.5483,-5.6093,-5.6609,-5.7808,-5.8423,-5.8829,-5.9482,-5.9948,-6.0316,-6.056,-6.0952,-6.1193,-6.1193,-6.1404,-6.1613,-6.1613,-6.2588,-6.3595,-6.3595,-6.4308,-6.5054,-6.5084,-6.6552,-6.7727,-6.7089,-6.7439,-6.7873,-6.7904,-6.6858,-6.6324,-6.7136,-6.6591,-6.6436,-6.7616,-6.7007,-6.635,-6.6319,-6.5699,-6.5187,-6.4888,-6.6027,-6.6449,-6.5794,-6.6865,-6.7458,-6.7197,-6.6291,-6.6228,-6.7134,-6.5527,-6.5364,-6.6491,-6.6268,-6.6268,-6.6523,-6.5576,-6.5397,-2.2099,0.0,0.0,0.0,0.0,0.0,0.0,0.0,0.0,0.0,0.0,0.0,0.0,0.0,0.0,0.0,0.0,0.0,0.0,0.0,0.0,0.0,0.0,0.0,0.0,0.0,0.0,0.0,0.0,0.0,-4.5732,-4.609,-4.6315,-4.6636,-4.6933,-4.7121,-4.7026,-4.7144,-4.7015,-4.6693,-4.6959,-4.7349,-4.7703,-4.7674,-4.7885,-4.8198,-4.8734,-4.914,-4.9561,-5.0499,-5.139,-5.2245,-5.3012,-5.3714,-5.4433,-5.5381,-5.6221,-5.7135,-5.7729,-5.8451,-5.908,-5.908,-5.9454,-5.9948,-6.0316,-6.056,-6.0923,-6.1404,-6.1666,-6.1899,-6.1701,-6.2469,-6.3239,-6.3294,-6.38,-6.4128,-6.3622,-6.4455,-6.5467,-6.5343,-6.5546,-6.5778,-6.604,-6.5757,-6.5709,-6.6067,-6.5914,-6.6108,-6.6579,-6.6282,-6.5831,-6.5399,-6.5152,-6.4998,-6.4888,-6.5435,-6.5981,-6.6386,-6.6556,-6.6941,-6.749,-6.6291,-6.5822,-6.6196,-6.5602,-6.5584,-6.5954,-6.5849,-6.5712,-6.5607,-6.5219,-6.5125,-2.0332,-2.2032,0.0,0.0,0.0,0.0,0.0,0.0,0.0,0.0,0.0,0.0,0.0,0.0,0.0,0.0,0.0,0.0,0.0,0.0,0.0,0.0,0.0,0.0,0.0,0.0,0.0,0.0,0.0,0.0,-4.5081,-4.5755,-4.6197,-4.6301,-4.6636,-4.6595,-4.6061,-4.6178,-4.6294,-4.6178,-4.6442,-4.6815,-4.7586,-4.7529,-4.7622,-4.7938,-4.829,-4.9035,-4.9825,-5.0221,-5.1216,-5.2541,-5.2971,-5.3727,-5.4637,-5.5319,-5.6184,-5.7064,-5.7786,-5.8494,-5.8829,-5.8955,-5.9329,-5.9825,-6.0194,-6.056,-6.0802,-6.1284,-6.1575,-6.1687,-6.1491,-6.2084,-6.2854,-6.3322,-6.3528,-6.3471,-6.2704,-6.362,-6.451,-6.4387,-6.4473,-6.4734,-6.4964,-6.5011,-6.5207,-6.5666,-6.5985,-6.6334,-6.655,-6.6396,-6.5996,-6.5319,-6.5042,-6.4888,-6.4888,-6.5218,-6.5592,-6.6386,-6.6228,-6.6274,-6.6897,-6.6058,-6.5513,-6.5502,-6.537,-6.5477,-6.5817,-6.5922,-6.5691,-6.523,-6.4874,-6.4424,0.0,0.0,0.0,0.0,0.0,0.0,0.0,0.0,0.0,0.0,0.0,0.0,0.0,0.0,0.0,0.0,0.0,0.0,0.0,0.0,0.0,0.0,0.0,0.0,0.0,0.0,0.0,0.0,0.0,-4.4523,-4.5055,-4.5405,-4.5723,-4.6276,-4.6276,-4.5999,-4.5447,-4.5658,-4.5893,-4.5893,-4.5918,-4.6315,-4.7231,-4.7795,-4.7744,-4.7231,-4.8562,-4.9613,-5.0379,-5.0379,-5.1429,-5.3105,-5.3105,-5.3727,-5.4596,-5.5566,-5.6041,-5.6541,-5.8131,-5.8451,-5.8325,-5.9329,-5.973,-5.9853,-6.0438,-6.0681,-6.0802,-6.1073,-6.1222,-6.1222,-6.1222,-6.1701,-6.244,-6.371,-6.3528,-6.2993,-6.2615,-6.4066,-6.5139,-6.4096,-6.4473,-6.4964,-6.4964,-6.4614,-6.484,-6.6185,-6.6629,-6.7104,-6.7812,-6.7289,-6.6611,-6.5934,-6.5288,-6.4888,-6.4888,-6.5108,-6.5406,-6.57,-6.57,-6.57,-6.57,-6.5406,-6.5297,-6.5266,-6.4969,-6.5183,-6.6192,-6.648,-6.6238,-6.5543,-6.4506,-6.3233,-1.8122,0.0,0.0,0.0,0.0,0.0,0.0,0.0,0.0,0.0,0.0,0.0,0.0,0.0,0.0,0.0,0.0,0.0,0.0,0.0,0.0,0.0,0.0,0.0,0.0,0.0,0.0,0.0,-4.484,-4.4522,-4.4497,-4.5203,-4.5573,-4.5723,-4.5321,-4.4819,-4.4267,-4.4382,-4.4583,-4.4961,-4.5389,-4.6129,-4.69,-4.7266,-4.7478,-4.7586,-4.8238,-4.8983,-4.9772,-4.9955,-5.1043,-5.2487,-5.2673,-5.3724,-5.5193,-5.5729,-5.6691,-5.7724,-5.7889,-5.8325,-5.8829,-5.8704,-5.908,-5.973,-6.0194,-6.056,-6.0802,-6.1375,-6.1724,-6.1982,-6.2494,-6.3207,-6.3803,-6.3411,-6.3528,-6.3501,-6.2469,-6.2999,-6.3558,-6.3145,-6.3348,-6.3579,-6.3579,-6.3887,-6.4532,-6.587,-6.549,-6.5504,-6.6667,-6.5779,-6.5014,-6.4799,-6.4869,-6.4888,-6.4888,-6.4998,-6.5108,-6.5406,-6.5406,-6.5483,-6.57,-6.5406,-6.5157,-6.4907,-6.5295,-6.5402,-6.5407,-6.5754,-6.5764,-6.5543,-6.3932,-6.2736,-1.8817,-1.9746,-2.1095,0.0,0.0,0.0,-2.7317,-2.8518,0.0,0.0,0.0,0.0,0.0,0.0,0.0,0.0,0.0,0.0,0.0,0.0,0.0,0.0,0.0,0.0,0.0,0.0,0.0,-4.4914,-4.4788,-4.481,-4.5077,-4.5137,-4.5246,-4.5235,-4.4486,-4.3911,-4.3587,-4.3362,-4.3751,-4.4618,-4.497,-4.5666,-4.6566,-4.6993,-4.7205,-4.7375,-4.7964,-4.8629,-4.9298,-4.9782,-5.0843,-5.2272,-5.2498,-5.3707,-5.541,-5.566,-5.6549,-5.7816,-5.7688,-5.8198,-5.8704,-5.8451,-5.8955,-5.9578,-6.0071,-6.0316,-6.0681,-6.1284,-6.1546,-6.1895,-6.267,-6.3177,-6.3506,-6.3384,-6.3441,-6.3381,-6.2293,-6.2585,-6.3053,-6.2824,-6.3118,-6.3468,-6.3468,-6.4287,-6.5086,-6.5875,-6.5528,-6.5513,-6.6277,-6.5452,-6.4687,-6.4412,-6.4635,-6.4888,-6.4888,-6.4888,-6.4998,-6.5297,-6.5187,-6.5297,-6.5483,-6.5406,-6.5219,-6.4924,-6.5405,-6.5464,-6.4883,-6.5649,-6.5701,-6.4893,-6.3277,-6.2467,-1.994,-2.0423,-2.1648,0.0,0.0,0.0,-2.8029,-2.7774,-2.7839,0.0,0.0,0.0,0.0,0.0,0.0,0.0,0.0,0.0,0.0,0.0,0.0,0.0,0.0,0.0,0.0,-4.3736,-4.3726,-4.4443,-4.4593,-4.5121,-4.625,-4.5171,-4.4653,-4.4799,-4.3921,-4.3373,-4.3298,-4.2874,-4.3312,-4.4618,-4.4618,-4.5221,-4.6301,-4.6993,-4.7112,-4.6925,-4.7847,-4.8512,-4.9087,-4.9662,-5.0843,-5.2299,-5.2498,-5.3707,-5.541,-5.541,-5.617,-5.7303,-5.756,-5.7944,-5.8325,-5.8578,-5.8955,-5.9329,-5.9948,-6.0194,-6.0438,-6.1073,-6.1251,-6.1517,-6.2253,-6.2408,-6.2588,-6.3358,-6.3384,-6.2937,-6.2322,-6.2644,-6.3026,-6.3061,-6.3476,-6.3917,-6.3977,-6.4925,-6.5845,-6.6057,-6.6107,-6.6101,-6.6253,-6.5612,-6.5054,-6.4443,-6.4666,-6.4888,-6.4888,-6.4888,-6.4998,-6.5187,-6.4998,-6.4998,-6.5297,-6.5297,-6.5297,-6.5297,-6.5592,-6.5388,-6.4902,-6.5996,-6.5691,-6.4057,-6.2945,-6.2592,0.0,0.0,0.0,0.0,0.0,0.0,-2.2515,-2.371,-2.5561,0.0,0.0,0.0,0.0,0.0,0.0,0.0,0.0,0.0,0.0,0.0,0.0,0.0,0.0,0.0,0.0,-4.3848,-4.3685,-4.4257,-4.4483,-4.5121,-4.625,-4.4819,-4.4016,-4.4001,-4.3375,-4.2824,-4.2484,-4.2811,-4.3539,-4.4618,-4.4618,-4.5338,-4.6686,-4.7112,-4.7324,-4.7586,-4.7938,-4.8512,-4.9113,-4.9662,-5.0722,-5.191,-5.2375,-5.3583,-5.5006,-5.5284,-5.6296,-5.756,-5.7688,-5.8071,-5.8578,-5.8704,-5.908,-5.9606,-5.973,-6.0194,-6.0681,-6.1073,-6.1783,-6.2195,-6.1906,-6.2731,-6.3561,-6.3326,-6.312,-6.3002,-6.2553,-6.2618,-6.2793,-6.309,-6.3149,-6.3408,-6.3917,-6.4056,-6.4558,-6.6189,-6.5041,-6.4407,-6.5581,-6.4789,-6.4228,-6.4106,-6.4554,-6.4888,-6.4888,-6.4888,-6.4888,-6.4998,-6.4888,-6.4888,-6.4998,-6.4998,-6.4998,-6.4998,-6.5483,-6.5853,-6.6185,-6.5985,-6.5114,-6.3746,-6.3725,-6.3975,0.0,0.0,0.0,-2.3193,0.0,0.0,0.0,-2.3169,-2.3889,0.0,0.0,0.0,0.0,0.0,0.0,0.0,0.0,0.0,0.0,0.0,0.0,0.0,0.0,0.0,0.0,-4.2528,-4.2705,-4.3563,-4.4029,-4.4593,-4.5422,-4.4418,-4.3551,-4.3162,-4.2637,-4.2213,-4.1938,-4.2213,-4.315,-4.4618,-4.4618,-4.5338,-4.6566,-4.69,-4.7231,-4.7442,-4.7821,-4.8551,-4.9479,-4.9479,-5.0401,-5.1698,-5.2359,-5.3557,-5.488,-5.5284,-5.6296,-5.7431,-5.7431,-5.7944,-5.8451,-5.8451,-5.8955,-5.9482,-5.9606,-5.9872,-6.0157,-6.0986,-6.0932,-6.079,-6.0908,-6.1494,-6.2142,-6.1968,-6.2115,-6.235,-6.2111,-6.2233,-6.2469,-6.2529,-6.2705,-6.3056,-6.3887,-6.427,-6.4865,-6.5859,-6.4865,-6.4352,-6.5377,-6.4468,-6.3766,-6.3993,-6.4412,-6.4777,-6.4888,-6.4888,-6.4888,-6.4888,-6.4888,-6.4888,-6.4888,-6.4998,-6.5187,-6.5297,-6.5731,-6.5897,-6.5627,-6.5975,-6.5492,-6.4382,-6.4382,-6.457,0.0,0.0,0.0,0.0,0.0,-2.357,0.0,0.0,0.0,0.0,0.0,0.0,0.0,0.0,0.0,0.0,0.0,0.0,0.0,0.0,0.0,0.0,0.0,0.0,0.0,-4.0714,-4.1297,-4.2599,-4.2824,-4.3388,-4.4267,-4.379,-4.3125,-4.2326,-4.2002,-4.1778,-4.1654,-4.1977,-4.2962,-4.4618,-4.4744,-4.5321,-4.6421,-4.678,-4.6993,-4.7324,-4.7807,-4.8692,-4.975,-4.9427,-5.0185,-5.1596,-5.2236,-5.3352,-5.488,-5.5284,-5.617,-5.7174,-5.7303,-5.7606,-5.806,-5.8297,-5.8704,-5.9205,-5.973,-5.9521,-5.9514,-6.0779,-5.9998,-5.9013,-5.9914,-6.0206,-6.0353,-6.0735,-6.1144,-6.1523,-6.164,-6.182,-6.1969,-6.1969,-6.2234,-6.2793,-6.377,-6.4601,-6.5079,-6.5349,-6.4688,-6.4417,-6.5109,-6.4262,-6.3652,-6.3993,-6.43,-6.4524,-6.4888,-6.4888,-6.4777,-6.4888,-6.4888,-6.4777,-6.4888,-6.5108,-6.5406,-6.57,-6.5947,-6.5696,-6.5102,-6.6016,-6.6027,-6.5125,-6.5039,-6.5208,0.0,0.0,0.0,0.0,-2.736,0.0,0.0,0.0,0.0,0.0,0.0,0.0,0.0,0.0,0.0,0.0,0.0,0.0,0.0,0.0,0.0,0.0,0.0,0.0,0.0,0.0,-3.9686,-4.1753,-4.0607,-4.0814,-4.3062,-4.2635,-4.2082,-4.1447,-4.1932,-4.1932,-4.1322,-4.2774,-4.3966,-4.4644,-4.5146,-4.5842,-4.6806,-4.6993,-4.7324,-4.7729,-4.851,-4.9109,-4.9412,-4.9698,-5.0402,-5.1194,-5.1689,-5.2881,-5.45,-5.5159,-5.617,-5.7174,-5.756,-5.7586,-5.748,-5.8411,-5.8955,-5.9329,-5.9948,-5.9521,-5.9152,-6.0779,-5.9998,-5.9013,-5.9914,-6.0206,-6.0351,-6.0932,-6.1135,-6.1338,-6.1861,-6.1903,-6.1613,-6.1613,-6.1969,-6.2558,-6.377,-6.3617,-6.3824,-6.4844,-6.3977,-6.3524,-6.4036,-6.373,-6.3652,-6.3993,-6.43,-6.4524,-6.4888,-6.4635,-6.4635,-6.4888,-6.4635,-6.4635,-6.4888,-6.4888,-6.5187,-6.57,-6.5515,-6.57,-6.6385,-6.6268,-6.5816,-6.5125,-6.5964,-6.6385,0.0,0.0,0.0,0.0,0.0,0.0,0.0,0.0,-2.2882,0.0,0.0,0.0,0.0,0.0,0.0,0.0,0.0,0.0,0.0,0.0,0.0,0.0,0.0,0.0,0.0,0.0,0.0,0.0,-3.8485,-3.8832,-4.1444,-4.1479,-4.1513,-4.1479,-4.2248,-4.2248,-4.1479,-4.2588,-4.3537,-4.4411,-4.4661,-4.5354,-4.6541,-4.678,-4.7112,-4.7468,-4.808,-4.864,-4.9187,-4.9427,-4.9985,-5.0976,-5.1355,-5.2368,-5.3615,-5.4369,-5.5159,-5.5942,-5.6677,-5.6784,-5.6941,-5.7685,-5.8015,-5.8344,-5.9415,-5.8576,-5.7888,-5.9966,-5.9071,-5.7686,-5.8813,-5.887,-5.8809,-5.9827,-6.0143,-6.0307,-6.1305,-6.1488,-6.1404,-6.1613,-6.1732,-6.2057,-6.2794,-6.288,-6.3145,-6.4306,-6.3647,-6.3288,-6.3917,-6.3584,-6.3424,-6.3993,-6.4075,-6.43,-6.4888,-6.4635,-6.4493,-6.4635,-6.4524,-6.4524,-6.4888,-6.4888,-6.5108,-6.5515,-6.5483,-6.5839,-6.6406,-6.6406,-6.6248,-6.5964,-6.6354,-6.6617,-3.0772,0.0,0.0,0.0,0.0,0.0,0.0,0.0,0.0,0.0,0.0,0.0,0.0,0.0,0.0,-2.2838,0.0,0.0,0.0,0.0,0.0,0.0,0.0,0.0,0.0,0.0,0.0,-3.6677,-3.5915,-3.6628,-3.9841,-4.0418,-4.1056,-4.1579,-4.2349,-4.2449,-4.1718,-4.2351,-4.3198,-4.4202,-4.4469,-4.5279,-4.6446,-4.678,-4.7112,-4.7324,-4.7859,-4.8432,-4.8942,-4.9087,-4.9766,-5.0637,-5.0848,-5.1601,-5.2754,-5.369,-5.4369,-5.506,-5.5772,-5.6139,-5.6498,-5.694,-5.7238,-5.7584,-5.8611,-5.7746,-5.6886,-5.9155,-5.8204,-5.6709,-5.8234,-5.8234,-5.8174,-5.9277,-5.9677,-6.0134,-6.0986,-6.1193,-6.1313,-6.1494,-6.1494,-6.1613,-6.185,-6.2351,-6.288,-6.3561,-6.3378,-6.3228,-6.3677,-6.3348,-6.3309,-6.3766,-6.3993,-6.4218,-6.4777,-6.4524,-6.43,-6.43,-6.4382,-6.4524,-6.4888,-6.4888,-6.4998,-6.5297,-6.5406,-6.5731,-6.6192,-6.6268,-6.648,-6.6617,-6.6617,-6.6617,0.0,0.0,0.0,-2.915,0.0,0.0,0.0,0.0,-2.4472,0.0,0.0,0.0,0.0,0.0,-2.3167,-2.2521,-2.3006,0.0,0.0,0.0,0.0,0.0,0.0,0.0,0.0,0.0,0.0,-3.3349,-3.2755,-3.4053,-3.8314,-3.9531,-4.0458,-4.1247,-4.1907,-4.2073,-4.1718,-4.2599,-4.3425,-4.4202,-4.5078,-4.5867,-4.6806,-4.7112,-4.7324,-4.7729,-4.8681,-4.8797,-4.8558,-4.8942,-4.962,-5.0338,-5.0011,-5.0603,-5.1826,-5.3406,-5.4369,-5.5006,-5.5311,-5.5811,-5.6292,-5.6076,-5.666,-5.7499,-5.774,-5.7168,-5.6773,-5.8373,-5.7627,-5.6824,-5.8813,-5.9277,-5.9422,-6.0032,-6.0671,-6.1164,-6.1193,-6.1193,-6.1193,-6.1193,-6.1193,-6.1284,-6.1613,-6.2116,-6.2615,-6.2644,-6.2847,-6.3079,-6.3109,-6.3079,-6.3194,-6.3538,-6.3766,-6.4075,-6.4382,-6.4188,-6.3993,-6.3993,-6.43,-6.4524,-6.4888,-6.4888,-6.4998,-6.5297,-6.5108,-6.5328,-6.6192,-6.5839,-6.6023,-6.6617,-6.6617,-6.6617,0.0,0.0,-3.626,-3.1318,0.0,0.0,0.0,0.0,0.0,0.0,0.0,0.0,0.0,-2.3979,-2.3282,-2.2838,-2.2671,-2.2174,0.0,-2.0111,0.0,0.0,0.0,0.0,0.0,0.0,0.0,-3.1641,-3.1673,-3.3063,-3.6402,-3.78,-3.9013,-4.0244,-4.1246,-4.1828,-4.1718,-4.2351,-4.3198,-4.4202,-4.4494,-4.5422,-4.6806,-4.7112,-4.7324,-4.7703,-4.829,-4.8486,-4.8368,-4.8904,-4.9531,-5.0089,-5.042,-5.0943,-5.1747,-5.2704,-5.3138,-5.3449,-5.4311,-5.4977,-5.5469,-5.5104,-5.5381,-5.5961,-5.6711,-5.6401,-5.6181,-5.7713,-5.7598,-5.7282,-5.8407,-5.8813,-5.9188,-6.0032,-6.0262,-6.0432,-6.1106,-6.1193,-6.1193,-6.1193,-6.1193,-6.1193,-6.1284,-6.1642,-6.1998,-6.2234,-6.2701,-6.2963,-6.2468,-6.2615,-6.2847,-6.3164,-6.3279,-6.3659,-6.4653,-6.4516,-6.422,-6.4023,-6.4106,-6.4331,-6.4888,-6.4888,-6.4888,-6.4998,-6.5108,-6.5297,-6.5654,-6.5839,-6.6192,-6.6299,-6.6512,-6.6617,-3.6254,-3.7031,0.0,-3.3001,-3.1991,0.0,-2.6404,0.0,0.0,0.0,0.0,0.0,0.0,0.0,-2.4131,-2.3858,-2.3074,-2.1748,0.0,-1.8937,-1.8946,-1.9518,0.0,0.0,0.0,0.0,-2.7404,-2.9786,-2.9822,-3.1368,0.0,0.0,-3.8044,-4.0137,-4.0656,-4.1211,-4.1718,-4.1867,-4.2612,-4.3904,-4.422,-4.5246,-4.6806,-4.7019,-4.7349,-4.7703,-4.7938,-4.8055,-4.8224,-4.8616,-4.9218,-4.9923,-5.0315,-5.1066,-5.1846,-5.2342,-5.2711,-5.3105,-5.3713,-5.4227,-5.4622,-5.4598,-5.4817,-5.511,-5.5827,-5.5922,-5.593,-5.6908,-5.7138,-5.7369,-5.8292,-5.8726,-5.9246,-6.0351,-6.0435,-6.0432,-6.1106,-6.1193,-6.1193,-6.1193,-6.1193,-6.1193,-6.1193,-6.1404,-6.1732,-6.185,-6.2351,-6.2496,-6.1909,-6.2116,-6.2379,-6.2344,-6.2754,-6.3429,-6.4311,-6.4468,-6.4347,-6.4023,-6.3993,-6.4218,-6.4888,-6.4777,-6.4777,-6.4888,-6.5077,-6.5187,-6.5406,-6.5978,-6.6192,-6.6299,-6.6512,-6.6617]}]]